GFSWCAN_sfc_thetae_003.txt.gz
Theta_e
307 307 307 307 307 307 307 307 307 307 307 307 308 308 308 308 308 309 308 310 305 294 298 302 303 298 297 293 287 293 292 289 288 285 281 281 274 282 281 284 282 282 280 277 280 278 277 292 294 287 292 293 293 293
307 306 306 306 306 306 307 307 306 306 306 306 307 308 308 307 308 309 306 310 309 302 300 307 309 307 305 302 297 293 293 292 290 287 286 281 281 284 280 283 288 284 287 282 285 284 291 293 296 297 297 294 292 293
306 306 305 305 306 306 306 306 306 306 306 306 306 307 307 307 308 309 306 306 303 291 297 299 300 305 311 308 307 294 288 298 293 295 287 287 286 285 286 286 287 291 294 285 287 292 293 296 298 300 297 295 299 296
304 305 305 305 305 305 305 305 305 305 306 305 305 306 306 307 307 307 304 306 302 294 286 293 302 303 308 309 307 305 303 301 299 293 287 287 286 293 287 291 289 293 293 290 291 295 296 296 297 297 299 296 293 294
303 303 304 304 304 304 304 304 304 304 305 306 306 306 306 307 307 305 303 305 307 301 289 291 298 303 305 306 305 305 303 300 292 290 287 287 289 289 287 287 287 295 292 289 289 296 295 296 297 296 294 293 293 293
302 303 303 303 303 304 304 303 303 304 304 304 305 306 306 306 307 307 300 303 307 308 293 288 296 296 300 301 301 301 301 299 298 294 288 292 296 292 286 286 293 296 299 299 295 299 299 297 294 294 293 293 295 294
302 302 302 302 302 303 303 303 304 303 304 304 304 305 305 305 308 303 299 300 306 306 290 288 288 290 294 296 295 296 297 296 298 294 290 291 292 296 286 287 294 297 297 298 299 299 295 294 291 293 292 291 291 291
302 302 301 301 302 302 302 303 303 303 304 304 304 305 305 305 305 300 303 305 307 300 292 288 287 288 294 288 287 292 288 291 293 294 290 288 289 288 287 293 294 294 295 295 295 295 294 293 292 290 290 291 289 288
301 301 301 301 301 301 302 302 303 303 303 304 304 304 303 300 295 298 303 302 301 299 289 286 286 286 293 289 288 287 289 286 289 286 287 290 286 286 290 291 292 293 292 292 291 291 291 289 290 289 287 286 286 285
301 301 300 300 300 301 301 302 303 303 303 303 301 297 288 292 302 301 298 292 291 289 289 286 289 286 294 286 285 286 285 285 284 285 288 285 286 291 292 291 292 291 291 291 286 286 286 284 284 283 284 285 285 284
301 301 300 300 300 301 301 301 302 303 302 297 290 288 296 302 297 290 286 286 287 285 286 286 287 287 291 286 285 286 284 284 280 278 283 279 279 285 288 288 289 289 289 287 287 287 286 285 285 284 284 285 284 282
301 301 300 300 300 301 301 300 300 299 297 297 295 298 296 293 287 286 285 284 284 283 285 285 286 289 287 292 285 285 281 282 276 281 280 275 279 285 286 287 287 287 287 288 288 288 288 288 287 285 284 283 282 279
301 301 300 300 300 301 300 300 300 301 300 296 291 288 289 285 284 282 280 281 281 284 286 286 285 286 287 287 284 280 278 277 277 277 275 277 282 284 286 286 287 288 285 284 286 287 287 286 285 282 282 281 283 283
300 300 300 300 300 299 299 300 299 297 293 284 282 282 283 280 282 280 275 277 284 285 285 286 284 283 282 277 279 277 275 273 276 274 271 276 281 283 284 284 284 284 281 280 282 283 282 281 281 280 276 280 281 282
300 300 300 299 299 298 298 298 298 293 286 282 278 274 278 279 283 285 285 285 285 287 286 284 283 280 277 272 276 272 271 272 275 270 272 277 282 283 283 283 283 281 280 280 283 281 280 280 279 280 281 278 279 284
300 299 297 299 298 298 298 298 295 289 282 280 278 273 281 282 281 283 285 285 287 285 284 282 271 269 270 269 268 271 268 267 270 270 275 278 282 283 282 282 282 282 281 282 283 282 282 279 279 281 280 278 280 281
298 293 299 298 298 298 297 292 288 284 277 273 272 282 273 279 274 281 283 285 287 284 279 273 269 271 272 266 267 272 269 270 271 275 277 280 282 282 282 282 280 281 283 282 282 282 282 282 279 276 277 282 279 279
293 297 298 298 296 294 291 286 280 278 276 275 273 272 280 274 283 284 281 277 285 283 278 275 275 268 265 265 266 271 272 273 276 277 278 280 282 282 282 282 283 283 282 282 280 281 280 278 279 281 281 282 279 278
296 297 298 297 293 287 282 282 283 275 274 272 274 274 273 274 276 275 273 277 285 284 282 278 266 267 269 270 268 268 266 270 276 280 279 282 282 282 283 283 283 283 282 282 282 283 283 282 282 282 282 282 282 283
297 297 296 296 293 281 278 276 281 277 274 276 273 274 274 274 273 274 282 277 281 283 281 278 273 272 272 275 276 275 277 277 276 277 280 281 281 282 282 283 283 282 282 281 280 276 281 282 282 281 283 283 283 283
294 294 294 291 285 283 280 275 274 276 277 276 276 275 272 274 277 274 280 283 280 280 279 278 273 277 280 281 279 279 280 279 280 278 279 281 282 280 281 281 280 279 277 277 277 280 282 284 285 286 285 285 285 285
292 294 288 288 282 277 277 277 276 276 274 272 272 274 270 268 273 277 275 280 279 279 278 277 281 281 281 280 282 281 282 282 282 281 279 279 279 279 277 277 274 273 281 282 282 283 284 285 285 285 285 285 285 282
291 288 284 284 275 272 272 277 271 274 271 269 271 269 266 265 270 276 272 277 276 280 282 280 282 283 282 283 281 282 282 282 281 281 280 279 279 277 274 275 271 275 281 283 284 284 285 285 285 284 284 284 282 280
289 282 277 274 270 267 272 278 277 271 267 269 266 264 267 266 269 266 268 268 277 277 278 281 281 280 279 280 279 282 283 280 280 278 277 274 276 277 276 277 276 277 282 284 284 284 285 285 285 283 279 282 281 281
275 277 272 275 278 276 272 267 267 270 269 264 264 263 267 266 266 262 266 271 269 271 276 276 275 278 277 277 276 279 278 280 279 277 278 275 272 270 273 275 276 281 279 283 282 284 284 284 284 283 282 279 277 278
267 273 276 276 275 267 269 266 270 267 260 261 263 266 260 262 262 265 270 271 268 270 270 271 271 272 275 278 278 278 279 278 277 275 277 277 276 274 274 279 280 277 275 282 284 283 283 283 283 283 282 281 276 279
267 272 277 276 275 273 266 262 265 263 261 263 263 262 262 263 263 269 273 273 275 275 276 276 278 278 278 280 279 279 278 275 279 279 276 277 279 279 279 281 277 277 281 284 283 282 281 282 283 283 282 282 280 280
271 271 272 272 269 268 264 260 262 265 266 270 265 264 266 266 269 273 276 277 276 276 278 278 278 280 280 279 275 273 277 275 270 272 271 274 277 275 271 281 282 280 279 281 282 283 282 282 283 283 283 282 282 283
277 273 270 266 268 269 271 269 268 271 274 271 267 264 267 272 272 272 276 276 274 275 273 277 277 269 274 283 282 282 277 281 278 274 274 272 275 278 278 276 281 283 282 282 283 284 283 282 282 282 282 283 284 284
272 275 276 274 274 273 273 273 268 268 271 276 275 275 275 273 273 272 272 272 270 269 272 274 275 275 280 282 280 279 279 277 280 280 277 272 271 269 273 279 280 281 282 281 280 278 274 272 274 276 278 279 280 279
269 266 264 262 264 268 271 267 262 264 265 270 271 274 277 275 268 267 269 268 268 276 275 275 277 275 275 275 274 272 273 272 272 273 271 266 265 265 265 268 271 276 279 277 277 269 266 268 270 272 274 275 275 277
269 266 267 264 267 270 264 267 266 266 270 262 275 266 264 266 265 265 269 269 269 269 268 269 270 272 274 274 273 271 272 272 272 272 271 269 269 266 265 266 266 268 269 275 272 267 267 267 266 267 268 272 272 270
260 257 256 259 262 263 263 265 262 262 258 260 271 265 264 269 269 267 270 270 269 269 269 270 270 271 272 274 273 273 273 273 273 274 273 271 268 265 262 261 261 263 264 265 268 267 266 264 263 262 263 264 264 264

GFSWCAN_sfc_thetae_006.txt.gz
Theta_e
306 306 306 306 306 307 307 307 307 307 307 307 307 309 308 307 308 309 306 307 303 292 296 301 301 297 295 292 287 292 291 288 288 285 281 282 273 281 281 284 281 280 277 275 279 279 276 290 291 286 291 294 295 295
306 306 305 305 306 306 306 307 306 306 306 306 307 307 307 307 307 308 305 307 306 299 298 302 304 304 301 300 295 291 292 290 289 286 285 281 279 281 282 282 286 282 285 284 286 283 290 293 295 296 296 295 293 292
305 306 305 305 306 306 306 306 306 306 306 306 306 307 307 307 308 308 304 303 301 291 296 299 298 304 309 306 305 293 287 295 292 293 286 284 280 283 285 285 283 290 293 288 288 291 294 297 298 297 296 296 294 293
304 304 306 304 305 305 305 305 305 305 305 305 306 306 306 307 307 307 304 302 300 294 286 292 300 300 305 307 304 304 301 299 295 291 286 285 286 293 287 291 289 291 293 290 289 295 295 295 294 295 294 295 294 294
303 303 303 304 304 304 305 305 304 305 305 306 307 306 306 306 306 305 304 304 305 299 288 290 297 301 303 303 302 301 301 298 293 290 286 287 287 289 287 287 287 293 291 286 289 294 295 296 296 297 294 293 293 292
302 302 302 303 304 303 304 304 304 304 304 305 305 306 306 306 306 304 298 302 304 306 292 287 295 293 297 299 299 297 299 297 295 294 288 292 296 291 286 286 293 295 296 299 295 300 298 297 296 295 292 291 292 290
302 302 302 302 302 303 303 303 303 303 304 304 304 305 305 305 308 303 298 299 304 302 289 287 287 288 292 295 294 294 296 294 295 293 289 290 291 295 286 287 293 295 296 298 298 297 292 291 291 293 293 290 289 289
301 301 301 302 302 302 302 303 303 303 303 304 304 304 305 305 304 301 302 305 306 298 293 287 287 286 293 287 287 291 288 291 294 294 290 288 289 287 286 291 292 294 295 294 293 293 292 293 292 290 288 286 285 284
301 301 300 301 301 301 302 302 303 303 304 304 304 304 303 301 296 298 303 303 302 298 289 286 286 286 293 289 287 285 288 286 290 286 287 289 286 286 290 287 288 289 289 289 290 290 289 286 285 285 285 284 283 283
301 300 300 300 301 301 302 302 302 303 303 303 301 296 288 293 302 302 298 293 292 289 290 286 289 287 294 286 286 286 286 285 284 285 288 285 285 290 288 289 289 288 289 289 286 285 285 283 283 284 284 283 283 283
301 300 300 300 301 300 301 302 302 303 302 297 291 288 296 302 296 291 286 287 287 285 286 286 287 287 291 286 286 286 285 284 277 277 283 281 279 284 285 285 285 286 286 286 285 285 285 285 285 284 283 283 282 282
301 300 300 300 301 301 300 301 301 299 297 297 296 298 296 293 288 287 285 284 285 282 285 285 286 289 287 292 286 285 282 282 276 280 279 273 279 283 284 284 285 285 285 285 285 286 286 286 285 284 283 283 282 281
301 300 300 300 300 301 300 301 300 300 299 294 291 288 289 286 283 282 278 281 282 284 285 285 285 286 287 287 284 282 278 275 277 275 273 276 281 282 282 284 285 285 284 282 283 283 283 283 283 280 281 281 279 280
300 300 300 300 300 299 300 299 299 297 293 286 283 283 281 280 282 282 282 277 280 285 285 285 284 283 282 281 280 274 276 275 275 270 270 275 280 281 282 283 283 283 279 279 281 282 280 279 279 279 277 278 276 278
300 300 300 299 298 299 299 298 297 294 289 283 280 277 280 280 281 285 285 285 285 286 286 284 282 281 278 276 277 273 274 272 273 270 271 276 281 282 282 283 282 280 278 278 282 280 278 278 278 279 280 278 277 276
300 299 297 299 299 298 298 296 294 290 284 281 278 274 280 282 281 283 285 285 287 285 284 281 274 275 272 271 269 272 270 269 270 269 274 278 282 282 282 282 281 281 281 282 282 281 280 277 277 281 281 279 278 277
298 293 299 298 298 296 296 291 288 283 279 275 273 281 273 274 276 277 284 285 287 284 279 278 270 270 272 266 268 272 268 270 271 273 276 280 282 282 282 281 279 280 281 281 281 280 280 280 277 276 277 281 280 279
294 297 298 298 295 293 290 286 281 279 276 275 274 273 281 277 276 278 281 281 283 282 279 277 275 267 264 265 267 271 272 272 274 274 278 280 282 282 282 281 282 282 282 281 279 279 278 276 278 281 281 281 281 280
296 297 297 296 293 285 282 282 283 275 274 273 274 276 274 275 280 278 276 280 283 284 281 275 266 268 270 271 270 266 265 269 275 278 279 281 281 281 281 282 282 282 281 280 280 281 281 280 281 282 281 281 282 283
297 296 296 295 292 282 278 277 281 277 274 276 273 275 274 274 277 279 281 278 278 281 280 276 273 272 272 274 276 275 276 277 275 276 279 278 280 281 281 282 282 282 281 280 278 276 278 279 280 281 281 283 284 284
294 293 293 290 283 282 279 274 274 275 276 275 274 274 271 278 278 278 280 280 280 279 274 276 272 277 279 278 279 279 279 279 279 277 277 279 280 280 281 281 280 278 275 274 278 281 282 282 283 284 285 284 284 285
291 293 287 287 279 276 277 276 275 275 273 271 271 272 266 265 273 277 280 279 278 276 278 278 281 279 280 280 281 281 281 281 281 280 278 278 278 277 277 277 273 274 273 274 277 279 283 284 284 285 285 284 284 285
291 287 281 278 275 271 274 276 271 273 268 268 269 268 265 264 268 278 276 279 276 279 279 279 281 282 282 282 281 282 282 281 280 280 279 279 280 278 274 275 273 273 275 277 276 278 283 283 284 285 285 284 284 283
289 281 277 274 270 269 276 274 274 270 266 265 265 267 266 265 269 273 271 267 275 276 277 281 279 278 278 278 278 280 281 280 279 278 277 274 275 277 275 276 273 274 276 279 279 283 283 282 285 284 285 282 282 281
277 278 272 273 275 271 270 264 265 273 274 264 264 264 264 265 265 263 264 269 267 268 273 274 274 277 275 273 274 277 277 279 277 276 279 276 274 270 273 274 274 275 274 270 272 275 282 283 283 282 283 282 281 281
267 275 274 270 274 266 265 267 270 269 259 261 267 263 258 260 262 265 269 270 266 268 267 268 269 270 273 277 276 275 279 276 275 273 279 276 276 276 273 272 274 275 272 279 281 282 281 281 281 281 281 281 281 281
267 273 277 276 273 270 263 260 264 261 259 263 262 260 261 262 262 269 272 272 274 274 275 275 276 277 278 279 278 277 275 273 276 278 274 274 275 277 276 275 279 279 280 281 280 281 280 280 280 280 281 281 281 282
268 269 271 272 273 269 263 259 261 263 265 268 264 263 265 265 268 272 275 277 275 275 275 276 276 277 277 277 275 271 277 276 276 269 273 278 279 279 276 274 278 281 278 280 281 281 281 282 281 280 279 279 280 282
276 273 270 270 264 263 266 268 267 270 273 271 268 265 268 272 272 272 273 272 270 272 272 272 274 268 272 272 273 277 277 280 280 278 277 277 269 275 276 274 275 279 281 281 281 281 279 275 273 275 275 277 280 281
273 272 267 264 267 268 271 275 270 267 269 271 272 273 273 271 268 269 269 270 273 273 276 275 277 277 278 279 279 279 276 276 277 278 276 271 270 269 269 270 271 275 277 279 279 279 278 266 268 268 269 271 271 272
265 267 269 267 266 267 269 263 259 261 261 266 265 271 276 269 269 264 268 265 267 268 269 268 268 269 269 270 271 272 274 272 272 270 270 270 270 270 269 268 267 268 271 274 276 275 267 263 261 261 264 270 271 268
271 266 265 263 265 264 260 266 260 261 262 261 272 260 262 263 260 264 268 266 266 266 266 267 267 267 271 272 273 272 272 270 270 270 270 269 269 267 266 264 262 262 260 265 263 262 260 259 258 259 259 261 263 263
258 258 261 257 262 262 260 262 260 262 257 256 258 258 257 261 263 266 269 269 268 267 266 267 269 270 271 271 270 270 271 270 270 269 268 269 266 263 261 258 257 256 257 257 258 257 258 257 256 257 258 259 259 260

GFSWCAN_sfc_thetae_009.txt.gz
Theta_e
306 305 306 306 306 306 306 307 307 307 307 307 308 308 307 307 308 311 308 308 304 294 299 303 302 297 297 295 292 295 294 292 290 286 286 286 284 286 286 287 284 285 284 281 282 281 279 293 293 290 295 297 296 296
305 306 305 305 305 306 306 306 306 306 306 306 307 308 307 307 307 309 307 307 306 301 300 305 308 307 305 302 297 293 296 293 294 288 286 285 284 282 284 285 289 285 289 287 287 287 293 295 297 299 297 296 294 294
304 304 305 304 305 305 306 306 306 305 305 306 307 308 307 307 307 308 306 305 302 292 298 301 301 305 309 307 306 297 292 297 295 296 290 287 286 287 284 284 287 291 293 290 289 294 295 297 299 298 297 294 295 295
303 303 303 304 304 304 305 305 305 305 305 305 306 306 307 307 306 307 305 303 301 294 287 295 301 303 307 309 308 306 301 299 297 295 287 286 286 293 287 292 290 294 294 291 290 295 296 296 298 297 295 296 295 295
303 302 302 303 304 304 304 305 305 305 305 305 304 305 306 306 306 305 305 305 305 302 290 291 299 302 302 304 306 304 302 299 295 291 287 288 290 291 289 289 288 295 293 290 290 297 296 296 298 297 294 293 294 293
302 302 302 302 302 303 303 304 304 305 305 305 306 306 306 305 306 305 299 303 305 304 292 288 296 295 297 301 301 301 301 299 298 295 288 293 297 294 286 286 293 297 298 299 297 299 298 296 296 296 293 292 291 290
301 302 302 302 302 302 303 303 304 304 304 304 305 305 306 305 309 303 298 301 304 302 290 287 288 291 294 295 294 295 297 297 298 294 289 291 291 295 286 286 294 296 296 298 297 297 292 292 291 293 290 290 290 289
301 301 301 301 301 302 302 302 303 304 304 304 304 304 305 305 304 302 304 304 304 299 294 287 288 287 294 289 288 292 290 294 295 295 290 289 290 289 287 292 291 291 293 294 293 294 293 291 290 289 290 289 288 287
300 300 300 301 301 301 302 302 303 303 304 304 304 305 304 302 297 300 303 303 302 298 290 286 286 286 293 290 288 288 290 287 291 286 287 290 288 286 287 287 289 290 290 290 290 288 289 288 288 288 288 288 286 286
300 300 300 300 300 301 302 302 302 303 303 304 302 297 289 293 302 303 298 294 292 290 291 286 289 288 294 287 287 288 286 286 285 287 288 285 286 287 287 289 290 290 291 290 287 286 287 286 287 287 287 287 286 285
301 300 300 300 300 301 302 302 302 302 302 297 291 288 296 302 297 292 286 287 287 285 287 287 287 288 291 287 286 286 285 285 281 282 284 283 283 285 287 286 287 288 288 288 288 288 287 286 286 286 286 287 286 285
302 300 300 301 301 300 302 302 302 299 297 297 296 298 296 293 288 285 285 284 286 284 286 286 286 289 287 292 286 285 283 283 276 283 282 279 282 285 286 287 287 287 287 286 286 285 286 285 286 285 285 285 284 284
301 300 300 300 300 300 301 301 301 300 299 296 292 287 289 286 284 283 281 282 283 285 286 286 285 286 287 288 285 283 279 279 281 278 277 279 283 283 284 285 286 286 286 284 285 285 286 285 285 282 282 283 282 282
300 299 300 300 300 300 300 301 300 297 294 287 286 283 283 282 283 280 280 281 283 286 286 286 284 284 283 282 281 278 278 278 276 273 275 280 282 283 284 285 285 284 280 280 283 284 282 281 281 281 278 279 279 280
300 299 300 299 299 299 300 299 298 296 288 283 283 279 281 280 284 285 285 286 285 287 286 284 283 283 279 278 278 277 276 274 275 275 278 281 283 284 284 284 284 282 279 280 284 282 280 280 279 281 282 282 282 280
300 299 295 298 298 299 298 296 295 291 284 282 279 277 280 280 282 284 285 285 287 285 284 283 278 279 277 276 275 273 273 271 276 276 279 281 283 284 284 283 283 283 282 283 283 282 282 280 279 282 282 281 280 279
299 294 299 298 297 296 296 291 288 283 281 276 275 279 277 277 280 283 285 286 288 285 281 278 276 276 275 273 273 275 272 275 277 279 279 281 283 283 283 282 280 281 282 282 283 282 282 282 279 279 280 284 283 282
294 298 298 298 295 294 290 286 282 280 277 277 276 278 282 281 277 277 283 285 286 283 281 278 277 271 271 270 272 275 276 277 277 279 281 282 284 283 283 283 284 284 283 283 281 281 281 279 281 282 282 283 282 283
297 297 297 296 293 285 282 282 282 275 274 274 276 278 279 280 281 280 281 283 283 283 280 277 272 273 274 275 276 274 274 276 279 281 281 283 282 282 282 283 283 283 283 282 283 283 283 281 281 282 283 284 283 283
296 295 294 294 292 282 279 276 281 277 275 277 276 278 276 277 280 281 282 284 285 284 282 279 276 277 276 278 278 279 279 279 279 279 281 281 282 282 282 283 284 284 284 283 281 277 281 283 284 284 283 283 283 283
293 292 292 289 283 282 279 275 275 276 277 275 275 275 273 279 279 279 281 283 282 280 279 279 278 280 281 281 281 281 281 281 280 281 281 281 283 282 283 283 283 282 281 281 280 281 278 282 284 284 284 283 284 284
291 292 286 285 279 278 276 277 276 275 274 272 272 273 267 267 275 277 281 279 279 279 280 279 281 281 281 281 282 282 283 283 283 282 279 280 280 280 280 281 280 281 280 280 281 280 282 282 284 284 283 284 285 284
290 287 281 278 275 271 274 276 271 273 269 269 269 269 266 265 270 278 276 279 278 280 281 281 282 283 282 283 281 282 282 282 281 281 280 280 281 281 280 281 279 279 279 281 281 281 281 283 284 284 284 285 285 285
288 281 278 271 269 270 275 269 272 272 268 267 266 268 267 267 273 274 273 271 276 277 278 281 281 280 279 279 279 281 282 282 281 280 280 279 279 281 281 281 280 279 280 282 280 280 281 283 281 284 284 282 282 283
275 276 272 271 273 269 266 270 271 274 271 271 269 266 265 267 266 267 270 271 271 272 274 275 275 279 278 277 277 279 278 280 280 279 282 279 280 278 280 280 278 279 280 279 279 279 279 283 284 283 281 281 280 281
269 276 267 266 267 267 265 269 270 271 267 265 269 263 260 262 264 267 270 272 270 272 272 273 274 274 276 278 278 279 280 279 279 278 281 280 279 279 280 279 278 280 280 280 281 281 281 281 281 281 281 282 281 281
270 273 275 275 273 269 263 263 265 262 266 266 263 261 262 263 263 270 273 274 276 276 276 277 278 278 279 281 279 279 278 277 279 280 279 278 279 279 279 280 280 282 283 282 282 281 280 280 280 281 280 280 280 280
268 268 268 270 271 267 262 259 260 264 265 269 265 264 266 266 269 273 275 276 274 276 277 276 276 276 277 278 278 277 278 277 280 279 277 278 279 278 278 278 279 279 280 281 282 281 281 281 280 278 278 279 279 280
272 269 269 272 270 270 265 269 269 271 273 270 267 265 268 272 271 270 271 271 272 275 274 274 276 275 276 277 280 277 278 279 279 279 279 279 278 276 274 274 275 276 278 279 281 281 280 279 277 276 276 276 276 275
272 270 266 263 265 266 270 272 269 266 269 271 271 272 272 268 268 268 268 267 267 267 269 270 272 272 271 271 271 273 273 273 273 274 275 275 272 271 271 271 272 272 273 275 277 278 278 271 271 270 270 272 271 270
266 273 267 267 266 267 266 259 258 260 260 264 262 270 272 266 267 265 267 265 263 264 266 265 266 268 268 268 269 270 272 272 272 272 272 271 270 269 268 268 268 267 268 271 275 273 270 267 265 265 265 265 264 265
272 270 266 266 265 262 261 265 261 260 258 260 263 257 261 262 259 264 267 266 265 265 265 266 265 267 270 272 271 271 270 269 268 269 269 268 268 267 266 264 263 263 264 264 265 265 263 263 262 262 262 262 261 262
264 267 266 262 263 263 259 260 260 263 258 256 256 256 257 258 257 262 264 266 266 264 264 264 266 270 269 268 267 268 268 267 267 266 265 265 263 262 262 261 260 260 262 262 261 261 261 260 260 260 259 259 259 259

GFSWCAN_sfc_thetae_012.txt.gz
Theta_e
306 306 306 306 306 306 306 306 307 307 308 308 308 308 307 307 308 318 316 317 315 307 307 308 307 305 305 307 304 304 303 302 300 289 290 292 289 294 291 293 291 290 289 286 287 283 282 298 297 291 298 300 297 297
305 305 305 305 305 305 306 306 306 307 307 307 308 308 308 307 307 312 317 316 315 314 310 313 313 312 311 310 308 306 304 303 306 298 293 291 287 287 292 289 296 290 294 292 291 293 300 302 301 303 302 300 295 296
303 304 304 304 304 305 305 305 306 306 306 306 307 308 308 307 307 313 317 316 316 307 309 311 309 312 316 314 315 308 306 306 305 307 302 295 288 296 287 291 293 297 299 294 294 297 300 302 304 303 300 296 298 298
303 303 303 304 304 304 304 305 305 305 305 306 306 307 307 307 307 310 317 313 313 304 290 305 307 308 311 315 315 314 309 307 307 307 293 290 290 301 292 298 296 299 299 296 295 299 300 301 301 301 298 297 296 296
302 302 302 302 303 304 304 304 304 305 305 305 305 305 307 307 307 315 317 315 316 313 298 303 306 305 308 310 312 312 311 309 304 296 288 291 301 297 295 295 294 300 297 293 291 299 297 298 298 299 297 295 294 294
302 302 302 302 302 303 303 303 304 304 304 305 305 307 307 306 307 317 312 316 316 316 304 296 305 302 305 309 309 309 310 309 307 301 295 301 304 302 287 289 298 301 303 303 297 299 299 299 298 298 295 294 292 292
301 301 302 302 302 302 303 303 303 304 305 305 305 306 307 305 317 312 308 309 308 315 298 294 296 300 300 303 303 305 306 307 305 302 296 301 302 299 290 287 298 300 295 297 299 299 296 297 295 294 293 293 294 294
301 301 301 301 302 302 302 302 303 304 304 304 304 305 305 304 306 309 311 306 310 306 301 292 291 295 300 295 292 297 296 300 299 298 293 295 295 295 289 296 294 295 295 295 296 299 297 295 294 293 294 293 291 290
301 300 300 301 301 302 302 302 303 303 304 304 304 305 305 304 300 304 303 305 309 308 295 289 288 288 299 293 293 294 297 290 297 289 290 294 290 289 292 290 291 293 295 293 294 294 293 291 291 291 290 290 289 289
300 300 300 300 300 301 302 302 302 303 304 304 304 299 289 295 303 304 301 301 297 297 295 290 298 292 298 291 290 292 291 290 287 289 292 286 287 287 290 292 294 295 294 294 290 288 288 287 287 288 288 289 289 289
301 300 300 301 301 301 302 302 302 303 303 298 292 289 297 302 299 294 288 289 288 286 289 288 289 289 295 291 290 290 286 287 285 288 288 286 287 289 292 291 292 292 292 290 289 289 289 289 288 288 288 289 289 288
301 301 300 301 301 301 302 302 302 300 299 298 297 299 296 293 288 286 285 285 285 286 287 287 288 290 288 294 289 286 286 286 283 289 284 283 289 290 290 290 291 290 289 288 289 288 289 289 290 289 288 288 288 287
299 300 300 301 300 301 302 301 301 300 300 298 292 286 288 285 285 284 283 284 285 288 288 287 286 289 289 290 286 287 284 284 288 281 283 288 290 290 290 290 290 290 289 288 288 289 290 290 289 287 286 287 286 286
299 300 300 300 300 301 301 300 300 299 296 289 286 284 286 283 286 286 288 288 288 289 288 288 286 288 286 284 286 283 283 285 280 279 281 287 288 288 289 290 288 287 288 286 287 288 288 287 287 286 285 285 284 284
298 300 300 300 299 300 299 298 298 298 292 286 287 283 284 284 287 287 288 288 288 290 289 287 286 289 284 282 284 282 279 278 281 282 287 288 288 288 288 289 289 288 287 286 288 288 286 286 285 286 287 287 287 285
300 299 299 299 299 299 298 297 296 294 288 286 285 283 284 285 284 285 286 286 289 287 287 289 285 284 282 283 280 280 279 278 283 287 289 288 287 287 288 289 288 287 286 286 287 287 287 286 285 286 287 286 285 285
299 295 299 298 297 295 295 294 293 286 285 285 283 284 285 285 287 287 288 287 289 287 284 285 282 281 281 280 279 281 280 284 287 287 288 288 287 287 288 287 286 286 286 287 288 288 287 287 286 285 285 287 287 288
295 298 299 298 297 295 292 292 288 286 282 283 283 284 285 285 285 286 288 289 288 286 285 284 283 280 279 278 280 284 285 287 287 287 287 288 288 288 288 287 288 287 287 287 287 287 286 285 286 287 286 286 285 285
297 299 298 297 297 293 289 287 288 283 281 283 282 283 284 285 284 284 286 286 289 289 286 285 282 281 281 282 285 286 287 287 287 287 287 288 288 287 287 287 286 287 287 287 288 288 289 288 288 287 287 287 284 286
297 295 294 294 296 290 285 285 288 284 283 283 283 283 284 283 283 284 285 287 288 288 285 283 283 285 285 287 287 288 288 288 287 285 286 287 288 287 287 287 288 289 288 288 288 286 287 288 290 289 288 287 286 285
291 293 292 292 288 287 285 284 284 284 284 283 283 285 281 283 282 282 283 286 285 285 283 286 287 289 288 287 288 288 287 287 286 286 286 286 288 288 288 288 288 288 287 288 288 288 286 287 289 288 287 285 286 286
290 293 288 288 285 284 283 284 284 284 284 283 283 284 282 281 280 281 284 282 282 285 287 287 288 288 288 286 287 288 288 288 288 287 285 286 286 287 287 288 287 287 288 288 289 288 288 289 288 287 286 285 285 286
291 289 286 285 281 282 279 284 281 281 280 280 281 280 280 281 280 281 279 281 283 287 288 288 288 288 287 288 287 287 287 286 287 287 288 288 288 289 288 288 288 286 286 288 289 288 288 286 286 286 286 285 285 284
289 284 281 279 280 277 281 279 281 279 280 278 278 275 276 279 278 277 276 279 283 286 285 285 287 286 286 284 285 286 287 288 288 288 289 287 287 288 289 289 289 289 288 288 288 287 287 285 285 285 285 284 284 283
282 278 280 275 279 276 275 276 276 278 275 275 273 275 276 277 277 275 276 281 284 285 286 285 284 285 285 287 287 287 286 287 287 287 290 289 288 288 288 289 289 289 288 284 284 285 285 285 285 284 284 283 282 283
274 277 276 276 276 276 276 273 274 275 275 273 274 276 275 277 275 276 279 284 285 285 286 287 287 286 285 286 285 286 288 288 287 285 288 289 287 286 285 284 285 286 288 286 284 283 283 283 282 282 282 282 281 281
274 275 279 280 279 276 274 274 275 275 272 272 276 273 275 273 274 279 283 281 283 282 283 283 283 283 283 283 285 286 286 286 285 285 287 286 285 286 284 282 282 284 285 285 284 284 282 282 282 282 282 281 281 281
277 278 274 277 276 278 275 275 274 274 277 278 277 273 274 276 277 280 278 277 277 280 281 281 281 280 280 281 282 282 282 282 283 284 284 284 284 283 282 283 282 280 283 284 283 283 283 282 281 280 280 280 280 280
278 278 278 274 274 275 276 277 278 280 281 279 278 278 278 278 273 273 274 274 276 276 275 274 275 276 278 278 279 279 279 278 276 276 277 279 283 278 278 278 279 280 280 281 280 281 281 279 279 278 278 278 279 278
277 280 277 274 273 275 281 281 282 281 280 282 281 280 278 272 271 273 273 272 271 271 271 272 272 272 271 272 273 275 276 275 274 273 272 273 273 274 275 274 275 275 276 278 279 279 278 277 277 277 275 274 274 273
277 278 277 277 276 281 280 275 276 276 278 280 280 281 280 270 270 270 270 271 271 270 270 269 270 272 271 271 271 271 271 272 271 271 271 272 272 272 271 271 272 272 274 275 275 275 274 274 273 272 271 269 268 268
277 276 276 274 277 277 275 276 276 276 278 277 278 274 272 272 267 268 268 269 268 267 266 267 267 269 271 271 271 271 269 269 269 268 267 268 268 268 268 269 269 270 271 272 272 271 270 270 269 269 268 266 265 265
272 273 272 272 273 275 274 273 273 273 274 273 272 271 269 268 263 266 269 269 268 267 266 267 268 269 271 270 269 269 269 269 268 267 266 265 264 264 265 266 267 268 268 269 269 268 267 266 266 265 264 263 262 262

GFSWCAN_sfc_thetae_015.txt.gz
Theta_e
306 307 307 306 306 306 307 307 308 308 309 309 309 308 307 307 308 319 321 323 320 312 311 312 311 310 310 310 306 309 306 307 306 292 293 296 291 296 294 296 293 291 289 286 290 285 283 301 299 293 299 304 302 299
305 305 306 305 305 305 306 306 307 307 308 308 309 309 308 307 308 311 320 322 322 317 314 318 316 317 315 314 312 311 307 307 308 303 298 299 292 290 294 291 299 292 296 294 294 294 302 303 301 304 305 303 300 296
303 304 304 305 305 305 305 305 306 306 307 307 308 310 308 307 308 312 322 322 322 316 314 313 311 316 319 318 320 310 312 310 310 314 306 297 289 299 288 294 299 299 303 297 297 299 300 301 304 304 304 302 300 298
303 303 303 304 304 304 304 304 305 305 306 307 307 309 309 307 308 311 321 320 319 311 293 310 312 313 315 318 318 318 314 314 314 311 296 291 293 304 296 300 299 301 301 298 298 301 300 303 302 302 302 301 298 300
302 302 302 303 303 304 304 304 304 304 305 306 306 305 308 308 309 319 322 320 320 316 302 308 310 310 312 314 315 315 314 312 310 300 292 294 305 304 302 299 297 301 299 297 294 301 299 300 301 302 300 299 298 296
302 302 302 302 302 303 303 303 304 304 304 304 305 307 308 308 309 321 314 321 320 320 308 297 310 307 309 312 313 312 313 313 311 305 296 305 308 304 290 292 299 303 304 304 301 304 301 300 300 302 299 297 296 296
301 302 302 302 302 302 303 303 303 303 304 304 305 306 308 307 319 314 310 313 310 322 306 298 302 305 305 309 309 311 311 308 307 304 302 302 304 303 293 292 299 302 302 301 302 301 295 298 297 298 296 296 296 295
301 301 301 301 302 302 302 303 303 303 304 304 305 305 305 305 306 313 316 310 313 314 310 295 295 298 304 301 299 305 301 304 304 304 298 298 302 300 291 298 301 301 299 298 298 299 300 300 298 296 296 294 292 291
301 301 300 300 301 301 302 302 303 303 304 304 304 304 308 308 306 313 304 308 317 312 301 291 290 289 303 296 297 297 300 293 301 291 294 298 294 291 297 299 298 299 298 297 298 298 297 294 293 292 291 291 290 290
300 300 300 300 300 301 302 302 303 303 303 304 305 301 291 297 303 305 309 305 303 302 303 291 301 293 300 293 291 292 293 293 288 291 293 286 288 296 296 297 298 299 299 297 294 292 290 289 289 290 290 291 290 289
301 301 300 301 301 302 302 302 302 303 303 299 292 290 298 302 301 294 290 293 294 288 293 296 297 294 300 292 290 293 289 289 286 289 289 288 288 294 296 296 297 297 297 294 293 291 291 290 290 290 290 290 290 289
301 301 300 301 301 302 302 301 302 302 300 298 298 299 297 293 288 289 287 286 286 288 289 287 290 296 292 297 289 287 286 288 285 293 286 284 292 295 295 294 294 294 292 291 290 290 290 290 291 291 290 289 289 289
300 301 300 301 300 302 302 300 300 301 301 298 290 286 287 285 284 285 283 285 285 287 287 287 285 288 288 290 286 288 285 286 291 284 284 290 294 294 294 294 293 292 291 289 289 290 291 291 291 289 289 289 288 288
299 300 300 300 301 301 301 300 299 299 298 289 286 284 285 284 286 287 288 288 289 289 288 287 286 287 287 287 287 285 286 288 282 280 284 292 293 294 294 294 292 291 288 287 288 289 289 290 289 289 287 287 286 286
298 300 300 300 300 299 299 298 298 301 295 288 288 283 284 286 287 286 287 289 289 291 291 290 290 292 287 285 287 284 281 280 283 285 290 293 293 293 291 291 290 289 288 288 289 290 288 288 288 288 290 290 289 287
299 300 301 300 299 298 298 298 297 296 293 289 287 285 286 286 285 285 286 286 291 291 291 291 287 285 284 286 282 282 282 281 286 290 293 291 290 290 290 290 290 290 289 288 289 289 289 288 287 289 289 288 286 286
299 300 300 299 297 295 297 295 294 289 289 287 285 288 287 288 286 286 289 289 292 289 286 288 283 283 284 283 282 286 284 288 291 292 291 291 289 289 289 289 289 289 288 289 289 289 290 290 289 288 286 289 289 288
299 301 299 298 299 297 294 296 293 290 285 288 287 286 287 288 287 287 289 290 289 287 287 285 286 282 282 281 283 288 289 291 292 290 289 289 290 291 291 290 290 290 289 289 290 289 289 288 288 289 289 290 289 289
299 299 298 298 299 294 289 291 293 286 286 288 286 287 287 286 287 287 288 288 289 290 289 287 284 283 284 286 287 290 291 291 289 289 290 291 290 290 289 289 289 289 288 288 289 290 290 290 291 291 291 290 289 289
297 297 295 295 297 293 288 288 292 288 286 287 287 287 286 286 286 285 287 288 289 289 286 285 285 287 289 290 291 291 291 291 290 288 289 290 291 290 289 289 289 290 289 290 290 287 290 291 291 291 292 290 288 287
292 293 293 295 293 292 289 289 287 288 287 287 287 289 284 285 284 284 285 288 286 286 285 288 291 292 292 292 291 292 291 290 289 288 288 288 290 290 289 290 290 290 290 290 291 290 289 291 291 292 289 287 287 288
290 292 287 291 288 287 287 289 289 289 288 286 286 288 283 282 282 283 285 284 284 288 290 290 290 291 290 290 290 291 291 290 290 289 287 287 288 289 290 290 290 291 291 291 291 291 291 292 293 292 288 285 287 288
290 289 286 286 284 284 281 289 284 284 282 282 285 282 282 282 283 285 281 284 287 290 291 291 290 291 290 290 290 290 290 289 289 289 289 290 291 291 291 291 292 290 289 290 292 292 291 289 290 286 286 287 286 286
290 285 283 282 283 279 284 282 285 283 283 282 281 279 280 283 282 281 280 284 288 290 288 288 289 288 289 288 288 288 289 290 290 290 291 290 289 289 291 291 292 293 292 291 291 289 289 286 286 286 286 285 285 284
283 280 282 278 282 280 279 279 279 281 278 279 278 279 280 282 279 279 279 285 288 288 288 289 288 288 287 288 288 289 290 290 289 288 291 291 291 290 290 290 291 291 293 288 285 285 285 285 285 285 284 284 283 283
277 279 280 280 279 279 279 277 278 278 279 278 278 280 281 280 277 278 281 285 286 285 284 285 286 286 286 287 286 287 287 289 288 286 288 290 290 288 287 285 285 287 292 289 286 284 284 285 284 283 283 283 283 282
277 278 281 283 283 281 279 280 281 280 277 277 279 278 278 275 276 281 284 282 283 282 284 284 283 283 283 283 284 284 283 283 282 282 284 285 286 286 284 283 284 285 285 285 285 284 283 283 282 283 282 283 283 283
281 281 277 280 281 283 278 279 278 278 280 282 282 277 276 277 279 280 279 279 280 281 282 282 282 280 280 280 280 280 280 279 280 282 284 285 287 281 280 281 283 281 283 284 283 283 283 283 282 281 281 281 281 281
281 282 281 276 278 280 280 280 281 283 285 283 281 280 282 279 277 277 276 277 279 279 277 277 277 278 279 279 280 279 278 276 274 272 273 275 276 277 277 277 278 279 279 279 281 281 281 279 279 279 278 279 279 278
279 283 280 277 276 278 283 285 285 284 286 286 286 283 279 275 274 275 275 275 274 274 274 275 275 275 274 274 274 275 276 275 273 271 270 270 272 274 275 274 274 274 275 277 277 279 280 279 279 279 277 276 275 275
281 281 279 280 279 283 283 282 282 282 282 284 285 283 278 273 272 272 272 273 273 273 273 272 273 273 272 272 271 271 271 274 272 271 271 271 271 272 272 271 272 272 273 274 275 276 275 276 276 275 273 271 271 270
280 278 278 276 280 281 282 281 282 281 282 281 281 279 275 275 271 270 271 272 272 270 269 270 269 270 271 273 272 272 271 271 271 270 270 268 269 269 269 269 270 270 271 271 273 273 272 272 272 271 271 269 267 267
277 277 277 277 278 278 280 278 279 277 278 278 276 275 273 273 268 270 272 272 270 269 269 269 270 271 271 271 272 271 271 271 271 270 269 267 267 267 266 267 266 266 268 270 271 271 270 269 268 267 266 265 264 263

GFSWCAN_sfc_thetae_018.txt.gz
Theta_e
307 307 307 306 306 306 307 308 309 309 310 311 309 308 308 308 308 317 322 326 322 313 312 315 314 312 311 311 306 309 306 308 308 291 293 297 291 297 296 297 291 289 288 286 289 286 283 301 299 292 300 303 303 301
306 306 306 305 306 306 306 307 308 308 309 310 312 309 308 308 308 310 320 323 327 319 314 319 317 318 314 315 313 313 307 308 308 301 299 300 289 290 293 292 299 293 297 295 294 293 302 305 301 304 305 303 300 300
303 304 305 305 305 305 306 306 306 307 308 309 311 311 309 308 309 311 322 323 324 319 314 313 311 317 319 319 322 311 315 312 311 314 303 296 286 298 287 294 298 299 302 299 298 299 300 303 304 304 303 301 301 300
303 303 304 305 305 305 304 305 305 306 307 308 308 312 310 308 309 310 321 322 321 310 291 310 315 314 317 319 319 320 317 318 316 310 294 290 289 304 297 299 299 301 301 299 298 301 302 303 303 303 301 301 300 300
302 302 302 303 304 305 304 304 304 305 306 306 305 305 308 310 309 319 323 322 321 316 298 309 312 312 314 315 316 316 316 314 310 298 290 292 305 305 303 300 298 301 298 296 295 302 301 301 302 302 300 298 300 296
302 302 302 302 302 303 304 304 304 304 303 304 305 306 309 309 307 321 313 321 320 322 307 295 311 308 311 313 314 313 314 313 312 304 296 304 309 305 290 291 300 301 303 304 300 304 303 301 301 301 300 300 297 295
301 301 302 302 302 302 303 303 303 303 303 303 303 306 307 308 318 312 308 311 309 320 305 296 302 305 307 311 310 311 312 309 308 307 303 302 305 304 290 290 299 301 303 303 303 302 298 299 297 299 298 297 296 295
301 301 301 301 301 302 302 303 303 303 304 304 305 305 305 304 306 312 314 311 311 315 311 295 295 300 306 303 299 305 302 305 304 303 300 298 303 297 290 299 301 302 303 300 300 301 300 300 300 297 297 294 291 291
300 300 301 301 301 301 302 302 303 303 304 304 304 304 310 312 311 314 304 308 320 313 302 290 290 289 304 297 296 298 301 292 302 292 293 298 292 289 296 298 300 301 299 299 300 300 300 297 294 292 291 291 289 289
300 300 300 301 301 302 302 302 302 303 304 304 306 301 291 297 304 305 311 308 306 308 305 291 301 294 300 294 291 292 293 292 288 292 294 288 289 298 300 300 302 301 301 300 295 294 292 290 290 290 290 290 290 289
301 300 300 301 301 302 302 302 303 303 303 299 293 289 298 302 303 297 294 296 296 291 296 296 299 294 301 291 290 294 288 289 286 290 290 288 287 294 299 298 299 301 300 298 297 294 292 290 290 290 291 290 289 289
301 301 301 301 301 302 301 302 302 302 300 298 297 299 297 293 289 290 287 288 288 291 291 288 291 297 294 301 292 289 287 287 284 292 286 285 292 297 297 297 297 297 294 292 292 291 291 290 291 291 290 289 288 287
300 300 301 301 301 301 301 301 300 300 301 296 290 287 289 285 284 284 283 284 285 286 287 287 286 289 290 292 286 286 284 285 290 285 283 289 294 295 296 296 294 293 289 290 290 290 291 291 290 288 287 288 286 287
300 301 301 301 300 301 300 299 299 301 298 289 286 284 285 284 285 285 286 286 287 287 287 287 286 286 286 285 285 284 286 287 283 281 283 292 293 294 295 295 293 290 285 287 289 289 288 288 288 286 285 285 283 285
298 301 301 300 299 299 299 298 299 301 297 289 288 284 284 286 286 286 285 287 287 289 288 286 286 288 285 284 286 285 282 281 283 284 287 292 293 294 291 292 290 289 285 286 290 288 285 285 286 287 287 288 288 285
300 300 300 299 299 299 298 299 298 297 295 290 287 285 287 286 285 285 285 285 290 288 289 290 285 285 284 285 283 283 282 281 286 290 293 291 290 290 290 290 290 290 289 288 288 288 287 286 285 288 288 287 285 285
298 300 299 297 297 297 298 296 293 289 290 287 285 289 288 287 285 286 288 288 292 288 285 287 284 282 285 283 282 286 284 287 291 292 292 290 289 289 290 289 287 288 289 288 289 288 288 288 287 286 286 288 288 287
298 301 299 298 300 297 295 296 292 290 286 289 287 286 287 288 287 287 289 291 290 288 289 285 287 283 282 281 283 288 290 292 292 291 290 290 291 290 291 291 291 290 289 288 287 288 288 286 287 287 288 289 288 288
298 300 298 298 299 295 290 291 293 286 287 288 286 288 287 287 288 288 288 289 290 289 288 287 284 283 285 287 289 290 291 291 289 289 290 290 290 289 289 289 288 288 288 288 288 288 289 289 289 289 290 290 289 289
295 295 296 296 296 293 288 289 294 289 286 287 288 287 286 285 286 286 287 287 289 288 285 284 285 289 290 291 291 292 292 292 291 289 289 290 292 290 289 290 289 289 289 289 289 287 289 290 291 291 290 290 289 288
294 293 294 295 294 294 291 289 288 289 288 287 287 288 283 285 285 285 286 289 286 286 285 289 292 293 293 292 293 293 291 291 289 290 288 287 290 291 290 290 290 290 290 290 290 289 288 289 290 291 288 286 286 286
290 292 288 289 288 288 288 291 289 290 288 286 286 288 283 282 282 283 286 284 285 287 290 291 292 292 292 291 292 292 292 290 291 290 287 288 288 289 289 291 291 290 290 289 289 288 289 290 291 290 288 286 286 286
290 289 287 285 284 285 282 290 285 286 282 282 285 282 281 282 283 285 281 285 287 291 292 291 291 292 291 292 290 291 291 290 289 290 290 290 291 291 291 291 290 288 288 289 290 289 289 288 288 286 286 285 285 285
289 285 284 283 284 280 285 282 286 284 285 283 282 280 281 282 283 281 281 285 288 290 288 288 289 289 290 289 288 289 289 290 289 290 290 289 288 289 290 289 290 289 289 290 289 288 287 286 286 285 285 284 284 284
283 281 283 279 283 281 280 280 281 281 279 281 280 280 280 282 280 280 280 285 284 283 285 288 289 288 287 288 288 288 288 287 286 285 287 288 287 287 287 288 288 289 289 287 286 286 286 285 285 285 285 284 283 282
279 280 281 281 281 280 280 278 279 280 280 279 279 281 282 281 278 278 281 283 281 281 282 282 284 285 285 285 283 283 282 283 282 280 282 282 281 280 280 281 282 283 284 284 284 284 284 284 284 284 283 283 283 282
278 278 282 284 283 282 281 282 283 281 278 277 280 278 278 275 276 281 281 280 280 280 282 282 281 280 280 281 281 281 281 280 279 278 280 282 282 279 278 276 276 278 281 281 282 282 282 282 282 282 282 282 282 282
281 282 277 281 282 283 279 280 279 278 280 283 282 277 277 278 278 278 278 279 279 280 281 281 280 279 279 278 279 279 278 278 278 279 280 282 282 279 277 277 277 277 277 278 278 279 280 280 279 279 280 280 280 280
280 283 282 277 280 281 281 280 281 283 285 284 281 280 281 277 276 277 276 277 279 278 277 276 276 278 278 278 279 278 276 274 271 269 269 270 271 272 274 275 274 274 275 275 276 277 278 279 278 278 278 278 278 278
279 283 280 279 277 279 283 285 284 284 286 286 286 282 278 274 274 276 276 276 274 274 275 275 275 274 273 273 273 274 276 274 272 269 267 267 268 271 272 271 270 272 272 273 273 274 277 277 277 278 276 275 273 274
281 281 280 281 280 282 282 282 283 282 283 283 284 282 276 272 273 273 273 274 275 274 273 272 272 273 271 271 270 269 269 272 272 271 270 270 270 269 269 269 269 270 270 270 271 272 273 273 274 274 272 270 270 269
281 279 279 277 280 282 282 281 281 281 283 280 281 279 277 275 272 271 272 273 272 270 269 270 269 269 271 272 273 273 271 271 271 271 270 269 268 268 268 267 268 268 267 267 269 271 271 270 271 269 269 267 266 265
279 279 279 278 278 278 281 279 279 278 279 278 278 277 273 273 269 270 273 273 271 270 269 269 270 271 272 271 270 272 270 270 270 271 270 269 267 267 266 267 267 266 264 264 266 269 268 267 266 265 264 263 262 261

GFSWCAN_sfc_thetae_021.txt.gz
Theta_e
307 307 306 306 306 306 307 308 309 309 310 310 308 308 307 307 308 315 313 317 314 302 305 311 311 306 306 304 293 300 296 295 289 288 285 285 282 285 286 291 286 282 280 277 282 280 276 298 297 287 291 298 298 296
306 306 306 305 306 306 307 307 308 308 309 311 309 308 308 308 308 310 312 317 319 310 307 312 311 312 311 311 306 303 298 302 299 291 287 288 286 288 286 281 294 285 288 284 286 284 294 298 296 298 300 298 295 295
306 306 305 305 305 306 306 306 307 308 308 309 310 309 308 308 308 310 314 315 316 303 305 306 306 311 314 313 314 301 301 307 304 305 293 293 283 289 281 284 286 294 298 288 290 295 297 298 300 300 299 297 298 299
304 304 305 305 305 305 305 305 306 307 307 308 309 307 307 308 308 310 313 315 311 303 289 301 311 308 313 314 314 313 310 310 307 299 291 289 284 297 286 289 287 293 296 293 289 295 297 299 300 299 298 299 299 300
302 302 303 304 304 305 304 304 305 305 306 304 304 304 307 308 308 315 315 314 314 307 292 293 308 309 311 311 311 311 310 306 299 291 288 287 288 291 286 287 286 298 293 288 285 296 296 296 298 300 299 298 298 297
302 302 302 302 303 304 305 304 304 304 303 303 304 306 307 307 307 314 307 313 310 314 298 290 304 304 307 309 309 308 307 305 303 294 288 294 303 293 286 285 295 300 301 299 296 300 299 298 299 300 298 298 297 293
301 301 302 302 302 302 304 304 303 303 302 303 305 306 307 305 310 305 303 306 306 310 294 290 292 300 302 305 302 305 305 301 301 295 291 288 292 297 287 285 296 299 300 300 301 299 295 297 295 299 298 295 295 291
301 301 301 301 302 302 302 303 304 304 303 303 305 306 305 303 305 307 307 307 307 306 298 290 290 290 302 290 291 298 291 297 300 294 292 289 292 288 287 295 298 300 300 299 298 298 297 297 298 295 294 290 288 287
300 301 301 301 301 302 302 302 303 304 304 304 305 306 308 306 300 305 304 305 311 305 291 287 285 284 298 293 291 291 295 287 294 288 289 292 287 288 293 295 297 297 296 296 298 298 298 297 297 290 289 288 286 285
300 300 300 301 301 301 302 302 303 304 304 304 306 302 293 296 303 305 306 297 294 293 294 288 291 289 295 288 287 288 287 287 286 287 292 286 287 293 296 297 298 297 299 299 295 294 293 288 288 287 287 287 286 286
300 300 300 301 300 301 302 302 303 303 304 299 293 289 297 302 301 294 290 290 291 287 292 291 290 289 293 287 287 288 286 286 284 283 286 285 285 290 295 295 297 298 298 296 292 292 290 289 287 287 286 285 284 283
301 301 301 301 300 301 301 302 302 300 298 297 296 298 296 292 288 289 287 287 287 287 288 287 289 293 289 296 287 287 286 285 283 289 285 282 285 293 294 294 295 291 291 291 291 290 290 290 289 286 285 284 284 283
300 300 301 301 300 300 300 300 300 300 299 296 291 287 289 285 284 284 283 284 285 285 287 286 286 286 288 290 286 285 284 283 286 284 280 282 292 293 294 290 287 288 286 287 288 289 289 288 287 284 283 284 280 283
300 300 300 300 301 299 299 299 300 300 295 288 286 283 284 283 284 283 284 285 285 285 285 286 285 285 285 285 285 283 284 284 282 277 275 286 291 292 292 289 287 285 282 283 284 284 283 283 283 281 281 280 277 281
300 300 300 299 299 299 299 299 299 298 291 286 286 282 283 284 285 285 285 285 286 287 286 285 285 286 284 283 284 282 280 279 281 280 284 287 289 288 287 286 284 283 280 283 285 283 280 280 281 283 283 283 283 280
299 300 298 299 299 299 299 298 296 295 286 287 285 283 285 285 285 285 285 285 288 286 286 286 284 284 282 283 281 281 280 279 282 284 286 286 286 286 286 286 285 285 284 284 284 284 284 280 279 283 283 282 280 281
298 296 298 297 298 298 299 295 292 287 283 285 283 286 286 285 284 285 286 286 290 286 284 285 281 279 282 280 280 283 281 283 285 285 285 286 286 286 285 285 283 285 285 285 285 284 284 284 281 281 282 285 284 284
297 298 298 298 299 297 294 294 285 284 282 285 284 284 285 285 285 286 286 287 287 285 283 282 284 280 279 278 279 284 283 284 284 284 284 286 286 286 288 285 287 285 285 285 283 284 284 280 282 283 284 285 284 283
297 297 298 298 297 292 287 286 288 282 284 282 284 284 284 284 285 285 286 286 286 286 285 282 280 279 279 281 283 283 284 283 283 284 285 286 286 286 286 286 285 284 284 284 284 283 283 285 284 284 283 283 283 283
296 296 296 296 296 288 285 283 288 283 283 283 284 284 283 283 284 285 285 285 285 284 279 279 279 281 281 283 284 284 284 284 283 282 283 284 285 285 285 284 283 284 284 285 284 280 281 282 283 283 282 280 277 279
294 293 294 294 290 290 284 285 285 282 283 284 284 283 281 283 283 283 284 285 284 278 278 281 280 283 286 284 284 283 284 285 283 281 281 281 283 282 283 283 284 282 281 280 278 281 279 281 285 283 283 284 286 285
290 293 287 289 285 285 282 283 284 282 283 283 283 284 280 280 280 281 283 279 278 280 283 281 283 283 284 285 285 285 285 285 285 283 281 280 280 280 281 281 280 278 279 280 282 283 283 284 283 281 284 285 286 285
290 288 285 285 283 282 279 283 282 283 278 281 282 280 279 280 281 281 279 280 279 284 284 285 286 286 285 285 285 284 285 284 281 282 283 282 282 281 282 282 280 280 281 282 281 282 282 283 282 279 282 284 284 284
289 285 284 282 283 279 282 281 280 278 278 280 279 277 277 280 277 275 272 275 280 282 283 283 283 281 282 284 282 281 282 282 281 281 282 281 280 281 281 281 281 281 282 282 282 282 283 283 280 281 284 283 284 280
279 279 281 278 282 279 275 278 279 275 270 273 271 271 275 274 269 269 271 279 280 280 281 281 282 282 280 279 280 279 280 279 277 276 278 278 275 276 277 278 278 278 278 277 278 278 278 280 282 283 282 282 281 278
276 278 279 279 276 275 276 273 277 275 272 273 272 275 273 270 268 268 277 278 278 278 279 278 276 278 278 278 277 276 276 278 276 273 275 276 277 274 272 271 271 272 274 275 274 274 274 276 277 279 281 281 280 280
276 277 279 282 281 281 279 280 280 278 274 272 273 271 269 266 266 275 278 278 278 279 281 280 279 278 277 277 277 277 276 274 272 274 275 277 276 274 272 270 269 271 273 273 272 272 272 273 275 275 276 278 279 278
279 280 276 279 279 280 276 275 274 272 273 277 274 267 266 267 272 275 276 277 278 279 279 278 276 276 276 276 276 272 268 268 269 269 270 275 272 269 269 269 271 271 269 270 270 271 272 272 273 275 275 276 277 275
279 281 277 271 273 275 274 273 274 278 280 276 271 270 273 274 273 275 275 276 276 275 272 273 270 269 269 269 271 272 266 263 263 260 258 259 263 263 267 268 267 266 267 268 269 270 271 272 274 273 274 274 274 270
278 281 274 272 269 272 279 280 281 282 279 280 278 275 273 272 272 273 273 270 269 269 271 271 270 264 262 261 262 263 268 265 260 260 258 258 263 265 266 265 265 265 266 266 265 266 269 271 272 274 271 269 270 267
279 280 279 277 278 279 280 281 281 281 281 281 281 276 270 267 267 268 268 271 270 264 264 263 262 262 260 261 263 262 260 260 262 265 262 260 263 259 260 263 263 264 265 263 262 263 264 268 270 269 267 266 265 264
279 277 277 274 277 279 281 279 279 279 274 278 276 275 271 270 263 264 263 266 263 261 261 260 260 262 260 264 261 260 268 263 261 261 262 263 261 262 262 261 263 263 263 258 261 262 264 266 266 265 264 262 261 260
275 273 273 269 268 270 276 269 269 268 268 267 271 270 265 263 260 263 267 267 262 260 259 259 259 259 265 261 258 262 259 258 260 267 266 266 264 261 259 261 263 263 260 259 260 263 263 263 261 261 260 259 258 257

GFSWCAN_sfc_thetae_027.txt.gz
Theta_e
306 306 305 303 304 305 307 307 307 307 308 307 306 306 306 307 309 311 309 311 307 298 302 306 305 301 300 297 291 296 294 292 285 282 279 280 276 283 283 286 284 283 281 280 279 273 277 292 292 287 290 291 295 294
305 305 305 304 305 306 306 307 307 306 306 306 306 306 306 307 309 310 308 313 311 304 303 307 307 307 306 303 300 296 296 294 293 285 282 284 279 286 281 280 289 282 285 282 284 284 290 293 293 294 295 295 295 294
305 305 304 305 305 305 306 306 306 306 305 302 303 304 307 308 310 311 309 308 304 297 301 303 302 308 310 309 308 296 295 300 297 295 291 285 279 284 282 283 284 290 292 285 287 290 292 293 295 296 297 295 295 296
304 304 304 305 305 305 305 305 305 304 302 303 304 306 306 308 309 310 308 306 302 295 288 297 307 305 310 310 310 306 304 301 297 293 287 286 280 289 282 286 285 289 292 289 286 291 293 296 297 296 295 296 297 298
304 304 304 304 304 304 305 304 303 303 304 304 306 306 306 308 309 310 307 305 306 299 290 290 302 305 305 309 308 307 304 300 294 289 286 286 284 287 286 283 285 293 291 285 285 293 293 293 296 296 295 295 297 295
303 303 303 304 304 304 303 301 302 303 304 305 306 304 305 307 309 305 300 307 307 304 294 287 297 299 302 305 305 304 304 300 296 291 287 289 295 288 286 287 293 296 297 295 293 295 295 294 295 297 296 298 295 289
302 303 303 303 303 303 302 301 302 303 304 305 305 304 305 305 305 301 296 302 304 302 291 289 288 296 298 300 296 298 298 297 297 292 288 288 288 293 286 285 293 296 297 297 298 296 293 294 294 298 298 292 290 288
301 301 302 303 303 303 302 301 302 303 304 306 306 304 304 305 305 303 304 303 303 297 292 286 284 287 297 290 290 294 290 294 293 292 291 290 288 287 286 292 295 297 297 296 296 296 296 296 297 293 289 288 286 285
300 300 301 301 302 303 302 302 302 303 305 307 305 305 304 302 301 303 302 302 303 299 288 285 283 283 293 291 289 288 292 286 292 287 288 288 286 286 291 292 294 295 294 295 295 295 295 294 289 288 288 287 285 284
300 300 300 301 301 302 302 303 303 304 305 303 302 297 289 297 302 302 299 293 291 293 290 285 289 285 293 287 286 286 287 285 286 285 291 286 287 290 291 293 294 295 295 296 292 291 287 287 287 287 287 287 286 285
300 300 300 301 301 302 302 303 303 304 303 298 291 290 297 301 297 292 289 287 290 289 291 289 288 288 291 287 286 284 285 285 283 281 286 283 283 286 288 287 290 291 292 291 291 290 290 289 287 287 285 285 285 284
300 300 300 300 300 301 302 301 301 299 298 297 295 297 293 290 287 287 285 286 287 286 287 287 288 292 289 290 287 286 283 284 280 286 285 281 283 285 285 286 288 290 290 290 290 289 289 289 288 286 286 285 284 283
300 300 300 300 300 300 300 300 300 300 300 297 293 289 290 286 286 286 284 284 285 285 286 286 286 286 288 289 286 285 284 283 285 284 282 284 285 287 288 288 289 290 289 289 290 290 289 288 286 284 283 283 280 282
299 299 299 299 299 299 299 300 300 299 296 289 286 284 285 282 282 283 284 284 285 285 285 285 285 285 285 285 285 283 284 284 282 278 275 284 288 289 287 286 284 283 282 283 284 284 284 282 282 280 279 279 277 280
299 299 298 298 299 299 299 298 299 297 291 285 285 280 281 283 284 284 285 285 285 287 286 285 285 286 284 283 283 282 280 278 278 275 282 284 285 285 284 285 284 283 281 283 284 282 280 279 279 281 281 281 281 276
299 297 295 298 299 299 298 295 292 292 286 285 284 282 283 283 284 285 285 285 287 285 286 285 284 282 281 282 277 275 276 273 276 283 285 285 284 285 286 287 285 284 284 284 284 284 283 279 278 282 282 280 278 276
297 294 298 298 298 298 297 290 285 284 282 284 283 285 284 284 284 285 285 285 288 286 283 283 277 278 281 279 279 282 279 282 284 285 285 286 286 285 285 285 284 284 285 284 284 284 283 283 278 279 280 284 283 282
294 294 298 298 297 293 290 287 282 282 282 284 282 283 284 285 285 285 285 285 282 285 283 278 281 276 274 274 278 283 285 286 285 284 285 285 285 285 285 285 285 284 284 284 281 283 283 278 281 282 283 283 282 281
294 294 296 297 295 286 283 284 285 281 282 283 283 283 283 283 284 284 285 285 281 280 280 277 274 275 277 279 278 281 282 280 281 283 283 284 284 284 284 284 284 283 283 283 283 282 282 283 282 281 282 281 280 280
295 295 295 296 294 283 282 281 284 281 280 283 283 282 282 282 283 284 285 285 283 277 276 274 275 277 278 279 279 278 279 279 279 277 278 280 281 282 281 281 281 281 281 281 281 278 281 281 282 282 281 280 280 281
290 291 293 291 284 283 281 283 284 283 283 282 283 282 280 282 282 282 283 283 276 273 276 278 274 278 281 280 279 279 281 282 280 277 277 278 279 280 280 279 279 279 277 276 278 279 279 278 278 279 279 279 281 282
289 292 287 288 284 280 279 282 283 281 283 282 281 282 279 278 279 280 282 281 277 277 279 282 283 283 284 282 280 281 281 281 280 279 278 278 277 276 276 277 276 274 276 276 276 276 275 275 275 275 276 277 278 279
290 289 285 284 277 277 276 284 281 282 278 279 281 278 278 278 280 281 278 281 280 282 280 281 282 283 281 280 280 279 279 278 276 276 276 276 276 273 273 276 273 270 269 271 273 271 270 269 270 270 272 272 274 276
289 284 280 278 277 271 274 279 278 276 279 278 277 275 276 278 279 276 270 278 281 281 279 279 280 279 279 278 276 275 276 277 276 274 275 274 273 273 273 273 271 269 269 269 269 267 267 266 266 268 268 268 269 270
280 274 278 270 276 268 266 266 271 271 268 276 276 275 275 274 270 272 267 276 278 277 277 278 278 279 277 275 276 275 275 275 274 273 273 271 267 267 269 270 269 269 267 263 262 264 264 264 264 265 265 266 266 268
270 272 272 267 269 270 268 265 268 270 270 272 275 276 271 271 272 267 275 276 276 277 275 276 276 276 275 276 274 272 271 272 272 270 271 270 267 263 260 261 262 263 266 260 261 261 261 262 262 262 263 264 265 266
266 265 273 279 278 278 274 271 277 276 274 274 272 271 272 270 269 273 275 275 276 276 277 278 277 276 275 272 271 269 268 268 266 270 270 269 268 267 262 257 260 263 265 262 258 259 260 260 260 260 261 263 265 267
273 275 274 274 278 279 276 275 275 275 275 278 276 273 272 270 270 272 274 276 275 276 274 273 272 273 271 270 267 265 265 264 265 266 266 265 263 259 259 257 258 264 259 257 256 259 259 260 260 261 262 264 263 264
276 279 278 274 276 274 275 275 274 278 280 277 270 270 270 270 269 270 271 272 273 271 268 267 266 267 266 265 263 261 258 258 258 254 252 251 252 257 260 254 254 255 255 255 259 263 263 263 263 263 265 266 263 260
276 278 274 270 271 274 276 278 277 279 279 274 273 271 269 267 268 269 269 269 267 265 264 262 258 260 253 254 253 257 259 254 254 254 252 252 256 259 252 253 254 254 253 252 255 258 259 256 257 256 257 258 259 259
277 278 276 276 271 276 277 279 280 279 279 277 274 269 266 264 264 266 265 262 263 259 258 255 256 251 255 253 252 251 254 253 252 254 254 254 253 252 252 254 253 251 252 252 252 251 251 252 251 251 251 252 253 254
277 275 274 273 274 275 269 270 269 264 274 274 270 267 261 258 255 260 262 258 256 256 252 250 252 255 255 254 252 251 255 252 251 251 252 254 253 252 251 252 250 248 247 248 248 248 249 248 248 248 248 248 250 250
267 263 264 258 263 265 266 260 259 261 268 269 264 260 258 260 257 260 262 257 257 254 253 252 251 251 252 253 253 252 252 251 251 256 257 257 255 254 250 248 246 246 246 246 246 246 248 248 246 247 247 247 248 249

GFSWCAN_sfc_thetae_030.txt.gz
Theta_e
306 305 304 303 304 305 306 307 307 307 306 306 306 306 307 309 310 315 311 309 304 298 300 304 304 299 298 296 291 295 293 292 285 283 280 279 276 282 283 285 284 283 282 281 277 270 276 290 292 286 290 289 293 293
304 303 303 303 305 305 306 306 306 307 304 304 304 306 307 309 309 312 311 310 308 303 302 305 305 305 304 301 298 294 295 293 292 285 279 281 281 284 281 279 287 282 284 281 283 283 290 291 292 293 293 292 293 293
303 303 304 305 305 305 305 305 305 304 303 305 306 306 308 309 309 311 309 304 303 297 300 302 301 307 308 307 306 296 292 298 294 292 285 284 279 282 279 282 283 288 290 283 285 289 290 291 292 296 294 294 295 295
304 304 305 305 305 305 305 303 302 303 304 305 306 306 307 308 308 309 306 304 299 295 288 295 305 303 307 309 308 304 301 297 295 291 286 283 280 287 280 284 283 288 290 287 286 290 290 294 295 294 295 295 295 296
304 304 304 304 304 304 302 302 302 303 304 305 305 308 308 308 308 309 305 304 303 298 290 290 300 302 305 307 305 304 301 298 293 288 286 284 281 284 285 282 284 290 289 285 284 291 291 292 294 296 295 295 296 295
304 303 304 304 303 302 302 302 303 303 303 303 303 305 306 304 307 302 299 305 305 301 294 288 296 297 300 302 302 301 301 297 295 291 287 288 292 288 286 286 292 293 294 293 291 293 293 293 294 294 294 295 294 289
303 303 303 303 302 302 302 302 303 304 304 304 304 305 305 306 306 298 294 301 302 300 291 288 288 294 296 298 295 296 297 295 295 292 287 287 289 291 285 283 292 294 296 295 296 295 292 292 293 296 296 290 289 288
302 302 302 302 302 302 302 302 303 304 305 304 304 304 305 305 304 302 302 302 302 296 291 285 284 287 296 290 290 294 290 293 293 292 290 288 289 287 286 290 293 295 296 295 295 294 294 294 294 288 288 288 286 286
301 302 302 302 302 302 302 302 303 304 304 304 304 304 305 302 300 301 302 302 301 298 287 283 283 283 293 291 289 290 292 288 292 287 288 288 286 286 288 288 290 292 292 293 294 294 291 288 286 287 288 287 285 284
300 300 301 301 302 302 302 302 303 304 303 303 302 298 291 297 302 302 298 292 290 290 292 286 287 286 293 287 286 286 287 286 286 286 291 286 286 288 285 285 287 290 293 294 290 285 285 286 287 288 287 288 286 285
300 301 301 301 302 302 302 303 302 304 303 298 293 291 297 300 297 290 286 286 289 285 289 288 288 288 291 287 286 284 286 285 283 281 286 283 283 285 285 287 289 289 290 289 289 289 289 289 287 285 285 286 286 285
300 300 300 301 301 301 301 302 302 298 295 297 295 296 292 290 288 286 284 286 286 284 286 287 288 291 288 288 287 286 283 284 279 285 284 280 282 284 287 288 289 290 290 289 289 288 288 287 288 287 287 285 284 283
299 299 300 299 300 301 301 301 300 300 299 295 291 286 288 285 285 286 284 285 285 285 286 286 286 286 288 289 286 285 284 282 285 283 282 283 285 288 289 289 289 290 289 289 289 289 288 288 286 284 282 283 281 282
298 299 299 299 299 299 300 300 300 299 296 289 287 286 285 283 283 283 284 285 284 285 285 285 285 285 285 285 285 284 284 284 281 278 275 284 286 288 284 284 284 283 281 283 283 284 283 282 282 280 279 279 277 280
298 298 298 298 299 299 298 299 299 297 291 285 285 280 280 282 284 284 285 285 285 286 285 285 285 286 284 283 283 282 279 275 275 274 281 284 285 284 284 286 284 282 279 281 282 282 277 278 279 280 281 280 281 276
298 297 296 298 298 298 297 296 294 292 287 285 284 282 283 284 283 285 285 285 287 286 286 286 284 280 279 281 278 277 275 271 275 282 285 285 285 284 285 287 285 284 283 283 283 283 282 278 277 282 281 279 276 275
297 294 297 298 298 296 296 289 286 285 284 284 283 285 284 284 284 285 285 285 288 285 283 281 277 276 279 276 276 279 274 280 284 283 284 285 284 285 286 285 283 284 284 283 283 283 283 282 277 279 280 283 282 281
292 292 297 298 295 292 288 286 282 284 282 283 282 283 284 284 285 285 285 285 284 284 281 278 282 275 273 272 274 281 282 282 282 283 284 285 285 284 284 284 284 283 283 282 281 282 281 279 280 280 281 281 280 279
293 293 296 296 293 285 283 284 284 281 282 283 283 283 283 283 283 284 285 285 280 279 279 276 272 273 274 276 274 283 283 278 282 283 282 282 282 283 282 282 282 281 281 281 280 280 280 281 279 279 278 278 277 279
294 294 294 294 292 283 282 280 283 282 281 283 283 282 282 282 283 284 284 284 279 277 276 274 274 276 276 278 279 279 279 279 280 277 277 279 280 280 279 279 278 279 278 278 279 276 277 276 277 276 276 276 276 276
290 290 291 288 283 284 282 282 283 283 283 282 282 282 280 282 282 282 282 283 275 273 276 277 275 278 281 280 280 279 281 281 279 277 277 278 278 278 277 277 277 276 275 274 273 272 271 271 273 272 270 271 272 272
288 291 283 284 280 279 280 283 283 282 282 282 281 282 279 278 279 280 282 277 277 277 279 282 283 284 282 280 280 280 280 279 279 278 276 275 274 274 275 273 272 270 270 269 270 268 268 270 269 268 267 267 269 270
289 286 285 280 276 275 278 284 278 282 278 279 280 277 277 278 279 281 278 280 280 281 282 282 281 281 279 279 278 278 278 277 275 275 275 274 274 273 274 271 269 265 265 267 268 268 266 264 265 264 265 265 266 265
286 283 280 279 272 270 274 275 276 274 279 278 276 275 276 277 278 275 272 278 280 281 281 281 280 278 278 277 274 274 275 276 274 273 273 273 271 271 271 270 268 266 266 265 264 262 262 260 260 262 262 261 262 263
272 273 275 273 277 267 263 264 270 270 266 273 275 274 275 274 271 272 269 275 277 276 277 279 279 279 276 275 274 273 273 274 273 271 270 269 266 266 267 267 267 266 265 260 259 258 258 259 257 258 259 259 260 261
269 274 271 264 265 273 264 264 263 265 266 268 270 273 270 270 271 269 273 274 275 275 274 275 275 275 274 275 272 271 270 270 272 269 268 268 266 261 258 257 258 260 263 256 254 256 257 257 258 257 257 259 260 261
267 266 272 278 278 277 269 269 273 269 268 273 272 271 274 272 270 272 275 275 275 275 275 275 277 275 272 270 269 268 267 267 268 269 268 268 266 265 259 255 256 260 263 259 253 250 253 256 257 257 258 259 260 261
273 270 270 271 273 277 275 275 275 273 275 277 275 273 272 269 268 271 272 274 273 273 272 271 271 270 268 267 266 266 264 266 265 264 263 263 262 259 257 256 256 262 255 252 251 253 253 255 258 259 259 260 257 257
273 274 273 270 275 276 276 275 275 278 279 277 273 271 268 269 268 269 271 271 272 270 268 267 265 266 265 264 262 260 258 256 256 254 252 250 251 255 257 252 251 252 250 251 255 260 260 260 260 259 255 256 257 256
270 273 270 268 269 273 271 276 273 275 276 274 273 270 268 266 267 269 269 268 266 263 261 259 258 260 253 253 253 255 253 250 252 253 251 250 253 256 251 249 250 251 249 246 249 251 254 250 252 249 250 250 249 247
273 275 274 275 272 273 275 278 278 279 276 269 269 267 266 263 263 265 263 261 261 258 256 253 253 248 251 251 250 250 252 251 249 252 252 250 253 250 249 250 248 246 245 245 244 244 245 245 244 244 245 247 247 247
275 273 272 271 270 269 265 269 267 269 271 273 268 265 260 259 255 260 259 258 256 254 252 247 251 253 252 251 249 249 253 251 250 251 250 251 251 251 250 249 245 244 245 245 244 244 244 244 244 244 243 245 244 245
267 262 264 260 264 264 263 258 256 261 266 264 258 257 257 257 257 259 260 256 256 254 252 251 250 248 250 251 251 250 250 249 250 255 256 255 252 253 249 246 244 244 245 244 244 242 244 245 244 244 244 243 244 245

GFSWCAN_sfc_thetae_033.txt.gz
Theta_e
305 304 304 304 304 304 305 306 306 305 306 306 306 306 307 308 309 314 309 311 307 299 303 306 305 299 299 299 295 298 297 296 291 288 288 286 286 287 287 288 287 287 285 283 279 280 282 292 295 291 296 295 296 297
303 303 303 304 305 305 306 305 305 304 304 305 305 306 307 308 309 312 309 312 309 305 303 307 307 308 308 304 300 297 299 296 296 290 286 285 285 285 285 286 290 286 290 287 287 288 294 294 297 297 296 296 298 297
303 303 304 305 305 305 305 303 303 303 304 305 306 307 308 309 309 312 311 308 305 300 302 304 303 308 308 307 308 299 295 300 296 295 290 287 286 287 285 286 288 291 292 289 289 293 292 294 296 296 298 298 300 300
304 304 305 304 304 303 302 303 304 304 305 305 306 307 308 308 309 310 308 306 302 298 290 299 305 303 307 310 310 306 301 298 296 294 288 287 288 289 286 289 289 292 291 290 290 293 293 295 296 299 298 299 299 299
304 304 304 303 302 302 302 303 304 303 304 307 306 306 307 308 309 309 307 305 304 301 291 294 301 303 305 307 304 304 302 300 296 291 287 289 287 289 288 288 287 292 292 290 289 294 295 296 298 300 298 298 299 298
303 303 302 301 302 302 302 302 303 303 303 304 306 307 307 307 306 305 302 305 304 302 297 290 297 297 300 303 302 301 302 299 297 295 288 291 294 291 287 287 293 295 296 295 295 297 297 298 298 299 299 298 295 292
303 302 302 302 302 302 302 303 303 303 304 305 305 306 307 306 306 298 296 302 302 300 293 289 289 295 297 299 297 297 299 297 298 293 289 290 292 293 287 288 292 295 297 297 299 298 297 297 297 297 292 290 289 288
302 302 301 301 302 302 302 303 304 304 304 304 304 304 304 304 304 303 303 302 302 296 293 287 286 290 296 292 290 295 293 296 295 293 291 289 291 289 287 288 289 292 293 296 296 298 296 292 289 288 289 289 288 287
301 301 301 301 301 301 302 303 304 303 303 303 304 304 304 302 299 301 302 302 301 298 288 284 286 286 296 291 290 291 293 289 293 288 290 292 287 284 283 284 286 287 289 291 290 288 288 288 288 288 288 287 285 284
301 301 301 301 301 301 302 302 302 303 303 303 302 298 292 298 301 301 298 294 292 291 293 286 289 287 294 289 287 288 288 287 288 288 292 287 285 284 287 288 289 289 289 292 291 286 287 286 286 286 286 286 286 286
301 301 301 301 302 301 301 301 301 303 304 299 295 292 299 300 298 291 288 288 288 286 290 288 289 288 292 288 286 287 286 286 285 286 287 284 283 283 287 289 290 290 290 290 289 288 288 287 287 286 286 286 288 288
300 300 301 301 301 301 301 301 302 299 297 298 298 298 296 293 289 288 285 287 285 285 287 287 288 291 289 290 288 287 284 285 281 287 285 281 281 286 288 289 290 290 290 290 290 289 289 289 289 289 289 288 287 285
299 299 299 300 300 301 301 300 300 300 299 297 293 289 291 286 285 280 283 284 285 286 287 286 286 287 289 290 286 287 285 284 287 284 282 282 284 288 288 289 289 289 289 289 289 289 289 289 288 286 284 285 283 284
298 298 299 299 299 300 300 299 299 298 295 287 285 282 281 284 284 284 285 285 285 285 286 286 285 286 286 286 285 285 284 285 282 280 278 283 286 284 285 285 285 283 281 284 284 284 283 283 283 282 281 281 281 283
298 298 298 298 299 298 298 298 298 296 291 286 285 280 280 283 284 284 285 285 285 286 286 286 286 287 285 284 283 283 280 277 278 277 282 284 284 284 286 286 284 284 281 283 285 283 280 280 281 282 283 283 282 279
298 297 295 297 298 297 297 296 294 293 288 286 284 282 284 284 284 285 285 285 287 286 286 286 284 283 281 282 279 278 278 275 279 284 285 285 284 286 287 288 286 286 285 284 284 284 283 281 280 282 282 282 280 280
296 292 295 297 297 295 295 291 289 286 285 284 283 285 285 285 284 285 285 285 288 286 284 282 279 278 281 278 278 281 278 281 285 285 286 287 286 286 287 287 284 284 284 284 284 283 282 282 281 280 279 280 280 280
290 291 296 296 294 292 289 287 285 284 282 283 282 283 284 285 285 285 285 285 286 285 283 282 284 279 277 275 277 281 283 284 286 286 286 286 286 286 285 284 284 284 283 281 280 280 280 279 278 277 277 277 278 278
291 292 294 294 292 286 285 284 284 281 282 283 283 283 283 283 284 285 285 285 283 282 282 279 276 277 278 279 280 284 284 283 284 283 282 283 283 283 282 282 281 280 280 279 278 278 278 277 276 276 275 274 274 276
293 294 293 292 292 284 282 280 285 284 281 282 283 282 282 282 283 284 285 284 281 280 279 277 278 279 279 280 281 284 284 283 282 280 279 280 280 279 279 279 278 278 277 277 275 273 274 274 274 273 272 271 270 270
289 289 290 287 283 284 281 282 283 283 283 282 282 282 280 282 281 282 282 283 277 277 278 280 280 280 281 281 281 282 281 283 280 281 279 277 278 277 276 276 276 274 272 271 271 270 270 270 270 270 268 268 268 269
287 290 282 283 280 279 281 284 283 283 282 282 281 282 279 279 279 280 282 278 277 279 281 282 283 283 281 280 279 280 279 279 279 278 277 277 275 275 272 272 271 270 269 268 269 268 268 268 267 267 266 266 266 267
287 284 280 279 277 276 278 284 276 282 279 279 280 277 278 278 280 281 279 280 280 282 282 282 281 281 279 279 278 278 278 277 275 275 274 274 274 273 271 270 268 267 266 267 267 266 265 263 264 263 264 264 264 264
285 279 275 276 274 275 273 275 278 275 280 278 276 273 276 277 278 276 275 278 280 281 281 280 280 277 277 276 274 274 276 275 273 272 273 273 271 270 271 269 268 266 266 265 264 262 262 261 259 262 261 261 261 262
273 275 272 274 276 268 269 269 270 276 266 271 270 269 271 273 271 272 271 276 276 275 277 279 280 279 275 273 273 273 273 275 273 270 270 270 268 268 267 267 266 266 265 263 261 260 259 260 260 260 260 260 260 261
271 274 270 271 273 269 268 264 269 266 266 268 271 273 271 273 271 270 272 273 275 275 275 276 275 273 273 274 272 271 270 271 272 269 268 268 266 265 263 262 262 263 264 261 259 259 259 259 259 258 259 260 259 260
269 270 274 279 279 277 269 271 274 271 267 268 272 272 273 271 268 271 274 273 274 273 273 273 276 274 271 269 269 269 269 269 270 269 268 267 266 265 263 261 260 262 263 261 259 257 257 257 257 258 259 261 261 261
276 271 269 269 269 274 270 267 269 271 272 277 275 270 271 269 269 270 271 273 272 272 270 270 270 269 268 267 266 267 266 266 265 265 265 265 264 263 261 261 260 261 258 257 257 257 257 257 258 259 260 259 259 260
270 271 270 265 267 269 268 268 269 275 277 277 273 270 267 268 267 267 270 271 271 270 268 267 266 266 265 263 261 260 261 262 262 258 257 258 258 261 261 259 258 258 257 256 256 259 261 261 261 259 257 256 256 256
271 273 269 266 266 271 272 273 272 273 274 273 272 270 268 266 266 268 268 267 265 263 261 261 260 262 258 259 258 259 258 257 259 259 258 257 258 260 259 257 257 257 255 254 254 255 256 255 256 255 254 254 254 254
272 275 274 274 271 270 270 269 278 279 273 269 268 266 265 264 264 264 263 262 261 260 260 258 257 253 257 256 257 257 258 258 253 256 256 256 256 257 258 257 256 254 253 253 253 253 253 253 253 252 253 252 251 251
273 271 271 266 266 265 265 269 264 268 271 270 262 262 259 260 257 262 261 260 259 258 253 252 256 258 255 255 253 254 253 256 256 256 255 256 257 257 257 257 253 252 253 253 253 252 251 252 252 252 251 251 251 250
265 260 265 263 264 263 259 258 256 259 263 261 259 257 258 259 257 260 261 258 261 258 255 256 256 254 254 254 255 256 253 255 253 255 256 257 255 256 256 255 253 253 253 253 253 251 252 252 252 251 251 250 250 249

GFSWCAN_sfc_thetae_036.txt.gz
Theta_e
302 302 302 304 304 305 305 304 304 304 305 306 306 306 306 308 309 320 317 319 319 311 310 311 309 308 307 310 306 304 304 303 303 300 300 297 296 295 293 294 293 293 292 290 289 288 286 297 299 294 300 303 302 303
304 304 303 303 303 303 304 305 305 305 305 305 306 306 307 308 309 314 317 318 320 314 310 314 312 313 312 310 310 307 308 305 307 303 300 297 292 290 294 293 296 292 297 296 295 296 299 301 303 304 304 303 304 304
303 303 304 304 304 304 304 304 304 304 304 305 305 306 307 309 309 314 318 317 318 313 311 313 310 313 316 315 316 308 308 308 306 307 304 301 291 299 290 295 295 297 297 296 294 298 299 301 303 304 304 303 304 305
304 304 304 303 303 303 303 303 303 304 304 304 306 306 307 308 309 313 317 314 317 311 296 307 312 310 313 316 315 313 310 308 306 308 303 295 296 298 297 297 298 298 298 296 296 299 300 301 301 303 304 306 305 306
303 302 302 302 302 303 303 303 304 304 305 306 306 306 308 308 309 314 313 312 313 311 298 306 309 309 311 312 310 311 310 309 308 304 296 300 299 299 297 297 297 298 297 297 296 298 299 300 304 305 303 304 305 304
302 302 301 302 302 303 302 303 304 305 305 306 307 307 307 307 307 318 311 311 310 314 310 298 306 305 308 310 309 308 309 309 309 305 296 300 298 301 292 296 297 299 301 301 299 303 303 304 304 304 302 300 300 299
302 302 302 302 303 303 303 303 305 305 305 305 306 306 306 307 314 309 306 307 304 310 306 296 300 303 304 307 304 307 308 306 307 300 294 297 298 302 293 296 294 296 298 300 302 303 301 299 296 296 296 295 294 293
301 301 302 302 302 303 303 303 304 304 305 305 305 305 305 305 308 311 309 304 305 307 308 296 295 302 304 299 297 301 301 306 300 296 296 295 296 297 292 290 292 295 297 299 296 300 297 296 295 294 293 291 287 287
301 301 301 301 302 302 302 302 303 303 303 304 304 304 312 309 311 310 302 303 310 309 300 291 295 292 300 295 295 298 302 293 298 293 294 298 291 287 285 287 290 291 291 293 294 295 294 292 290 289 288 288 286 287
301 301 301 301 301 302 302 302 303 303 303 304 310 307 301 305 302 304 307 306 304 302 298 289 295 290 298 295 292 294 294 292 290 292 295 290 283 287 288 289 290 291 294 293 291 288 288 287 288 288 289 289 290 291
301 301 301 301 302 302 303 303 302 304 307 309 304 299 307 302 308 302 296 296 297 292 294 292 296 293 297 292 290 293 290 291 288 291 292 288 283 284 289 290 292 292 293 293 293 292 292 291 290 289 289 291 291 291
301 301 301 301 301 301 302 302 303 305 304 304 305 304 304 300 299 290 288 290 292 289 291 291 292 294 293 298 292 291 287 288 284 292 288 284 284 288 289 289 291 291 291 291 293 292 292 292 292 291 290 289 288 288
299 299 300 300 300 300 301 301 300 300 300 306 301 294 298 292 288 289 285 287 287 288 289 289 288 293 293 296 289 290 286 286 292 286 285 285 287 287 289 290 290 291 291 291 290 291 290 289 288 288 287 287 287 288
298 298 298 299 299 299 299 299 300 301 301 292 290 287 288 287 287 287 288 288 286 287 288 291 289 290 290 289 287 287 286 288 284 282 282 285 287 288 289 290 290 287 285 287 288 288 286 286 286 286 285 285 285 285
297 297 297 297 298 298 298 298 299 300 295 289 291 284 284 285 286 285 286 287 287 288 289 289 289 292 287 286 286 286 284 283 284 284 285 287 287 289 288 287 288 287 286 288 288 286 285 285 286 286 286 285 284 283
298 297 295 297 297 297 297 297 297 296 291 288 287 284 286 285 284 285 285 285 288 288 288 289 287 287 284 286 284 284 284 282 283 285 286 285 288 288 287 289 289 288 288 288 288 287 285 284 284 284 284 282 281 281
296 294 295 297 296 296 296 296 292 287 287 286 285 287 286 286 285 285 286 286 288 287 285 288 285 283 286 284 282 286 284 286 287 286 287 289 289 288 287 288 287 287 287 287 286 284 283 282 282 281 279 280 280 280
293 295 295 296 296 295 293 292 290 288 283 285 285 284 285 285 286 286 287 288 291 289 289 286 288 284 284 282 283 285 285 287 288 287 288 290 290 288 290 288 288 287 284 282 282 282 281 280 280 279 278 278 278 279
293 294 294 294 295 294 289 288 290 284 284 286 286 286 286 286 287 287 287 287 288 290 290 288 285 284 285 287 285 285 287 287 285 284 284 286 287 287 287 285 285 283 282 280 280 280 280 278 277 277 277 276 275 276
293 294 293 292 295 291 286 287 292 286 283 284 285 283 284 285 286 286 286 289 288 289 286 284 283 284 285 285 286 288 290 291 288 283 282 284 285 284 284 283 282 281 280 279 277 276 277 277 276 275 274 273 273 273
294 293 292 294 292 290 287 286 285 286 285 283 284 284 283 285 284 285 285 288 287 281 282 283 282 282 284 285 287 289 288 289 287 287 284 282 282 281 280 280 279 278 278 277 276 275 274 274 273 273 272 272 272 273
291 291 291 291 288 287 287 287 286 287 285 284 284 284 282 282 282 282 284 285 282 282 283 284 284 284 282 281 282 284 284 284 283 282 281 281 279 278 277 277 277 276 274 273 273 272 272 271 270 270 271 270 271 272
290 290 288 287 284 284 281 287 284 284 281 282 284 281 281 282 283 285 282 282 282 283 284 282 282 283 281 281 281 280 282 281 280 279 279 279 277 277 275 274 273 273 272 271 272 271 270 267 269 268 269 269 270 270
288 282 281 280 281 278 281 280 283 282 283 281 280 278 280 281 283 281 278 280 281 283 283 281 281 279 279 278 277 278 278 279 277 277 278 277 275 274 274 273 271 270 270 270 270 269 268 268 266 268 267 267 267 267
280 277 279 276 279 278 276 276 278 280 277 278 277 278 278 281 277 275 275 277 278 278 280 282 281 280 277 276 276 276 277 278 276 273 274 275 274 273 271 271 270 269 269 269 267 267 267 266 266 266 266 266 265 265
274 277 277 276 277 277 276 276 275 276 276 276 277 278 280 279 274 272 274 276 277 276 276 278 278 276 274 275 274 273 273 275 275 272 271 272 271 271 270 269 269 269 268 267 266 265 265 265 264 263 264 265 264 265
274 275 279 281 280 280 279 278 279 278 276 276 278 278 278 273 271 273 276 275 276 275 275 275 276 275 273 272 272 272 273 273 273 271 271 270 270 269 269 267 265 266 267 266 265 264 263 263 263 263 264 265 266 265
278 279 275 277 279 280 277 277 277 276 278 280 280 274 273 273 271 273 274 275 275 274 273 272 272 272 271 270 271 271 270 270 269 270 270 269 269 268 267 268 267 264 264 264 263 263 263 263 263 264 264 263 263 264
278 280 279 273 276 278 277 277 277 279 279 280 277 274 270 270 271 272 272 273 275 275 272 271 270 270 269 268 268 269 270 270 268 265 264 267 267 267 267 266 266 266 265 264 263 263 263 264 264 263 262 262 262 262
277 280 278 274 274 275 278 279 280 280 278 276 275 272 270 269 269 271 272 272 270 269 268 268 268 270 268 269 267 267 267 266 266 265 265 264 265 266 265 265 265 265 264 263 262 262 262 262 262 262 261 261 261 260
280 281 278 277 276 278 277 276 280 279 277 274 273 271 269 268 269 269 268 268 268 269 269 268 266 267 267 266 267 266 265 266 262 263 263 264 264 265 265 264 265 264 263 262 261 261 260 260 261 260 260 259 258 257
277 274 274 273 275 275 275 275 275 276 276 273 269 269 267 268 265 267 266 268 268 267 261 265 267 266 265 266 264 265 259 264 264 263 263 263 264 265 264 264 263 262 262 261 261 260 259 259 259 259 258 258 257 256
274 274 273 273 274 274 271 271 269 270 271 269 267 267 266 267 263 266 267 266 266 266 265 265 266 266 264 262 264 265 261 264 261 261 259 260 259 260 261 263 263 262 260 260 260 260 258 258 258 258 257 256 256 255

GFSWCAN_sfc_thetae_039.txt.gz
Theta_e
300 301 301 301 302 302 302 302 302 304 305 305 305 305 305 306 307 310 321 326 320 314 313 315 312 309 312 311 307 309 307 307 307 301 303 302 299 299 298 299 296 295 295 292 295 289 287 301 301 295 303 304 305 305
301 301 301 302 302 301 302 304 305 305 304 304 305 305 305 306 308 310 319 324 326 317 314 319 317 318 316 316 314 311 310 309 310 306 306 306 296 294 300 294 301 295 300 299 298 298 302 303 302 305 306 304 305 305
302 302 301 301 301 302 304 304 304 304 304 304 304 305 306 307 309 312 322 325 322 316 313 314 313 317 319 320 322 312 315 314 312 316 310 308 295 305 293 299 300 301 302 299 297 300 300 302 304 305 306 306 307 307
302 302 303 303 303 303 303 303 304 304 304 305 305 305 306 307 308 311 321 325 322 316 301 309 317 313 317 320 319 319 317 316 315 315 311 298 298 305 303 302 301 302 301 298 299 301 302 303 305 306 306 307 307 308
302 302 302 302 303 303 303 303 303 303 304 305 306 306 307 308 310 317 322 320 322 316 303 307 313 314 316 316 315 316 315 313 311 308 299 304 306 304 304 303 301 302 300 299 299 301 302 303 306 306 305 304 305 305
302 302 302 302 303 303 303 303 303 303 303 304 306 306 307 308 310 317 315 316 318 322 312 302 312 310 314 315 314 314 315 314 315 308 305 306 304 307 296 299 301 301 302 302 302 305 305 305 302 302 299 299 299 299
302 303 303 303 304 305 304 304 304 304 304 305 306 307 307 307 317 313 308 312 310 321 311 301 302 309 311 312 310 313 315 312 314 308 300 306 305 306 296 298 298 298 300 302 303 304 301 299 297 299 297 295 294 293
302 302 302 303 303 304 305 304 305 305 305 305 306 305 305 306 307 312 309 303 310 312 313 298 297 304 310 305 301 309 309 312 305 300 302 299 301 301 298 295 297 298 301 298 299 301 299 299 297 294 295 294 290 289
301 301 301 302 302 302 303 304 305 304 305 305 305 305 315 315 315 311 302 306 316 312 304 291 294 291 306 301 303 304 309 296 304 296 298 300 294 292 292 293 294 295 295 295 296 296 294 293 293 293 292 292 290 290
302 302 301 302 302 302 302 303 303 303 304 304 314 312 308 309 303 305 309 310 310 307 303 293 301 296 303 300 295 297 297 295 292 295 300 294 290 292 292 292 293 294 296 295 292 290 290 291 291 292 292 292 292 293
301 301 301 301 301 302 302 303 304 304 305 315 310 304 309 304 311 306 299 300 302 295 297 296 300 296 302 294 291 296 292 295 289 293 293 289 287 289 291 292 294 295 297 296 296 295 294 293 292 291 291 292 292 290
300 300 300 300 301 301 302 302 304 308 306 306 309 309 310 306 303 293 290 293 294 291 293 292 294 297 296 303 295 296 289 291 287 296 291 287 287 288 290 291 292 294 295 294 295 293 293 292 292 291 290 289 289 289
299 299 299 299 299 300 300 301 300 300 303 312 306 296 301 293 290 288 285 288 288 290 291 292 289 295 296 299 292 292 288 288 295 288 287 287 287 289 290 292 292 294 293 292 291 291 291 289 289 289 288 288 290 289
298 298 298 299 299 298 299 300 302 305 307 299 293 287 288 288 287 287 289 289 287 289 291 294 290 293 293 290 290 286 287 290 285 283 284 286 287 289 291 292 292 289 288 289 289 289 288 288 288 287 286 286 285 285
297 297 298 297 298 298 298 299 301 303 296 289 293 285 285 286 286 286 286 288 288 290 293 292 292 295 289 287 289 287 284 284 287 286 287 287 290 291 291 291 289 287 287 289 289 287 286 288 288 287 286 285 284 282
298 297 295 297 297 298 298 301 302 300 295 290 288 285 286 286 285 285 286 285 289 290 294 296 290 289 286 288 285 286 286 285 285 287 288 288 289 290 290 290 290 290 290 290 290 288 286 284 286 285 284 282 282 282
298 296 295 296 297 298 298 297 293 289 289 288 285 286 287 286 285 285 286 285 289 289 286 290 287 285 288 286 284 288 285 287 286 287 288 289 288 290 290 290 288 290 290 289 287 287 285 284 283 282 281 281 281 281
296 298 295 296 299 298 295 296 291 289 285 288 285 285 287 286 286 286 287 289 289 289 290 288 291 286 285 284 284 285 286 288 287 287 289 289 289 288 290 290 290 289 286 286 285 284 282 282 282 281 280 279 279 280
294 295 294 295 298 297 290 290 293 285 286 288 288 288 288 288 289 290 290 292 293 294 292 290 287 286 285 287 286 286 286 287 287 287 288 289 288 289 289 288 287 287 285 284 283 283 282 280 280 279 279 278 277 278
294 294 294 295 298 293 287 288 294 288 284 285 288 286 287 287 288 287 289 292 292 291 285 284 282 282 283 285 287 290 290 290 289 286 284 286 288 287 286 287 286 284 282 281 280 279 281 280 279 277 277 276 276 275
297 295 296 299 296 293 289 289 287 287 287 285 286 286 285 288 286 285 287 291 286 282 282 283 283 284 286 288 290 290 289 290 288 288 286 284 286 285 284 283 283 282 282 281 280 278 277 276 276 275 275 276 275 275
294 294 296 296 291 290 288 290 288 290 287 286 285 286 284 284 284 284 287 285 282 282 283 284 285 285 285 285 286 287 286 286 286 285 284 284 282 282 281 281 281 279 278 277 277 276 276 275 273 273 274 273 274 275
293 294 291 290 286 286 283 291 285 286 282 283 286 282 282 283 284 288 282 283 283 285 285 284 284 285 283 284 284 284 286 285 284 283 282 282 281 280 279 278 278 277 276 274 275 274 273 271 272 271 273 272 273 272
291 286 283 283 284 280 285 282 286 283 285 283 281 279 280 282 285 282 280 280 281 283 284 283 283 282 282 281 279 279 281 282 281 281 281 280 278 277 277 275 274 274 273 274 274 273 273 272 270 271 271 270 271 270
283 280 283 279 284 281 280 280 281 282 279 280 280 279 280 284 279 277 277 278 279 279 281 283 282 282 279 278 278 277 278 280 278 276 277 278 277 275 274 274 273 272 273 272 271 270 270 270 270 269 268 269 268 267
277 279 279 279 280 280 280 278 278 278 279 279 278 281 282 281 276 274 275 277 277 277 277 279 280 278 276 277 276 274 275 278 278 274 274 275 275 275 274 273 273 272 272 271 269 268 268 268 267 267 267 268 267 267
276 277 281 283 281 281 280 281 281 280 278 277 279 279 280 275 274 274 277 276 276 276 277 277 277 277 275 274 274 274 274 274 274 273 273 273 273 272 272 270 268 269 270 269 268 267 266 266 266 266 266 268 268 267
279 280 277 279 281 282 279 279 278 277 278 280 281 276 275 274 273 275 275 277 277 277 276 275 274 274 274 274 275 274 274 274 273 273 273 273 272 272 270 271 269 265 268 268 267 266 266 266 266 266 266 266 265 266
279 281 281 276 280 280 278 278 278 279 280 280 278 276 273 272 273 274 274 276 278 278 275 274 273 274 273 273 273 273 273 273 271 268 268 269 270 271 270 270 269 269 269 268 267 266 266 265 265 265 265 264 265 266
279 283 280 278 277 276 278 280 280 280 279 279 278 275 273 271 272 275 274 274 273 272 272 272 272 273 271 272 271 270 270 269 268 267 267 266 267 268 268 268 268 268 268 267 266 266 266 266 265 266 265 265 264 263
282 282 279 279 277 278 279 281 282 280 279 276 276 275 272 270 271 272 271 272 272 272 272 271 270 271 270 269 269 269 269 269 266 266 266 266 267 268 268 268 268 267 266 266 265 265 264 263 264 264 264 263 262 261
279 277 277 275 277 278 280 278 278 278 278 276 273 273 272 272 269 269 270 272 271 270 267 270 270 268 268 269 269 269 262 267 267 266 265 266 266 267 267 267 267 267 265 264 264 264 264 262 262 262 262 261 261 259
278 278 277 277 277 275 277 276 275 274 274 272 271 271 270 270 265 268 271 270 269 268 268 269 269 269 267 266 267 267 265 268 266 265 264 262 261 262 263 265 266 266 264 264 264 263 263 262 261 261 260 260 259 258

GFSWCAN_sfc_thetae_042.txt.gz
Theta_e
300 300 300 300 300 300 301 301 302 302 303 303 303 303 303 303 304 303 305 310 307 310 313 315 314 311 311 303 301 309 308 309 310 303 304 304 299 302 299 299 296 294 294 291 296 288 286 301 300 294 302 305 304 304
300 300 300 300 300 300 301 302 302 302 302 302 302 303 303 304 304 306 304 312 315 313 314 320 318 319 318 317 314 312 312 309 310 307 307 308 294 294 299 295 302 296 300 299 298 297 304 304 302 305 306 304 305 305
300 300 300 300 301 301 302 301 301 301 301 302 302 303 304 305 306 307 308 313 321 315 312 314 312 317 320 319 323 311 319 315 314 320 312 309 293 306 292 301 302 302 304 301 299 300 301 303 305 306 306 306 306 307
301 301 301 301 301 301 301 300 301 301 301 303 303 305 305 305 307 307 306 314 324 315 299 308 318 314 319 321 320 323 321 322 320 319 313 297 296 308 304 304 304 302 302 299 299 301 302 304 305 305 306 307 306 307
300 300 300 301 300 300 301 301 302 303 304 304 304 304 305 306 307 308 311 320 322 316 302 306 313 315 317 318 316 319 319 317 315 308 295 305 308 307 306 306 304 303 301 300 299 302 303 301 302 303 301 300 301 301
300 300 300 300 301 302 303 303 303 303 303 304 304 304 305 306 307 312 309 319 321 323 311 300 311 312 315 316 315 315 317 318 315 308 306 308 307 309 296 300 302 303 304 304 302 305 304 301 300 299 297 297 296 296
302 302 302 302 302 302 302 302 302 303 304 304 304 306 306 307 314 309 308 309 306 321 310 298 300 308 313 313 312 313 316 314 313 308 304 306 305 306 296 300 300 301 302 303 303 304 298 300 296 297 295 294 294 293
302 303 303 303 303 303 303 302 302 303 304 305 305 306 305 305 306 308 311 306 306 315 313 296 292 302 310 306 302 310 310 311 306 301 302 302 302 305 299 298 299 299 301 300 300 301 298 297 296 295 295 293 291 290
301 301 302 303 304 303 303 303 303 304 305 305 306 306 313 315 313 309 303 305 318 312 302 291 293 291 307 301 301 304 307 295 303 296 298 301 295 293 297 296 296 297 297 296 297 297 296 294 293 293 293 292 290 290
301 301 301 301 302 304 304 304 304 305 305 306 312 311 302 311 304 306 310 308 309 308 303 294 301 295 302 299 295 297 297 295 293 294 300 294 290 293 294 295 296 297 297 297 292 291 292 291 291 291 291 292 291 290
301 301 300 300 301 302 303 303 303 304 307 316 311 303 310 305 310 307 300 300 299 295 297 298 300 296 302 295 291 297 292 295 290 293 293 290 289 290 293 294 296 298 297 296 296 295 294 292 291 291 291 291 289 289
300 300 299 300 301 302 302 303 305 309 310 309 309 311 310 307 301 292 288 293 294 291 292 293 296 297 298 303 295 296 289 292 288 296 290 287 287 291 292 293 295 295 295 294 294 293 293 292 292 290 289 288 288 287
299 299 299 299 299 301 301 302 301 303 304 313 305 295 301 293 289 288 285 288 287 289 290 292 289 295 296 298 292 291 287 289 296 288 287 287 288 290 291 292 293 294 294 293 292 291 290 289 289 288 286 287 287 287
298 298 298 298 299 300 301 301 303 306 307 298 292 287 288 286 287 286 287 287 287 287 290 293 290 292 293 289 290 286 287 290 285 284 286 286 288 290 292 293 291 289 288 289 289 289 287 286 286 285 283 283 282 282
297 297 298 297 298 299 300 301 302 303 296 290 292 284 284 285 286 286 286 287 287 290 293 293 293 294 289 287 289 286 284 284 286 286 287 287 289 291 291 290 288 287 286 287 288 286 285 286 286 285 283 283 282 279
299 299 296 297 298 299 300 301 301 300 293 288 286 285 286 285 285 285 285 285 289 290 294 297 290 287 286 287 286 286 285 285 285 287 287 289 290 290 290 289 288 289 290 289 288 286 285 284 283 283 282 281 279 279
299 294 295 297 298 299 299 299 296 290 287 286 285 285 286 285 284 285 285 285 289 289 287 291 287 285 288 286 284 286 284 285 286 286 288 289 289 289 290 289 288 289 289 288 288 286 284 284 283 282 281 280 280 281
297 298 296 297 299 298 297 294 292 290 285 286 284 285 286 285 285 285 286 288 289 288 288 287 291 286 285 284 283 285 285 286 287 287 287 289 290 290 290 289 290 288 287 286 284 283 283 283 282 280 280 279 279 279
295 296 296 297 298 297 291 291 294 285 286 287 287 287 287 286 288 288 288 290 291 291 290 288 285 284 283 284 285 285 285 286 285 285 286 288 288 288 288 288 287 286 285 285 284 283 281 280 279 278 278 277 276 277
295 295 295 297 299 293 288 289 295 288 284 286 288 287 287 287 288 287 288 291 290 289 284 282 280 281 282 284 286 288 288 288 287 284 284 285 287 287 286 286 285 283 281 280 280 280 281 280 278 277 276 276 275 274
297 296 297 299 296 293 290 289 287 288 287 285 287 287 286 289 286 286 287 290 286 282 281 283 283 284 285 285 286 287 288 290 288 288 285 284 286 285 284 284 284 284 282 281 280 278 277 276 275 275 275 275 274 275
295 295 297 296 291 290 289 291 288 290 287 286 286 287 285 284 284 285 288 284 281 282 283 283 285 285 284 284 285 286 286 286 286 285 285 285 283 282 281 282 281 279 278 277 277 276 276 274 273 273 273 273 273 274
295 295 292 290 285 285 283 292 285 286 282 283 286 282 283 283 284 289 282 282 282 284 284 283 283 284 283 283 283 283 285 284 283 283 282 281 280 280 279 278 279 278 275 274 275 274 273 271 272 271 273 272 272 272
292 286 283 283 285 280 286 282 286 283 285 283 281 279 280 282 285 283 278 279 281 283 283 283 285 282 281 280 278 278 281 282 281 281 282 280 277 276 276 275 274 273 274 275 274 273 273 272 270 271 271 269 270 269
283 280 283 280 285 282 280 280 281 281 279 281 280 279 280 284 279 278 276 278 278 278 279 282 281 281 279 278 277 277 279 280 277 276 278 278 276 275 274 273 272 272 273 272 271 270 270 270 270 269 268 268 267 267
277 280 279 279 280 280 280 278 278 278 280 279 278 280 283 281 277 274 275 276 275 275 276 277 279 277 275 276 275 274 274 278 277 273 273 274 274 275 274 273 272 270 271 271 269 268 268 268 267 267 267 267 267 267
276 278 281 284 282 282 281 281 283 281 278 278 280 280 280 276 273 274 276 276 275 276 276 276 277 276 274 274 274 274 274 274 274 273 274 273 272 272 271 269 268 267 269 269 268 266 265 265 265 266 266 267 267 267
279 280 277 281 281 283 279 280 279 277 278 280 282 275 274 272 271 274 275 277 278 277 276 275 274 274 274 274 275 275 275 274 273 274 273 273 273 272 271 271 269 268 268 269 267 267 266 266 265 265 265 265 264 266
279 281 283 276 280 279 278 278 278 278 279 279 278 274 272 272 273 274 276 277 278 277 275 274 274 275 274 273 273 273 272 271 271 268 269 269 270 269 270 270 270 270 269 268 268 268 267 266 266 265 265 264 265 266
279 284 280 279 277 276 277 280 279 279 279 279 277 274 271 271 272 275 274 274 273 272 272 273 273 273 272 272 270 270 269 268 267 266 265 265 266 268 269 269 268 268 268 267 266 266 267 267 266 265 265 265 265 264
281 282 280 279 277 277 279 281 282 280 279 276 277 274 270 270 271 272 271 273 272 272 273 271 270 270 269 268 268 268 268 268 267 267 265 266 267 267 268 268 268 268 267 266 265 265 264 264 264 263 263 263 263 262
279 277 277 276 277 279 280 278 278 279 278 276 273 274 273 273 268 268 270 272 271 269 269 269 269 268 268 269 269 269 264 268 268 266 265 265 265 265 266 266 266 266 266 265 265 264 264 263 263 262 262 262 261 260
279 279 278 277 277 277 278 277 276 275 275 272 271 272 270 269 265 268 271 271 269 268 268 269 269 270 269 268 268 268 267 268 267 268 267 264 262 263 263 264 264 264 263 263 263 263 263 263 262 262 260 259 260 259

GFSWCAN_sfc_thetae_045.txt.gz
Theta_e
299 299 299 299 299 299 300 300 300 301 301 302 303 303 304 304 304 301 299 305 300 299 303 308 306 303 305 302 295 302 302 303 300 291 290 286 286 289 290 296 290 287 284 280 284 283 281 298 296 290 295 298 299 298
300 300 299 299 299 299 300 300 301 301 302 303 303 303 303 304 304 303 298 305 308 301 302 311 314 313 311 308 306 303 305 304 305 298 294 291 290 287 288 284 298 288 293 288 290 288 298 298 299 301 301 299 299 300
300 300 300 299 299 300 300 300 300 301 302 302 303 303 303 303 304 303 301 305 306 301 299 302 308 313 316 312 313 303 305 310 308 310 300 295 288 291 283 286 290 296 300 293 291 296 297 301 302 303 303 301 300 299
300 300 300 300 300 300 300 300 301 301 302 302 302 303 303 303 304 304 301 306 306 301 288 302 316 312 317 319 317 318 315 314 313 308 294 290 289 300 288 293 292 295 296 295 293 298 299 299 300 300 300 300 296 295
300 300 300 300 300 300 300 300 301 301 301 302 302 302 303 303 304 304 306 306 308 300 297 302 310 313 316 317 314 316 314 309 304 294 289 291 297 294 292 292 288 297 296 288 287 297 296 294 296 297 295 295 295 293
300 300 300 300 300 300 300 300 300 300 300 301 302 303 303 305 306 305 300 306 309 310 303 293 307 308 312 313 313 313 311 309 306 298 292 298 302 294 286 283 297 299 300 300 298 299 296 295 294 295 293 293 293 291
299 299 299 299 299 299 299 298 299 300 300 301 302 303 304 305 307 302 303 308 307 307 301 292 294 306 309 309 305 308 309 304 304 299 293 295 296 297 287 285 296 299 299 300 300 297 293 294 291 293 292 292 292 290
299 299 300 300 300 300 300 300 302 302 302 303 304 304 304 305 306 305 311 307 305 310 302 291 290 296 307 298 293 303 301 300 298 297 296 289 293 287 285 294 296 298 297 296 295 297 294 294 292 291 291 290 289 288
302 302 301 302 302 302 302 302 303 303 303 304 304 305 305 306 305 306 303 304 310 306 292 288 289 288 303 297 296 297 297 291 299 289 293 292 289 287 293 293 294 296 294 293 294 293 292 291 291 290 290 288 287 286
301 301 302 301 301 301 301 302 303 304 304 304 308 306 295 304 304 306 308 299 298 297 295 289 296 290 299 291 289 290 288 288 286 289 294 288 285 291 291 293 295 295 295 293 290 288 290 290 290 290 289 289 288 287
301 301 301 303 302 302 302 303 304 305 306 305 302 297 304 304 306 296 288 288 290 286 289 292 294 292 298 288 288 289 287 286 282 285 285 284 284 289 293 293 293 297 296 295 294 293 292 290 290 288 287 287 285 284
300 300 301 301 303 303 303 304 305 307 307 306 305 307 305 301 293 287 286 288 285 285 288 289 291 295 292 297 287 289 286 283 280 291 286 282 285 289 291 291 294 294 293 293 293 292 292 291 289 288 287 285 283 282
298 299 300 300 301 302 303 303 304 304 303 306 298 291 295 288 284 282 278 285 285 286 288 288 287 289 291 291 287 287 285 280 287 286 283 283 288 290 291 292 292 292 292 290 289 288 287 287 286 285 283 284 282 280
298 298 298 299 300 300 301 301 302 303 302 292 288 285 285 285 283 283 284 285 285 286 287 289 287 287 287 286 286 285 285 287 283 281 279 284 288 289 291 290 290 288 286 287 286 285 283 283 282 282 280 279 279 279
298 297 298 298 299 300 300 301 301 299 292 286 286 282 282 284 285 285 285 285 286 288 288 288 288 289 286 286 286 285 283 281 280 279 284 286 289 290 289 287 286 285 285 286 286 284 283 282 281 280 281 280 279 275
299 298 295 298 299 300 300 299 298 295 289 286 284 284 285 285 284 285 285 285 288 287 288 287 285 285 284 284 284 283 279 278 282 284 286 289 289 287 286 287 287 287 286 285 285 284 283 281 279 279 279 278 272 272
298 292 297 298 299 299 299 296 293 288 285 285 283 285 284 284 283 284 285 285 288 286 285 285 283 282 285 283 281 283 280 283 285 286 288 288 287 285 285 286 286 286 285 284 284 283 281 281 280 279 276 277 278 277
292 295 298 298 300 297 295 293 288 286 283 284 282 283 284 284 284 285 285 287 287 286 286 284 286 284 281 280 280 282 283 284 285 286 287 287 287 287 288 287 287 285 283 282 282 282 281 279 278 276 276 277 277 276
293 295 297 298 297 292 287 288 289 282 283 284 284 284 285 284 285 287 287 288 288 288 287 285 280 279 279 281 283 284 284 284 284 284 285 287 287 287 286 285 285 283 282 282 280 278 277 277 276 275 275 275 273 273
296 296 296 297 297 287 285 285 291 285 283 284 285 284 284 284 285 286 286 286 286 284 280 278 278 280 281 282 284 285 285 286 285 283 283 284 285 285 284 282 280 280 279 278 278 277 276 275 275 275 273 272 269 268
294 293 296 296 291 289 285 284 284 286 285 283 284 284 284 284 284 284 283 285 281 280 279 281 280 282 284 284 285 286 286 287 284 284 283 282 282 282 282 282 282 281 279 277 276 274 273 271 272 272 266 264 264 264
290 296 287 290 285 285 284 287 284 285 284 284 283 283 281 281 281 282 283 279 278 280 281 281 281 281 280 280 282 284 284 284 284 284 283 282 280 280 280 279 277 274 274 274 274 272 271 272 270 268 263 262 265 265
293 291 286 284 278 279 277 285 279 283 278 280 282 280 279 280 281 284 277 279 280 282 282 282 281 281 279 280 280 282 282 282 280 280 279 278 277 276 274 274 276 273 272 273 274 272 270 269 266 262 263 262 262 259
290 284 277 277 278 278 278 276 281 280 279 280 277 275 276 278 281 276 274 276 277 278 278 280 282 279 278 277 275 276 279 279 277 278 278 276 274 273 273 272 272 272 273 273 271 268 267 262 261 262 258 257 256 256
275 276 276 271 277 275 273 278 277 275 272 275 274 273 277 279 274 273 273 274 273 273 274 278 276 276 275 274 274 274 276 277 274 272 274 276 273 272 271 271 270 270 271 267 265 260 258 258 257 256 258 255 259 257
275 278 277 277 278 277 277 275 275 273 272 269 276 279 277 275 268 268 272 272 271 272 272 273 274 272 271 272 271 271 271 275 274 271 271 272 271 271 271 268 266 266 267 263 258 256 257 257 256 257 255 258 260 259
275 277 280 283 281 280 276 278 278 273 269 271 274 273 276 267 265 271 273 274 273 273 274 273 274 273 272 272 272 272 272 272 271 271 271 271 270 270 267 263 259 261 264 261 257 256 255 254 254 254 254 259 259 256
278 279 276 279 279 280 276 276 274 272 274 277 277 267 267 265 266 271 273 275 274 274 273 273 273 272 271 271 270 270 270 271 269 270 269 269 268 265 263 262 262 265 263 262 258 257 256 256 254 254 254 254 253 253
278 281 276 271 277 277 275 275 275 276 277 276 270 267 267 270 271 272 273 274 274 272 271 271 272 270 269 269 268 266 265 264 262 260 258 260 261 262 261 259 261 259 259 259 263 264 262 260 260 259 255 258 259 257
277 280 277 276 274 273 275 277 273 275 277 274 271 270 269 268 269 271 271 271 270 268 268 269 268 267 265 265 263 262 260 259 260 257 254 253 255 260 260 263 260 258 259 257 256 257 261 258 258 254 254 254 258 256
280 277 273 272 269 275 277 279 277 277 272 268 270 264 264 265 265 268 268 269 268 268 268 263 263 264 263 263 261 257 257 258 260 258 256 256 256 258 262 262 262 259 256 260 257 255 253 253 255 256 253 253 255 254
275 273 268 268 270 275 278 274 272 275 273 269 266 264 264 265 260 262 267 267 265 264 264 263 262 259 258 258 259 259 258 259 260 257 257 256 254 253 254 255 256 260 260 260 259 257 257 256 255 256 255 253 251 249
272 270 270 268 270 271 269 269 271 266 266 265 267 266 262 261 259 262 267 266 261 260 263 264 264 263 263 260 258 259 261 258 258 263 264 262 256 256 253 253 252 251 251 251 251 251 254 258 259 257 254 250 250 251

GFSWCAN_sfc_thetae_048.txt.gz
Theta_e
298 298 298 298 299 299 299 299 299 300 300 300 300 301 301 301 304 303 298 303 298 294 298 304 304 298 300 300 295 299 299 299 294 288 289 286 282 289 288 292 288 286 283 279 281 277 279 298 295 289 291 296 297 297
299 299 299 299 299 299 299 299 299 300 300 300 300 301 303 304 304 301 295 304 305 298 299 304 305 304 304 305 303 301 300 301 301 295 292 290 288 285 287 284 295 287 289 286 288 286 295 298 297 298 299 297 297 298
299 299 299 299 299 299 299 299 299 300 300 300 301 303 303 304 304 300 297 300 301 295 298 300 300 310 313 312 312 300 301 307 305 307 299 294 288 289 284 284 290 294 299 292 291 295 296 298 299 299 298 294 294 296
299 299 299 299 299 299 299 299 299 300 300 300 302 303 303 303 304 302 296 302 301 300 289 296 311 310 315 314 313 310 308 309 308 304 294 291 288 296 286 292 290 294 295 292 292 295 296 296 296 295 294 294 293 293
299 299 299 299 299 299 300 300 300 301 301 302 302 303 303 303 304 301 300 302 305 301 292 294 307 313 315 315 312 315 310 306 299 292 289 292 295 294 290 290 287 295 293 288 286 296 293 292 294 295 293 292 292 290
300 299 299 299 299 300 300 300 300 301 301 301 302 303 303 303 303 301 294 302 305 307 297 289 305 307 312 313 311 311 311 308 304 298 292 297 300 292 286 283 295 297 298 298 295 296 293 292 292 293 291 291 290 289
299 299 299 300 300 300 300 300 300 301 301 301 302 302 302 302 300 297 294 303 306 306 296 290 293 306 310 309 304 307 308 302 304 298 293 294 296 295 285 285 295 296 296 295 295 294 290 291 289 291 290 290 290 288
299 300 300 300 300 300 300 299 299 300 300 301 301 302 302 303 303 299 305 307 307 302 300 290 291 295 307 297 296 303 298 298 298 296 293 287 292 285 285 293 295 294 295 294 294 294 292 291 290 289 289 289 287 286
299 299 299 299 299 298 298 298 298 300 300 301 301 302 304 301 299 300 304 305 307 303 293 287 289 288 300 295 294 294 295 290 296 289 289 291 286 283 290 292 292 293 292 290 291 291 290 288 288 288 288 287 285 283
299 298 299 299 298 298 298 298 299 300 301 301 302 300 292 300 305 306 303 299 298 297 294 288 293 290 296 289 289 289 289 288 286 289 293 285 285 289 291 292 293 293 292 291 288 286 287 287 287 287 287 286 285 283
301 301 301 301 301 300 300 300 302 302 303 302 300 295 304 304 303 298 289 288 290 285 288 291 293 292 297 288 287 286 286 284 284 288 286 285 284 288 292 293 294 294 294 293 292 291 291 290 288 286 285 284 283 282
302 302 302 302 302 302 302 303 303 305 306 305 304 305 302 298 290 287 285 285 286 285 288 289 290 294 291 294 287 287 285 282 281 290 286 282 286 291 293 293 294 294 293 292 292 291 290 289 288 286 284 282 281 282
299 300 301 302 302 303 303 304 304 304 305 303 297 290 293 286 284 277 278 283 284 286 288 287 287 288 290 292 287 287 280 280 286 284 279 283 288 289 291 291 291 291 290 289 288 288 287 286 286 283 281 280 281 280
298 299 299 300 300 301 302 302 302 301 299 290 285 283 284 282 282 282 284 284 285 285 287 287 286 287 286 287 285 285 286 286 278 278 278 285 288 289 290 289 287 286 285 285 285 284 283 282 281 281 281 279 278 277
298 298 298 298 300 300 300 300 300 297 290 284 285 280 281 284 285 285 285 285 286 287 287 287 287 288 285 285 285 284 282 281 278 278 283 287 288 288 287 286 285 284 284 284 284 282 281 280 280 279 279 279 278 276
297 296 295 298 299 299 299 297 295 293 288 284 284 284 285 285 284 284 285 285 288 286 286 286 285 284 283 284 283 281 278 280 281 283 286 288 287 286 285 286 286 286 284 284 283 282 281 279 279 279 278 277 274 274
296 291 297 299 299 298 298 293 290 286 285 283 282 285 284 284 283 284 284 285 288 286 285 283 283 282 284 282 280 282 279 282 284 285 287 286 285 285 285 285 285 285 284 283 283 282 280 280 279 278 276 277 277 275
290 292 298 299 298 296 293 291 287 285 282 284 281 283 285 284 284 284 285 287 286 285 286 284 286 279 276 278 279 282 283 284 286 286 285 285 286 286 287 286 286 285 283 282 282 281 280 278 277 276 277 277 276 276
293 294 297 298 296 289 285 286 287 282 283 284 284 284 284 284 285 285 285 286 287 286 285 282 277 277 277 280 282 283 283 284 283 284 285 286 286 285 285 284 283 282 282 280 279 278 277 277 276 275 275 274 272 272
296 296 296 296 295 285 283 283 287 283 282 283 285 284 284 283 284 283 283 283 284 282 279 277 276 277 279 281 284 284 284 285 284 282 282 283 284 283 282 281 280 280 279 278 276 276 275 274 274 274 273 271 268 267
291 291 292 291 286 287 285 283 285 285 284 283 284 284 283 283 280 279 279 282 279 278 277 279 278 279 281 282 284 284 285 285 284 284 281 279 281 281 280 280 280 278 276 274 273 272 272 271 271 271 264 262 261 262
288 293 283 286 282 281 281 284 283 284 283 283 282 283 280 279 278 278 280 278 277 278 280 279 278 278 278 279 279 281 282 283 282 281 281 280 278 277 276 276 275 274 274 273 273 271 271 271 270 269 266 262 265 263
288 285 281 279 276 275 274 281 277 281 277 279 280 278 278 277 281 281 275 276 276 278 279 279 278 278 277 277 279 279 280 279 277 276 276 275 274 274 274 274 274 272 271 272 273 271 269 268 267 264 263 263 260 255
287 278 278 272 275 271 272 274 279 278 277 275 274 272 275 278 279 274 271 272 274 276 276 277 277 275 275 275 273 274 276 276 275 275 276 274 272 271 272 271 271 271 271 270 269 267 266 264 262 263 257 252 251 252
274 273 271 268 273 273 269 274 270 271 268 270 269 271 273 276 270 269 268 270 271 270 272 275 273 273 271 271 271 272 274 274 272 270 271 273 272 271 270 269 268 268 269 265 262 261 260 259 256 253 255 251 258 257
273 273 274 275 275 272 270 272 267 274 267 265 273 276 273 266 263 265 269 269 269 270 269 271 271 270 270 270 269 269 270 274 272 268 269 270 270 270 268 267 265 264 265 261 258 255 254 253 252 253 251 256 259 256
269 269 276 281 279 276 270 271 272 268 266 270 269 265 270 259 261 268 272 272 271 271 272 272 272 271 270 270 270 270 270 270 269 269 269 269 268 267 263 258 258 261 262 258 254 253 253 251 251 251 250 249 251 251
275 276 272 275 269 272 265 265 264 266 266 273 270 262 259 259 263 270 271 274 273 273 272 271 271 269 267 266 266 266 266 267 268 268 267 266 265 264 262 262 261 266 261 258 256 256 255 257 254 254 253 251 252 250
276 278 272 271 268 269 270 268 268 272 275 274 262 262 263 267 267 269 271 271 272 270 268 267 267 266 265 264 263 262 262 260 258 255 253 253 254 257 261 262 261 260 255 256 260 261 259 259 258 257 253 251 256 253
270 272 267 263 263 267 268 266 267 265 271 267 268 267 266 266 267 269 269 268 266 264 264 264 264 263 260 256 256 259 258 257 258 255 252 251 254 257 256 257 258 259 258 254 256 256 258 252 253 252 253 252 249 250
271 268 265 264 264 272 274 268 269 266 262 260 260 258 259 262 263 266 267 265 266 263 262 260 257 253 256 255 252 251 253 257 255 254 253 252 250 249 249 250 250 250 251 252 254 254 254 253 251 253 254 253 251 250
263 262 262 265 265 269 273 274 273 267 263 260 260 256 258 255 255 260 264 260 261 260 257 256 255 257 253 252 251 255 257 255 255 254 256 255 252 251 249 250 248 248 247 247 247 247 248 250 253 254 255 253 251 248
263 260 259 262 266 265 262 267 265 263 262 258 260 259 257 257 256 260 264 259 257 254 253 253 255 258 259 255 254 253 254 251 252 257 258 258 258 257 252 249 248 248 249 247 246 246 249 250 250 251 253 253 251 249

GFSWCAN_sfc_thetae_051.txt.gz
Theta_e
299 300 299 299 299 299 299 299 299 299 299 299 299 299 300 300 301 300 298 304 299 293 295 302 301 297 298 297 291 295 298 297 293 289 287 284 281 288 287 290 287 288 283 279 280 277 280 295 293 287 290 293 295 295
298 298 298 298 299 299 299 299 299 299 299 299 299 300 300 301 302 300 296 303 304 295 296 302 301 302 301 300 298 298 297 298 298 293 289 287 285 282 286 284 293 286 290 287 288 286 293 296 294 295 296 296 295 296
298 298 298 298 298 298 298 298 299 299 299 299 300 301 301 301 301 299 299 301 300 294 293 296 298 304 306 304 307 298 298 304 302 302 294 292 286 288 284 284 289 293 296 290 290 293 294 295 295 295 296 295 296 297
299 298 298 299 299 298 299 299 299 299 300 300 300 300 301 301 301 302 299 301 298 298 288 294 306 307 312 311 309 309 305 306 304 301 291 289 287 295 285 292 291 295 295 291 290 293 294 294 292 292 292 292 292 292
299 299 299 299 299 299 299 298 298 299 299 300 299 300 301 302 303 301 301 301 303 294 291 295 302 306 312 311 310 309 308 303 297 292 288 289 294 293 291 292 288 294 293 289 287 295 294 292 292 293 292 290 290 290
299 299 299 299 299 299 298 299 298 298 299 298 302 303 303 302 302 299 292 297 303 304 296 288 300 302 308 309 308 306 306 303 299 294 291 296 298 293 288 288 295 296 298 297 295 298 293 292 291 292 290 290 290 289
299 299 299 299 299 300 299 299 299 300 299 301 302 302 302 302 297 293 292 299 302 305 295 288 289 299 309 305 301 303 303 299 300 295 290 292 294 292 281 284 294 295 294 293 293 293 289 290 288 290 289 289 289 287
299 299 299 299 300 300 300 300 301 301 301 302 302 302 302 302 299 293 301 304 304 298 298 287 289 293 306 297 296 301 297 298 298 295 292 287 291 284 285 291 293 293 293 293 292 293 291 289 289 287 288 287 286 285
299 299 299 299 300 300 300 300 301 301 301 301 302 302 300 298 291 297 304 305 306 297 289 286 287 287 300 296 294 293 297 289 296 289 291 293 287 286 288 290 292 293 292 288 289 289 289 287 286 287 286 285 283 282
299 299 299 299 299 299 299 299 299 300 301 301 300 296 291 295 303 304 302 297 296 297 296 287 293 289 297 289 289 288 288 288 287 289 293 287 286 290 290 292 291 291 290 289 286 285 285 285 286 286 285 285 284 282
298 299 298 299 299 298 298 299 300 300 300 297 294 292 302 304 301 294 287 288 289 286 289 291 292 292 296 288 287 288 286 285 285 287 288 285 285 288 291 291 292 292 292 292 291 290 289 288 287 285 283 283 283 282
299 299 299 298 298 298 299 299 299 299 298 299 301 304 303 298 291 287 284 285 285 285 288 289 290 293 290 294 287 287 285 282 283 289 286 284 285 290 291 291 292 293 292 292 292 291 290 288 287 285 283 282 282 281
300 299 299 299 299 299 299 300 300 302 303 303 296 290 292 286 284 282 281 283 283 285 287 287 287 287 289 290 284 282 278 280 286 285 284 282 287 291 292 292 291 292 292 290 289 288 287 285 284 283 281 281 280 279
300 301 302 302 301 300 300 301 301 302 299 289 288 282 283 282 282 282 284 285 285 285 286 287 286 286 285 286 284 278 285 285 275 274 277 284 288 289 289 289 287 286 286 286 285 284 283 281 280 280 280 279 277 276
299 299 299 299 301 302 302 301 300 297 290 285 286 280 281 284 285 285 285 285 286 287 286 286 286 286 285 284 283 283 282 280 276 276 283 286 288 287 286 286 285 284 284 283 284 282 281 280 279 279 279 278 277 275
298 298 296 298 299 300 299 297 295 292 286 285 283 283 284 284 283 284 284 285 287 286 285 284 281 279 283 283 281 280 275 275 281 283 285 286 285 285 285 285 285 285 283 282 282 281 280 279 278 278 278 276 275 273
297 293 296 299 298 298 298 294 291 285 283 283 281 285 284 284 283 284 284 284 287 286 285 282 282 282 284 281 279 281 278 281 284 285 286 285 285 284 285 284 284 283 282 281 281 280 280 279 277 276 275 276 276 274
289 291 298 299 298 295 293 291 287 285 282 283 281 282 283 283 282 283 284 285 286 285 285 282 284 278 276 277 278 281 282 284 284 284 284 285 285 285 285 284 284 284 283 282 280 279 279 278 277 277 277 277 275 274
292 293 296 297 295 289 285 286 287 282 282 284 284 284 284 282 283 283 283 285 285 285 283 281 276 275 275 279 280 282 282 283 282 283 284 285 285 285 284 284 283 282 281 281 279 278 277 277 276 276 275 274 272 272
295 295 294 295 293 284 283 283 287 284 282 283 284 280 280 280 281 281 281 282 283 281 277 274 273 275 276 278 282 284 284 284 284 281 280 280 282 282 282 281 280 279 277 277 276 275 275 274 274 273 272 271 270 269
290 290 291 289 285 285 283 283 284 284 284 283 284 283 280 280 277 277 277 280 277 277 274 276 275 277 279 279 281 283 282 282 281 281 279 278 279 279 279 278 278 277 275 274 272 272 272 271 271 271 268 265 265 267
285 290 280 284 280 281 281 283 284 284 283 282 282 281 278 276 275 276 278 273 273 274 277 275 275 276 275 276 277 278 279 278 278 277 276 277 275 275 274 275 275 273 272 272 272 270 270 271 270 269 266 264 266 265
286 284 279 279 275 274 273 280 277 281 277 278 279 277 277 277 278 279 272 273 273 275 276 277 277 277 275 276 277 277 277 276 275 274 274 273 273 273 272 273 273 271 270 271 272 270 269 269 267 265 264 264 262 258
284 275 271 270 273 267 270 271 277 276 274 273 273 271 276 276 276 271 268 269 272 274 274 274 274 273 273 273 272 272 274 275 273 273 274 272 270 269 270 269 269 269 269 268 267 265 265 263 263 262 260 256 255 253
273 272 270 266 270 269 265 265 267 270 264 266 266 268 274 273 267 266 266 268 269 269 270 272 272 271 270 270 270 271 273 272 270 268 270 271 270 269 267 267 266 266 267 264 262 261 260 259 257 255 257 252 256 253
269 271 273 267 271 269 268 265 267 266 264 265 272 273 265 262 259 261 267 267 267 269 268 269 269 269 268 269 267 267 268 271 269 266 266 268 268 267 265 264 263 263 264 260 257 255 255 253 251 251 250 252 254 251
269 270 273 278 276 274 268 266 269 265 264 266 267 263 261 256 258 267 271 271 269 270 271 270 269 268 267 267 268 268 268 268 267 266 267 266 265 264 261 258 257 261 262 256 252 252 253 252 250 250 250 247 247 248
277 275 266 267 267 269 263 261 262 263 265 272 265 257 255 256 261 268 269 272 271 271 269 267 266 265 263 263 264 264 265 264 264 263 262 262 262 262 262 262 263 265 260 258 256 255 252 254 255 254 251 251 253 249
271 271 269 263 264 266 268 263 264 269 271 269 257 259 261 265 265 266 268 269 269 267 265 264 263 260 261 261 260 259 260 258 256 253 250 249 251 254 257 255 256 256 256 255 258 262 261 259 256 252 252 251 254 251
268 268 264 258 261 264 266 264 263 261 267 264 266 265 264 264 266 268 267 265 263 261 259 258 257 257 251 252 252 256 256 253 252 252 250 250 252 252 247 248 249 250 249 248 249 252 257 253 254 252 251 251 248 247
265 264 262 262 263 266 267 262 265 261 257 257 257 256 258 261 261 264 263 261 261 259 258 254 253 249 252 251 249 249 251 254 253 253 253 252 250 249 248 247 247 245 245 245 245 246 247 247 248 249 251 252 250 251
261 257 261 262 265 269 266 267 262 259 256 254 256 252 255 254 253 258 260 257 256 254 254 251 252 255 252 251 250 250 253 252 250 250 250 251 251 250 249 249 247 245 246 245 244 245 246 247 247 246 247 251 252 252
258 256 256 259 263 263 263 267 264 261 259 257 258 257 255 254 253 258 260 256 254 252 251 250 251 254 256 254 251 249 250 248 248 255 256 256 253 253 249 246 245 245 246 245 245 245 245 245 246 250 252 251 251 251

GFSWCAN_sfc_thetae_054.txt.gz
Theta_e
301 302 302 302 302 301 301 300 300 300 301 301 301 301 301 302 302 300 297 301 297 293 295 299 298 294 294 295 287 292 294 294 290 287 285 286 281 288 287 290 288 288 285 279 279 277 281 294 292 288 290 291 293 294
299 299 299 299 299 299 299 300 300 300 300 300 300 300 301 302 302 300 294 303 303 295 295 300 299 300 298 298 296 294 293 294 295 291 288 284 283 282 286 284 291 288 291 287 288 288 293 294 293 294 294 294 294 295
298 299 299 299 299 299 300 300 300 300 300 300 300 300 301 301 302 300 295 298 299 294 294 295 294 302 304 302 303 294 295 301 298 299 292 289 285 287 283 285 287 291 293 289 290 293 294 295 295 295 294 295 296 296
298 298 298 298 298 298 298 298 298 298 298 299 299 299 300 300 301 300 296 299 298 293 285 292 305 302 307 305 303 304 302 303 301 298 290 288 285 293 285 290 290 292 294 291 289 292 294 295 292 293 292 293 292 291
298 298 298 298 298 298 298 299 298 298 299 299 299 300 300 301 301 299 298 299 299 292 289 289 299 303 305 308 306 305 305 301 295 290 287 288 291 292 288 288 287 294 292 289 288 296 295 294 292 293 292 290 291 289
299 298 298 298 298 298 298 299 299 299 299 299 299 300 300 300 300 296 291 299 303 300 289 286 297 297 303 309 308 305 305 300 297 293 287 292 296 294 286 284 294 296 297 298 296 298 292 292 291 291 289 289 289 288
299 299 298 298 298 298 299 299 299 299 299 299 300 300 300 299 298 294 291 296 303 301 293 284 286 295 305 307 303 303 300 298 298 293 287 291 292 293 281 284 293 295 294 294 293 293 289 290 288 289 288 288 288 286
299 299 298 298 298 298 298 298 297 298 298 299 300 300 301 301 299 293 296 301 302 298 296 283 287 291 303 297 296 302 296 295 296 292 288 287 290 284 287 290 291 291 292 292 290 291 291 289 288 286 287 286 284 283
299 299 299 299 298 298 299 297 299 301 301 301 301 301 299 296 292 292 302 302 301 295 287 285 286 285 296 295 293 295 295 288 294 288 290 291 285 286 289 289 290 291 291 287 289 288 288 286 285 286 285 285 283 282
299 299 299 299 299 300 300 300 301 301 301 301 297 293 287 291 301 303 300 295 294 293 295 287 291 287 296 288 288 288 288 287 286 289 293 284 286 288 289 291 292 290 289 289 286 284 285 285 284 284 284 284 284 284
299 299 299 299 299 300 300 300 300 301 299 293 291 289 295 303 298 293 287 288 288 286 289 289 290 289 295 288 286 286 286 286 285 287 288 285 287 288 291 291 292 291 291 291 290 289 288 287 285 283 282 283 284 283
300 300 299 299 299 299 299 300 300 297 295 297 298 301 300 297 290 285 285 285 286 284 287 288 290 292 290 295 287 287 285 284 284 289 286 284 286 290 290 290 291 292 291 290 290 288 288 287 286 284 283 282 282 281
299 299 299 299 299 299 299 299 300 300 300 298 296 289 291 285 284 279 279 283 283 285 287 287 286 287 289 291 285 284 282 283 286 285 284 284 288 290 290 291 290 291 290 289 288 288 286 284 284 283 281 281 280 279
299 299 299 299 299 299 299 300 299 299 297 288 286 281 283 281 281 282 284 285 285 285 285 286 286 286 285 285 284 283 285 285 281 280 277 284 287 288 289 289 288 286 286 285 284 284 283 282 281 281 280 279 278 277
299 299 299 299 299 299 299 300 299 297 291 285 284 280 281 284 284 284 285 285 285 287 286 286 286 287 285 284 283 284 282 280 278 273 282 285 287 287 286 286 285 284 283 283 282 281 280 280 279 278 278 278 277 275
299 298 296 301 301 301 300 298 295 293 287 285 283 281 283 283 282 283 284 284 287 285 286 286 284 284 283 282 280 280 278 276 280 283 285 285 285 285 284 284 284 284 283 282 281 280 279 278 278 277 276 275 274 274
297 293 297 299 299 298 298 294 290 284 283 283 281 282 282 282 281 282 283 283 286 286 284 284 282 280 284 280 278 280 277 280 283 284 284 285 284 284 283 283 282 282 281 281 280 280 278 278 277 276 274 275 275 274
290 293 299 299 298 296 293 291 285 284 281 283 280 281 281 280 279 280 282 284 285 285 283 279 282 277 275 275 276 280 282 283 283 284 284 284 284 284 284 282 282 281 280 280 280 279 278 277 277 276 276 275 274 273
291 292 297 299 296 290 286 286 287 281 281 282 281 281 281 279 281 281 282 283 284 284 282 278 273 271 272 277 276 279 282 283 281 281 282 284 284 283 283 282 282 280 280 279 279 278 277 277 276 276 275 275 273 272
294 293 294 295 294 285 283 283 286 282 281 281 281 278 277 277 278 278 279 280 280 278 274 272 271 272 273 275 278 281 283 284 281 278 277 278 280 280 279 278 278 277 276 276 275 275 274 272 272 272 272 272 270 269
289 289 289 288 284 285 283 283 283 284 284 281 282 280 278 279 275 274 274 278 274 273 272 273 273 275 276 277 278 278 277 278 277 278 277 275 277 277 276 276 276 275 273 273 272 271 271 270 271 270 269 267 267 268
284 289 280 283 280 280 280 282 283 284 282 282 281 281 278 273 272 273 275 271 270 271 274 274 273 274 274 274 274 276 276 276 276 275 274 275 273 273 272 273 273 271 271 270 270 269 269 270 269 268 267 267 268 266
285 283 278 278 274 273 272 279 275 279 273 275 277 275 274 273 276 277 269 271 271 273 274 274 275 274 273 274 275 274 275 274 272 272 272 271 271 270 269 269 270 269 268 268 269 268 267 267 266 265 265 265 264 262
283 274 270 269 272 266 269 270 276 274 272 271 271 270 274 271 273 268 266 268 270 272 272 272 273 272 272 271 270 270 272 273 271 271 271 270 267 267 267 267 267 266 267 266 265 264 263 261 262 262 260 258 258 256
274 272 269 265 268 268 264 263 266 268 266 268 268 270 269 271 265 265 264 267 268 268 269 271 270 269 268 268 268 269 270 270 268 266 267 270 268 267 265 265 265 265 265 262 260 260 259 258 257 257 258 253 257 252
270 271 273 269 270 269 270 268 269 262 263 264 266 268 262 260 257 260 266 266 266 267 266 267 268 267 266 267 266 266 267 269 267 264 264 265 265 263 262 261 261 262 262 258 255 254 254 253 250 251 249 252 251 248
271 269 271 276 275 272 265 264 267 263 261 261 263 260 257 254 256 265 269 269 267 267 267 266 267 266 265 265 266 266 266 265 264 264 264 263 263 263 260 257 257 260 262 259 255 253 253 252 250 251 250 246 245 246
276 271 264 264 264 268 262 259 260 261 264 269 262 255 253 253 259 266 268 270 268 267 266 265 264 263 262 263 263 262 262 261 260 260 260 260 260 259 257 257 257 261 255 253 253 253 253 253 254 253 251 251 252 250
268 267 267 261 262 263 264 261 262 266 267 265 254 256 259 263 263 265 266 267 267 265 262 260 259 256 258 259 258 257 257 255 254 252 249 248 249 254 253 250 249 250 249 250 255 259 261 258 257 254 254 253 254 252
264 266 262 259 259 261 259 261 257 256 263 262 264 264 263 262 265 267 264 263 261 255 251 250 249 251 248 250 250 254 254 249 249 250 248 248 251 253 247 246 246 246 244 243 244 248 253 248 251 247 248 249 248 249
263 262 263 262 263 260 260 256 258 257 254 255 254 254 256 259 260 262 261 259 256 252 252 251 252 247 249 248 247 247 249 250 248 249 250 249 248 247 246 246 245 243 242 243 243 243 243 244 243 243 245 247 251 253
259 255 259 260 262 261 262 263 254 255 253 252 254 250 252 252 251 256 258 255 252 252 250 248 249 252 250 249 246 246 250 248 248 249 249 248 247 247 247 247 244 243 243 243 242 242 243 243 242 241 242 244 246 247
255 253 254 258 261 262 263 263 261 258 255 255 256 254 252 252 252 255 257 252 251 250 250 248 249 250 251 249 248 247 248 246 246 254 254 253 250 250 245 244 242 243 244 243 242 241 243 243 243 242 243 243 243 244

GFSWCAN_sfc_thetae_057.txt.gz
Theta_e
302 301 302 302 302 302 302 302 303 303 302 301 301 301 302 303 303 300 297 300 297 293 294 298 297 295 295 295 289 293 294 295 292 288 288 288 286 291 291 292 290 290 287 286 285 285 285 297 294 292 299 297 298 298
299 301 301 302 302 302 302 302 302 301 301 301 301 301 302 303 303 302 295 301 302 295 295 300 300 300 299 301 296 296 295 295 296 292 290 290 287 286 290 288 294 290 293 291 292 293 299 297 300 299 298 299 298 299
299 299 299 301 300 300 300 300 300 300 300 300 301 301 302 302 303 301 297 297 298 294 293 295 295 303 303 301 304 296 297 301 299 302 295 294 289 291 287 289 293 294 297 294 294 296 297 298 299 299 299 299 299 300
299 299 299 299 299 299 299 299 300 300 300 301 301 301 301 302 302 299 295 298 296 295 287 291 303 300 305 305 303 304 304 305 303 302 293 290 290 295 291 295 294 295 297 294 293 296 297 299 299 298 297 297 295 295
298 298 298 299 299 299 300 300 299 300 300 300 301 301 301 302 301 298 297 298 298 293 286 289 298 301 303 305 303 304 304 303 299 295 289 292 294 294 291 293 292 297 295 293 293 299 300 300 300 297 296 295 294 292
298 298 298 298 298 298 298 298 298 299 299 299 300 300 300 301 299 295 289 298 299 301 291 285 296 298 304 306 305 303 304 303 302 297 293 296 298 297 290 291 298 299 299 300 299 301 295 294 293 295 294 293 293 292
298 299 298 298 298 298 298 298 298 299 299 299 299 300 300 300 296 290 288 295 298 299 292 285 288 296 301 304 305 304 306 303 301 298 293 296 297 297 288 292 297 298 298 296 295 295 292 293 293 292 291 291 290 290
298 298 298 298 299 298 298 298 299 299 299 299 300 300 300 299 299 294 299 301 299 295 296 284 285 291 302 297 296 302 298 299 297 296 292 294 294 290 289 293 294 294 294 294 294 293 294 291 290 289 288 288 286 285
298 298 298 298 298 298 298 299 299 299 299 299 299 299 297 295 288 293 301 302 302 297 287 286 285 286 298 294 294 295 296 289 296 290 292 295 290 290 294 293 293 293 293 291 290 290 290 289 288 287 287 287 285 284
299 298 298 298 297 298 298 298 299 299 299 299 297 292 287 293 300 301 298 293 293 294 294 287 290 288 296 291 290 289 290 288 287 291 294 289 290 292 292 293 294 292 291 290 287 285 286 286 286 286 286 287 286 285
299 299 299 299 299 300 300 300 299 299 299 296 291 288 294 300 296 292 287 287 287 286 289 290 289 289 296 291 288 288 286 286 286 289 290 289 288 292 293 293 292 292 291 292 291 290 290 288 286 285 285 286 286 285
300 299 299 298 299 300 300 300 300 297 295 297 296 298 297 293 288 284 284 286 286 284 288 288 289 292 291 295 290 288 286 285 285 289 286 285 288 290 291 291 291 292 292 290 290 289 288 287 286 285 284 283 282 281
299 299 299 299 299 300 299 299 299 297 298 297 295 289 289 285 281 282 281 283 284 286 287 288 286 289 290 290 286 286 284 283 287 285 285 284 288 289 290 291 290 291 290 289 287 286 285 285 285 283 281 281 281 280
299 299 299 299 299 299 299 299 299 297 294 287 285 282 282 280 281 282 284 285 285 285 286 287 286 287 286 285 285 284 285 285 283 282 280 285 286 288 289 289 287 285 285 285 284 284 283 282 281 281 281 280 279 278
299 299 299 299 299 299 299 299 298 295 287 284 284 280 281 284 284 284 285 285 285 286 286 286 286 287 285 284 285 285 283 280 279 279 283 285 286 286 285 285 284 283 282 282 282 280 279 279 279 278 279 279 278 277
299 298 297 299 299 299 299 297 295 292 285 284 281 278 281 281 279 281 282 283 285 285 286 286 285 284 283 283 282 279 280 277 280 282 284 285 284 284 284 283 283 282 281 281 280 280 279 278 277 277 277 276 276 276
298 293 299 299 299 299 298 293 290 285 284 282 279 280 279 279 278 279 281 282 285 285 284 285 279 278 284 280 277 280 277 279 281 283 284 284 283 282 282 282 281 281 280 280 279 279 277 277 277 276 275 275 275 275
291 297 300 300 298 295 292 290 286 284 279 279 277 278 278 278 277 278 280 282 284 284 282 278 281 275 273 273 274 276 278 283 283 283 283 283 283 282 282 281 281 281 280 280 279 279 279 278 277 276 275 275 274 274
296 298 298 299 297 290 286 286 287 278 278 279 278 278 278 277 278 279 280 281 282 282 280 276 271 270 270 274 273 274 279 280 279 278 279 280 281 281 280 280 279 279 278 278 277 276 276 276 276 276 275 275 273 272
297 296 297 297 294 285 283 283 287 282 279 279 280 276 276 275 276 277 277 278 278 276 272 270 269 271 272 273 276 276 278 282 280 276 275 276 277 277 277 277 276 276 276 275 275 275 274 273 273 273 273 273 272 270
290 289 290 290 285 285 284 283 283 283 282 280 282 280 277 277 274 272 273 276 272 271 270 271 271 273 275 275 276 276 275 276 275 276 274 273 275 275 275 275 274 274 272 272 271 271 270 270 270 271 270 270 270 270
284 288 280 283 280 280 279 281 283 284 280 280 280 279 273 270 270 271 274 269 269 270 272 272 272 272 272 272 273 274 275 274 274 273 272 272 270 270 271 272 271 269 270 269 269 268 268 269 269 269 268 268 268 268
285 282 277 278 274 273 272 280 274 278 274 275 275 272 270 269 273 275 267 270 269 272 273 273 274 273 272 272 273 273 273 272 271 270 270 269 269 269 268 268 269 268 267 267 268 267 265 266 265 265 265 265 265 265
282 273 269 268 271 266 269 270 275 273 272 271 271 268 271 270 271 267 265 267 269 271 271 271 271 271 270 270 268 268 270 271 270 269 270 268 266 265 266 266 266 265 265 265 264 263 263 262 262 263 262 262 261 261
273 271 270 268 268 267 265 268 266 268 266 268 268 267 265 269 264 263 264 266 267 267 267 270 269 268 267 267 268 268 269 269 267 265 265 268 267 266 265 264 264 264 265 263 261 261 261 260 260 260 260 259 260 259
268 269 271 271 270 268 269 269 266 262 264 262 265 265 262 261 259 260 265 266 266 266 265 266 267 266 265 265 265 265 265 267 266 263 263 264 264 263 262 261 261 261 263 261 261 260 260 260 259 259 259 259 255 256
268 266 270 274 273 270 264 263 266 263 261 262 263 259 258 254 256 264 268 268 266 265 266 265 267 266 265 264 264 264 264 264 263 262 263 262 262 262 261 259 258 260 262 259 259 259 259 258 258 258 257 258 258 256
273 269 263 263 264 266 260 259 259 261 263 267 261 254 252 254 259 264 267 267 266 266 265 264 263 263 262 262 261 262 262 261 261 261 262 261 260 259 257 257 257 258 256 256 258 258 259 258 258 258 258 257 257 257
264 264 266 258 260 262 262 259 260 264 265 262 255 256 259 262 263 265 266 267 267 265 262 261 259 258 259 260 258 257 258 259 259 255 254 255 255 258 256 256 256 255 254 256 257 261 261 259 258 256 255 255 255 255
263 264 262 257 258 259 258 258 256 256 263 262 264 263 262 262 263 265 264 264 262 259 256 254 253 256 255 256 256 257 256 254 255 256 255 255 256 257 255 254 254 254 252 253 254 255 255 254 255 253 253 253 254 255
263 261 261 261 260 258 257 254 254 255 254 256 255 254 256 259 261 262 261 259 257 255 256 256 255 252 255 254 254 254 255 255 251 253 254 254 254 254 254 253 253 251 251 252 252 252 253 253 251 251 252 252 251 251
258 255 259 259 261 260 261 259 253 254 252 254 254 251 253 253 252 257 257 256 256 255 252 251 253 255 253 252 250 251 250 253 254 254 253 254 256 255 254 253 251 251 252 251 251 251 250 251 251 251 250 250 250 250
254 252 254 258 259 259 261 261 260 258 255 254 254 253 251 254 253 256 257 253 255 255 253 253 254 252 251 251 253 252 250 252 250 253 255 255 252 252 253 252 251 251 252 252 251 250 251 251 251 250 250 249 249 249

GFSWCAN_sfc_thetae_063.txt.gz
Theta_e
301 302 302 302 301 302 303 303 302 302 303 302 303 303 303 304 303 301 303 309 304 296 298 300 301 297 296 298 295 299 297 300 300 294 293 293 294 293 293 297 296 294 294 294 295 293 290 305 303 299 306 310 310 310
300 301 301 301 301 302 302 302 302 302 302 303 303 303 303 303 303 303 302 308 308 302 299 305 306 306 303 302 300 300 299 299 300 296 298 298 297 298 295 292 302 295 300 297 299 299 307 306 307 309 311 311 312 311
300 300 301 301 301 302 302 302 302 302 303 303 303 303 304 303 302 304 303 306 305 298 300 301 299 307 308 308 311 300 304 304 303 306 301 300 295 299 295 295 297 302 305 301 302 304 306 307 309 310 311 311 312 312
300 300 300 301 302 302 302 302 302 302 302 303 303 303 302 303 304 304 302 305 303 299 293 296 306 302 307 309 309 310 307 308 307 307 303 301 298 300 298 298 297 299 301 300 300 302 304 308 309 310 311 311 310 310
300 300 300 300 301 301 302 302 302 302 302 302 302 302 302 303 303 304 304 307 306 298 293 296 301 302 303 303 306 308 308 306 304 302 299 297 299 298 301 301 298 300 299 300 299 304 306 307 310 313 311 311 310 309
299 300 300 300 300 300 300 300 300 300 301 301 301 302 302 302 303 301 293 303 306 305 298 291 301 300 301 301 303 305 306 306 306 303 302 301 303 302 298 296 301 302 303 305 303 307 308 310 307 308 310 311 311 309
299 299 299 299 300 300 300 300 300 300 301 301 301 301 302 302 302 297 295 300 303 306 297 291 292 299 301 299 299 304 305 305 305 303 302 302 302 303 302 295 300 303 305 305 308 308 306 308 306 307 307 309 307 309
299 299 299 299 299 300 299 299 300 300 300 300 300 300 300 301 301 298 302 302 305 301 299 290 290 295 301 295 294 305 301 303 302 301 303 301 303 303 296 300 302 303 304 305 307 309 308 309 306 305 305 305 303 304
298 298 298 298 299 299 299 299 299 300 299 299 299 299 300 298 296 298 301 302 308 301 291 288 288 288 303 299 298 301 301 295 302 299 300 301 299 295 298 300 301 303 304 304 307 308 308 304 305 304 302 301 302 301
298 298 298 298 298 299 299 299 299 299 299 298 299 296 291 297 300 300 299 296 297 299 297 289 296 292 294 295 295 293 300 295 290 296 303 297 297 302 302 301 305 306 305 307 303 302 302 302 303 301 300 301 301 299
298 299 299 298 298 299 299 299 299 299 299 300 296 291 299 300 299 295 288 289 289 286 293 294 295 292 295 287 292 298 293 292 288 293 293 290 292 293 297 299 301 303 303 304 303 302 302 302 302 300 299 299 298 297
300 298 299 299 298 298 298 299 299 301 299 298 299 300 299 296 290 286 285 289 288 287 294 293 292 291 289 287 292 291 291 290 287 293 287 285 286 290 292 293 293 296 298 299 299 299 299 299 298 295 292 287 285 284
299 298 299 298 298 299 299 298 299 298 301 303 298 292 290 289 283 283 280 285 287 293 294 294 289 292 291 295 292 292 288 287 292 286 284 284 287 288 288 289 288 288 288 288 287 289 287 285 285 284 283 283 282 280
298 298 299 298 298 298 298 298 298 299 302 291 288 283 285 283 284 283 282 287 288 290 292 296 291 292 291 291 289 287 287 289 285 284 282 284 285 286 285 285 284 282 283 282 281 282 282 282 282 283 283 283 282 280
299 299 299 298 298 298 297 297 298 301 294 285 286 278 281 284 284 284 283 286 286 289 294 292 290 292 287 287 287 286 285 283 282 281 283 284 285 284 283 282 282 281 281 281 282 282 282 282 281 281 282 282 281 280
299 299 298 298 298 297 298 298 299 298 292 285 281 279 281 283 281 281 280 281 284 284 293 292 286 288 285 287 284 281 282 277 280 283 284 284 283 283 283 283 283 284 283 283 283 282 282 281 280 280 281 281 280 279
299 297 298 298 298 297 297 295 292 285 283 281 279 280 279 280 278 278 282 281 284 285 285 287 282 280 288 282 278 279 277 279 282 283 284 284 283 283 283 283 283 282 282 282 282 282 281 281 281 280 278 278 278 278
297 299 298 298 299 297 294 293 287 283 278 279 277 278 278 278 277 279 280 282 284 284 282 278 282 277 275 274 274 277 280 282 281 281 281 281 282 282 283 282 282 282 281 281 281 281 280 279 278 278 278 278 278 278
298 298 298 298 298 293 289 288 288 279 279 280 279 279 280 278 279 280 281 282 282 282 280 277 272 270 271 274 274 277 280 281 279 279 278 279 280 280 280 280 280 279 279 279 278 278 279 279 279 279 279 279 278 278
298 297 296 296 296 292 287 287 290 283 279 280 281 278 278 277 278 279 278 279 278 276 273 271 270 271 272 274 277 277 280 282 279 276 275 276 277 277 277 278 277 277 277 277 277 278 277 277 277 277 277 277 276 274
295 292 293 296 295 292 287 286 285 285 284 283 285 283 280 281 278 278 277 278 274 272 270 273 273 274 275 276 277 277 276 277 276 276 275 274 276 276 275 275 276 276 275 274 274 274 274 274 274 275 275 274 274 274
293 290 296 294 290 289 288 289 287 289 286 284 283 283 280 278 276 276 277 273 272 273 274 274 274 275 274 273 274 275 275 275 275 274 273 274 272 273 273 273 273 272 272 272 272 271 271 272 273 273 273 273 273 271
291 293 291 290 286 286 282 291 284 284 280 281 282 278 278 277 277 280 273 273 273 276 277 276 275 275 274 275 274 274 274 274 272 272 272 271 271 271 271 271 272 271 270 270 271 271 270 270 270 271 271 271 271 270
290 284 282 282 284 279 285 281 284 282 282 279 277 274 275 277 279 275 270 271 273 275 275 276 277 275 274 273 272 272 273 273 272 272 272 271 269 269 270 270 271 271 271 271 271 270 270 269 269 269 269 268 268 268
280 277 281 278 282 280 278 278 278 279 275 277 274 274 274 279 273 271 269 271 272 272 274 274 274 274 272 271 271 271 272 272 271 270 272 274 272 271 270 269 268 269 271 270 269 269 268 268 268 268 267 265 265 266
274 276 277 278 277 277 277 275 274 275 275 274 273 275 277 274 269 268 270 272 271 272 272 273 273 271 270 271 270 269 270 273 272 269 269 270 271 271 269 269 267 266 269 269 269 268 267 267 266 266 266 266 264 265
274 275 277 280 280 279 277 278 278 275 272 271 273 272 272 267 266 268 271 272 271 272 273 274 273 272 270 270 270 270 270 270 269 268 269 268 268 268 268 266 264 265 268 268 267 267 266 265 265 265 265 265 265 265
277 276 271 274 274 276 272 272 272 271 271 273 274 267 266 267 267 271 271 272 272 272 271 271 271 271 271 271 271 272 270 269 269 269 269 269 268 268 267 266 265 265 266 265 267 266 265 265 264 264 263 263 263 264
275 277 274 267 271 271 270 270 270 270 271 273 271 268 266 268 272 271 272 272 273 272 270 269 270 271 270 270 269 269 269 270 268 265 264 265 266 265 267 266 266 266 267 267 264 265 264 264 263 263 263 264 265 265
274 278 272 269 268 268 269 271 269 270 271 271 270 268 267 268 269 273 273 272 272 270 270 270 271 271 269 269 267 266 267 267 266 267 266 264 264 265 266 265 265 265 265 266 265 265 262 264 264 265 263 263 263 262
278 277 273 271 269 270 270 271 271 271 271 270 271 269 267 268 269 270 270 270 270 270 270 268 268 269 268 267 268 267 265 265 263 263 265 265 265 265 264 264 265 265 265 264 264 264 262 263 264 262 262 261 260 260
275 274 271 268 268 270 272 273 273 271 271 271 268 269 268 269 267 268 270 270 270 269 265 269 268 267 266 266 266 264 262 265 265 264 262 265 265 264 265 265 265 265 264 263 263 263 261 261 262 261 261 260 259 259
274 274 273 271 269 268 271 272 271 269 271 269 269 270 269 269 266 268 269 270 270 270 269 269 269 267 265 264 265 265 263 265 261 261 261 260 259 261 262 265 264 264 262 262 263 262 261 260 260 260 260 259 259 258

GFSWCAN_sfc_thetae_066.txt.gz
Theta_e
301 301 300 300 301 302 302 303 303 303 303 302 302 302 303 303 303 301 301 305 303 296 297 299 300 297 297 297 293 297 296 297 298 293 292 291 291 292 290 293 294 292 292 291 293 289 287 306 304 297 303 309 311 310
301 301 302 302 302 302 302 303 303 302 302 302 303 303 303 304 303 303 298 305 309 301 298 304 304 305 305 302 300 299 297 298 299 296 296 297 296 297 293 286 298 291 297 295 297 296 307 306 306 309 312 312 311 312
301 300 302 302 302 302 302 302 302 302 302 302 303 303 303 303 304 303 300 303 304 298 298 300 300 306 309 307 310 299 302 302 302 306 300 299 295 298 293 294 294 301 304 298 297 303 305 308 308 310 310 310 312 312
300 300 301 301 302 302 302 302 302 302 302 302 302 303 303 303 303 304 301 305 303 299 290 294 305 303 308 308 307 307 305 307 305 307 302 301 296 302 297 298 296 299 302 300 299 303 304 305 306 309 310 312 312 311
300 300 300 301 301 302 302 302 302 302 302 302 303 303 303 303 303 303 304 306 309 298 290 294 302 303 305 306 304 305 305 304 302 298 301 297 300 301 301 300 297 300 298 297 298 304 306 306 309 310 309 310 312 310
300 300 300 300 301 301 301 302 302 302 302 302 302 302 302 302 302 300 293 302 306 305 295 290 301 300 302 303 302 301 302 303 304 299 299 301 304 300 297 293 299 301 302 302 300 307 307 310 310 310 307 309 311 310
299 300 300 300 300 300 300 300 302 302 301 301 302 302 301 302 302 297 294 300 304 307 296 291 292 299 301 301 301 300 302 300 301 298 300 299 300 299 296 293 299 302 303 304 307 306 305 308 307 308 307 308 309 310
299 299 299 299 300 300 300 300 301 301 300 301 301 301 301 302 302 298 302 303 304 300 297 289 289 294 301 296 295 302 299 300 301 300 302 300 302 303 295 299 301 303 303 303 304 306 307 310 309 307 306 306 305 305
298 299 299 299 300 300 300 300 300 300 300 300 301 301 301 300 296 297 301 303 310 301 290 289 287 287 300 296 298 300 301 293 300 297 297 299 298 293 298 299 301 303 303 304 306 307 306 306 305 305 304 303 302 302
298 298 299 299 299 299 299 299 299 300 300 300 301 296 291 296 300 300 300 295 295 296 296 290 294 290 296 293 294 293 295 292 289 294 299 294 294 298 295 299 300 302 303 304 302 302 303 303 303 303 301 302 302 301
299 298 299 299 299 298 298 299 299 299 299 300 294 291 299 300 300 295 289 289 290 287 292 292 293 291 296 288 287 290 285 289 287 292 292 291 291 288 291 293 294 296 299 301 302 302 302 301 301 300 294 289 288 288
299 299 299 298 298 298 299 299 300 301 300 298 297 299 299 295 290 286 286 289 287 285 292 292 293 294 290 295 290 290 287 288 285 295 290 285 284 287 287 288 288 290 292 291 293 293 292 291 290 288 286 284 283 282
299 299 299 298 298 298 298 299 299 300 301 303 297 290 291 289 283 282 279 283 286 292 293 293 288 292 292 293 288 287 285 286 291 286 281 281 284 286 285 285 284 284 285 284 284 285 284 284 283 282 280 280 280 279
298 298 298 298 298 298 298 298 299 300 300 292 287 282 284 282 282 281 281 282 285 286 289 294 291 290 290 287 286 284 285 285 285 283 279 282 283 283 283 283 282 281 281 281 281 281 281 281 281 281 281 280 279 278
298 298 298 298 298 298 298 298 299 300 293 285 286 278 280 283 284 283 284 284 284 284 287 291 289 290 286 285 285 285 284 280 280 278 281 283 284 283 282 283 283 282 282 282 282 281 281 281 280 279 280 280 279 278
299 298 297 297 297 297 298 299 298 297 291 283 280 279 280 281 279 281 281 281 283 282 284 289 286 286 284 285 282 278 279 274 277 280 282 283 282 283 283 283 283 283 282 282 281 281 281 280 279 279 280 279 279 278
299 297 297 298 297 297 297 297 292 285 283 281 279 281 279 279 277 280 281 281 283 282 284 287 280 279 286 280 276 277 275 277 279 280 281 282 282 282 282 282 282 282 281 281 281 281 280 280 280 278 277 277 278 277
297 298 298 298 299 297 294 292 287 283 277 279 278 278 279 279 278 279 282 282 283 284 283 278 282 276 273 273 272 276 280 279 279 278 279 280 280 280 281 281 281 281 280 280 280 280 279 278 278 277 278 278 278 278
299 299 297 298 297 295 289 288 288 279 279 280 279 280 279 279 279 280 281 281 282 283 281 277 272 270 271 274 274 276 279 278 276 276 276 277 278 278 278 278 278 278 278 278 277 277 277 278 278 278 278 278 276 278
297 296 296 296 297 292 286 286 290 282 279 280 281 278 278 277 278 278 278 279 278 276 273 270 269 271 272 274 276 276 279 280 277 275 274 275 276 276 277 277 276 276 276 276 276 276 275 275 275 275 275 275 273 273
295 295 295 295 295 291 288 287 285 285 284 283 283 281 279 280 276 275 275 278 274 272 270 273 272 274 275 276 277 276 275 276 275 275 273 273 275 275 274 274 275 274 273 273 272 272 273 273 274 274 272 271 272 274
294 292 296 295 290 289 288 291 288 289 286 284 283 283 279 277 277 276 277 273 272 272 273 273 274 273 273 273 274 275 275 274 274 273 273 273 271 272 272 272 272 270 271 271 271 270 270 272 273 273 273 272 271 270
291 294 292 291 285 285 283 291 284 285 281 281 282 278 278 277 278 280 273 273 273 277 276 275 275 275 274 275 274 274 275 274 272 272 272 272 272 272 272 272 272 271 270 271 272 271 270 270 270 270 271 271 270 270
291 286 283 283 284 280 285 282 284 282 281 279 277 274 275 277 279 274 270 271 274 276 275 277 277 274 273 272 271 272 273 274 273 272 272 271 269 269 270 271 271 272 271 271 271 270 270 270 269 268 267 268 267 267
281 277 282 278 284 281 279 279 279 278 275 277 275 274 275 279 273 271 270 271 272 274 274 275 275 274 271 271 271 271 273 272 270 269 272 274 272 270 269 269 268 269 271 270 269 268 268 268 268 267 266 265 265 265
274 277 277 278 278 278 278 275 276 276 276 274 274 276 278 275 271 268 270 272 271 272 273 274 272 271 270 271 269 269 270 273 271 267 268 269 270 270 269 268 266 266 269 269 269 267 266 266 266 266 266 264 262 264
275 275 278 282 281 280 278 278 279 276 273 272 274 274 274 269 267 269 272 273 271 272 274 274 273 272 270 270 270 270 270 270 269 268 269 269 268 268 267 265 263 265 268 268 267 267 266 265 265 265 265 264 264 264
277 277 272 275 274 277 273 273 272 271 272 273 275 268 268 268 267 271 271 273 273 273 272 272 272 272 271 271 272 272 271 270 269 270 269 269 268 268 267 266 266 266 265 265 266 265 265 264 264 264 263 263 263 265
276 277 274 268 272 271 271 271 271 271 272 274 272 268 267 270 272 271 272 273 274 273 271 270 270 272 271 270 270 270 270 270 268 265 265 266 265 265 267 267 266 266 267 267 265 265 264 264 262 263 264 264 264 265
275 279 272 270 269 267 269 272 270 273 273 272 270 269 268 269 271 274 274 274 272 271 271 271 272 272 270 269 267 266 267 266 266 266 266 264 264 266 266 266 266 266 266 266 265 265 264 265 265 265 263 263 262 261
279 278 273 272 269 270 271 272 273 273 273 272 273 270 267 268 270 272 272 272 271 271 270 269 269 270 269 268 268 267 265 265 263 264 266 266 266 265 264 265 265 265 265 265 264 264 262 263 264 263 262 261 260 260
277 274 271 268 269 271 274 275 274 272 272 271 269 269 269 270 267 269 271 272 271 270 266 270 269 267 267 267 266 265 263 265 265 264 265 265 265 265 265 265 265 265 264 263 264 263 262 261 261 262 261 261 260 259
275 275 274 272 270 270 272 273 272 270 272 270 270 271 270 270 267 268 270 272 271 271 270 270 269 267 266 266 266 265 264 264 261 263 261 261 259 260 261 265 264 264 263 263 263 263 262 261 261 260 260 259 259 259

GFSWCAN_sfc_thetae_069.txt.gz
Theta_e
301 301 301 302 302 302 302 302 302 302 303 303 303 303 303 302 303 300 297 301 298 294 295 299 298 294 294 293 288 291 291 291 289 287 286 284 280 289 287 292 289 287 286 285 286 285 284 302 300 294 297 301 303 302
301 301 301 302 302 302 302 302 303 302 302 302 302 303 303 302 303 302 294 302 305 298 296 302 301 302 300 299 296 294 291 293 293 290 291 289 284 283 287 280 296 287 293 290 292 289 300 303 302 304 306 304 304 304
300 301 301 302 302 302 302 302 302 303 302 302 302 302 302 303 303 301 298 301 301 296 294 295 295 303 306 304 303 294 293 299 297 301 296 292 285 289 282 285 287 296 300 294 295 298 300 303 306 306 307 306 306 305
300 300 301 302 302 302 301 301 301 302 302 302 302 302 302 303 303 302 300 302 301 296 287 292 303 300 308 306 304 303 302 302 300 299 295 291 284 294 287 291 290 296 300 297 295 300 301 302 304 304 306 307 307 307
300 300 301 302 302 302 301 301 301 302 302 302 302 302 303 303 303 302 302 303 303 295 286 292 300 302 305 303 302 303 301 298 294 293 291 290 293 292 292 292 290 296 295 293 291 300 299 301 304 305 304 305 306 306
300 300 301 301 301 302 301 302 302 302 302 302 303 303 303 303 303 300 293 300 304 304 294 286 297 297 299 300 300 300 299 298 296 292 290 296 298 295 282 284 295 297 298 298 295 300 303 305 306 305 303 304 305 305
299 300 301 301 301 301 301 301 302 302 302 302 302 302 302 302 301 295 291 296 303 302 293 286 287 296 299 298 296 296 298 296 295 297 293 296 296 295 282 284 295 298 300 301 301 303 300 301 301 303 304 304 304 304
299 300 300 300 301 301 301 301 301 302 302 302 302 302 302 302 301 296 299 303 303 298 296 283 285 290 298 290 289 295 292 293 294 294 294 294 296 291 284 293 296 299 302 301 302 302 300 305 304 302 302 302 300 300
299 299 299 300 300 300 300 301 301 301 302 301 301 302 300 299 293 295 301 302 303 297 286 284 281 280 296 291 291 291 293 282 295 289 291 295 290 287 291 292 293 294 296 299 302 301 302 301 301 300 300 299 297 296
299 299 299 299 299 299 299 300 301 301 301 301 300 294 288 294 301 300 298 292 292 292 292 284 288 284 292 289 285 285 284 284 284 287 294 287 286 289 290 291 291 292 293 294 296 296 297 297 295 292 290 291 290 287
299 299 299 299 299 299 299 299 299 300 300 297 291 290 296 300 297 292 284 285 287 283 287 287 288 285 291 286 285 287 285 285 279 283 286 285 282 285 287 288 288 290 291 291 291 291 291 293 290 287 285 284 283 281
299 298 298 298 298 299 299 300 301 298 296 296 295 297 296 292 288 283 282 284 283 282 286 284 285 288 284 291 286 286 284 284 280 287 282 280 281 284 284 284 284 286 287 287 287 286 286 285 284 282 281 280 279 279
298 298 298 298 298 299 299 299 299 299 301 299 296 288 288 284 281 278 278 278 280 284 287 285 286 284 287 289 284 286 282 284 288 283 278 278 281 282 282 282 282 283 283 282 282 282 281 281 281 280 278 279 278 278
298 298 298 298 298 298 299 299 299 299 296 288 284 275 278 276 278 276 278 280 283 284 282 285 281 285 286 284 284 283 285 285 281 277 274 278 280 281 281 282 281 280 281 280 280 280 279 279 278 278 278 278 277 276
298 298 298 297 298 298 298 299 299 293 287 278 279 275 275 280 280 281 282 282 282 283 283 286 287 288 285 284 284 283 282 275 274 273 277 279 281 281 281 281 281 280 280 279 279 278 277 277 277 276 277 277 277 276
298 298 296 298 297 298 298 297 293 291 284 278 276 273 275 273 270 277 278 279 282 281 282 284 285 283 282 279 277 274 274 270 272 276 278 280 280 280 280 280 280 280 279 278 278 278 277 277 276 276 277 277 276 276
299 294 297 298 298 297 297 292 287 281 279 279 275 275 275 275 275 277 279 279 282 281 281 283 275 277 282 276 273 275 271 273 275 276 277 277 279 279 279 279 279 278 278 278 278 278 278 278 278 277 275 276 277 276
294 296 298 298 298 295 292 289 282 280 276 277 274 273 276 274 275 276 278 280 281 282 278 275 278 271 269 270 269 273 275 274 275 275 276 276 277 277 277 276 277 278 277 278 278 278 278 277 276 276 277 277 276 275
296 296 297 297 295 291 285 285 285 277 277 278 278 278 278 276 277 277 278 279 279 279 278 272 267 267 267 271 271 272 276 275 273 273 274 275 276 275 275 276 276 275 275 275 275 274 274 274 274 274 274 274 274 274
297 297 296 296 296 288 284 284 288 281 278 277 279 276 275 275 276 276 275 276 276 273 269 267 267 269 270 272 273 273 277 276 274 272 271 273 274 274 273 274 273 274 273 273 273 273 273 272 272 272 272 272 270 270
295 295 295 295 291 289 285 284 283 282 280 280 280 280 276 277 273 272 273 275 271 270 269 270 269 272 273 273 274 273 272 273 272 272 271 270 272 272 271 272 272 271 270 270 270 270 271 270 270 270 269 268 270 269
292 294 290 291 285 285 283 286 285 285 282 281 279 279 276 273 272 272 274 271 269 270 272 271 271 271 271 271 272 273 272 273 272 272 271 272 270 270 270 270 270 269 269 269 269 268 269 270 270 270 268 267 267 267
293 291 285 285 280 279 277 285 277 281 274 275 277 273 271 270 274 276 268 271 272 274 273 272 272 273 272 273 273 273 273 272 271 270 271 270 271 271 270 270 270 269 268 269 270 268 267 267 266 266 266 266 266 264
290 283 278 278 278 276 278 275 281 279 276 274 272 269 271 272 275 268 267 269 272 274 274 274 273 271 271 271 269 270 272 273 271 271 271 269 267 267 268 268 269 270 269 269 268 267 266 264 263 263 261 259 259 259
273 273 275 271 277 273 271 275 272 273 268 271 268 267 269 274 266 266 267 269 269 272 270 272 272 271 269 269 269 270 271 271 269 267 268 271 268 268 266 266 266 267 268 265 262 261 261 260 260 259 259 257 259 256
269 272 273 276 274 274 275 271 268 271 270 267 269 273 270 266 262 263 268 267 266 269 270 269 268 268 268 268 267 267 268 270 268 265 266 267 266 267 265 263 262 263 266 264 261 259 259 259 258 259 255 257 255 253
269 269 276 280 278 278 272 274 274 268 265 266 270 267 265 259 259 265 269 270 268 270 271 272 272 270 268 268 268 268 268 268 267 266 267 266 265 264 261 257 257 260 264 260 259 256 254 253 253 254 252 252 252 253
273 273 266 270 270 273 265 265 263 262 264 270 268 259 258 260 261 268 268 269 268 271 270 270 269 269 268 268 269 268 265 264 264 264 265 265 264 263 260 258 259 264 256 255 255 255 254 252 252 252 252 254 254 254
270 272 269 263 265 266 267 266 265 267 269 269 262 261 262 268 268 267 268 269 270 269 268 267 266 266 267 266 265 264 262 262 258 256 258 257 256 257 258 258 256 257 260 258 262 256 256 254 253 252 252 253 252 252
270 273 266 264 262 262 266 267 268 266 268 266 267 267 266 265 269 270 270 271 270 267 266 266 268 266 264 258 255 256 258 257 257 257 258 255 255 256 255 256 257 256 255 254 254 257 259 255 258 255 253 251 250 249
275 271 267 266 263 263 264 265 265 267 265 266 266 261 261 261 262 264 264 263 263 261 261 260 264 263 260 259 259 257 255 254 254 255 256 255 255 254 253 254 254 254 256 253 252 252 251 251 251 252 251 250 250 249
271 267 264 261 263 267 270 270 268 263 267 262 259 260 261 263 259 262 262 264 264 263 262 265 262 257 256 256 254 254 256 255 254 254 254 256 253 252 256 256 254 255 253 252 253 252 252 251 250 250 250 249 249 249
269 269 266 264 262 263 264 268 265 263 264 263 263 263 261 261 259 261 262 263 266 267 264 261 258 256 256 259 256 254 256 253 255 260 257 256 254 254 251 254 253 251 253 252 252 252 252 253 251 250 250 249 249 248

GFSWCAN_sfc_thetae_072.txt.gz
Theta_e
301 301 301 301 301 302 302 303 303 303 303 302 303 302 302 302 303 301 297 299 294 287 294 295 296 291 292 291 285 288 289 288 287 282 282 281 279 285 286 290 289 288 285 284 283 280 281 300 299 293 296 300 301 301
300 301 301 301 301 302 302 302 302 302 302 302 302 302 302 303 303 302 295 299 300 294 294 299 298 300 298 297 293 291 289 289 290 286 286 285 280 280 284 282 294 286 289 287 288 287 297 302 302 303 303 301 302 303
301 301 301 302 302 302 302 301 301 302 302 302 302 303 303 303 303 302 296 298 297 292 294 294 295 302 305 303 301 290 291 296 294 295 291 289 282 286 279 282 286 292 297 291 291 295 299 301 304 305 305 303 305 304
300 301 301 302 302 301 301 301 302 302 302 302 303 303 303 303 303 301 297 298 297 292 286 290 302 300 306 304 303 300 299 300 298 295 289 287 287 292 284 288 286 289 295 293 292 296 300 301 304 304 306 305 304 305
300 301 301 302 302 301 301 301 301 302 302 302 302 303 303 303 303 300 298 300 301 293 287 290 297 300 302 303 301 302 300 297 293 289 286 286 291 291 291 290 287 295 294 290 289 299 298 299 302 306 303 301 304 305
300 300 301 301 301 301 302 301 301 301 302 302 302 302 302 302 302 299 293 299 304 302 290 284 296 295 299 300 300 300 299 297 297 291 287 291 297 294 287 284 291 295 296 298 294 297 300 301 302 303 300 302 304 303
300 300 301 301 301 301 301 301 301 301 302 302 302 302 302 301 300 294 291 298 303 301 291 287 287 296 299 299 296 297 298 295 294 293 289 291 294 295 286 284 292 294 299 299 300 298 297 300 300 303 303 303 302 302
300 300 301 301 301 301 301 301 301 302 302 302 302 302 302 302 301 297 300 302 302 296 293 283 287 289 296 290 290 295 290 291 291 290 290 291 293 292 286 291 292 292 294 295 295 300 298 302 301 300 301 300 298 294
299 299 299 299 300 301 301 301 301 301 302 301 301 302 300 298 294 295 303 303 302 294 283 282 280 284 294 290 289 290 290 281 289 283 287 291 289 284 285 287 289 290 289 290 295 298 299 298 297 297 298 296 291 286
298 298 299 298 298 298 299 300 301 301 301 301 299 293 289 294 300 301 297 292 291 290 289 282 287 285 291 288 286 283 283 280 280 284 290 286 283 286 286 287 287 289 289 290 290 290 291 292 290 289 287 286 285 283
299 299 298 299 299 299 300 299 299 300 300 293 291 289 295 299 295 290 283 283 285 282 286 286 288 286 289 285 286 287 284 284 276 282 283 284 279 282 284 284 285 286 288 288 288 287 286 287 286 283 281 281 281 280
299 299 299 299 299 299 299 300 300 296 293 293 293 295 293 290 285 280 277 281 282 282 285 283 286 286 283 290 286 286 284 283 277 285 279 276 278 281 282 282 282 284 284 284 284 283 283 282 282 280 279 279 278 278
298 298 298 298 299 299 299 299 300 300 300 295 291 285 285 280 274 273 273 278 280 282 283 286 281 281 285 288 284 285 283 282 287 279 274 275 279 281 281 281 280 281 281 280 279 280 279 279 279 278 277 277 277 277
298 298 298 298 298 299 298 297 297 295 292 284 280 273 273 272 274 275 277 278 282 282 281 283 283 285 285 284 284 283 284 282 276 271 271 276 279 280 280 281 279 278 278 277 277 277 276 276 276 276 276 276 276 275
298 298 298 297 298 298 297 296 296 290 284 278 277 271 272 276 275 279 280 280 282 282 282 285 285 287 284 283 280 280 275 270 272 270 275 277 279 279 279 279 278 277 277 276 277 276 276 276 276 275 276 276 276 275
299 297 295 298 298 298 297 293 288 287 280 275 274 270 273 268 267 271 277 278 281 280 282 283 284 281 278 275 273 271 271 268 270 273 275 279 277 277 278 278 278 278 277 276 276 276 276 275 275 275 275 275 275 275
297 291 297 298 298 297 296 288 283 279 276 275 271 269 267 263 265 270 277 277 281 279 278 280 273 273 279 273 271 273 268 270 273 274 275 276 276 277 277 278 277 277 277 277 276 277 276 277 276 275 273 274 275 274
292 294 298 298 297 293 289 285 280 278 274 274 269 273 272 270 270 272 277 277 277 277 277 273 276 269 265 266 266 271 272 273 274 274 274 275 275 275 276 275 275 275 274 274 275 275 275 275 275 274 274 274 274 273
294 295 297 297 295 288 282 282 282 274 275 276 275 275 273 274 276 276 276 277 277 277 275 270 265 265 265 269 269 271 273 273 271 271 272 272 274 274 273 273 273 273 273 273 272 272 272 273 273 273 274 273 271 271
297 297 296 296 295 286 282 282 285 278 276 275 276 273 273 272 274 274 274 275 275 272 268 265 265 267 268 270 271 274 273 274 272 269 269 270 272 271 271 271 271 272 272 272 272 272 271 270 270 271 270 270 269 267
294 293 294 293 289 288 283 281 281 280 278 278 278 278 273 275 272 271 271 274 270 269 266 268 268 271 272 272 273 272 271 272 271 271 269 268 271 271 270 270 271 270 269 269 269 269 269 268 268 268 268 266 266 266
289 293 287 287 283 283 282 283 281 281 278 277 276 277 269 266 265 269 273 269 268 269 270 270 270 270 270 270 271 271 271 272 271 271 271 271 269 269 269 269 269 268 268 268 268 266 267 268 268 266 265 264 265 264
290 288 282 281 277 276 275 282 277 281 275 275 274 272 270 266 270 274 265 270 270 271 269 270 270 270 271 271 272 271 272 271 269 269 269 269 269 269 269 269 269 268 267 267 268 266 264 264 264 264 264 263 262 260
287 279 275 274 276 270 273 273 279 276 273 271 270 266 271 270 271 265 264 268 271 273 271 269 270 269 269 270 268 269 270 271 270 269 269 268 267 266 267 267 268 268 267 267 266 264 262 259 259 260 258 257 256 255
272 271 272 268 273 271 267 266 268 270 263 266 264 264 268 270 262 262 263 267 268 267 268 271 271 270 267 266 268 268 270 269 267 265 267 269 267 266 265 265 265 265 266 262 260 259 255 256 256 256 255 254 256 252
266 271 269 272 268 270 271 266 264 264 264 264 266 268 264 261 257 259 265 264 263 266 265 265 267 266 266 267 266 266 267 269 267 264 264 265 267 263 260 259 260 262 263 257 256 255 255 253 253 254 251 252 251 253
264 263 273 277 275 275 268 268 270 265 262 262 263 260 258 254 255 263 268 267 267 267 270 271 270 268 266 266 267 267 267 267 265 264 265 264 264 263 260 256 256 259 259 257 253 253 252 250 249 248 248 247 247 248
270 270 263 264 264 267 258 258 257 257 259 268 264 255 254 255 259 265 265 267 265 270 269 269 269 268 267 267 267 265 264 264 264 264 263 263 261 257 256 255 257 260 252 251 251 250 251 249 248 248 250 252 251 252
265 267 266 257 259 261 263 259 260 264 267 265 255 257 260 267 265 264 265 265 267 268 266 265 263 264 263 262 260 260 259 258 257 255 251 250 250 256 254 252 253 255 254 253 259 253 252 250 250 250 249 249 248 246
266 268 261 256 257 259 260 262 260 258 264 263 265 266 265 263 266 268 267 269 266 264 262 264 265 261 255 254 251 253 252 249 250 255 252 250 253 255 250 251 251 250 249 249 250 252 256 252 256 253 250 248 246 246
270 265 261 260 257 257 258 256 258 262 258 257 254 255 257 259 261 263 263 262 261 260 261 257 255 251 255 252 250 248 250 252 249 253 254 252 248 248 249 249 248 250 249 248 248 248 247 247 246 247 247 247 246 246
263 257 259 257 260 262 263 262 260 257 255 254 254 251 255 255 254 256 260 257 260 259 257 254 255 253 250 249 247 248 252 251 250 252 251 249 248 248 250 253 252 250 248 248 249 249 249 248 247 246 247 247 245 245
260 259 256 257 259 259 261 262 258 260 259 257 258 257 257 258 255 258 261 260 258 258 257 253 251 250 251 252 253 251 252 250 250 258 254 253 251 251 247 246 247 247 248 247 246 248 249 250 250 248 247 245 245 244

GFSWCAN_sfc_thetae_075.txt.gz
Theta_e
300 301 301 301 301 302 302 302 302 303 302 303 303 302 302 303 303 300 297 300 292 288 289 294 295 290 290 290 284 288 289 287 286 281 282 280 277 283 283 287 286 285 283 279 283 281 281 298 298 292 296 299 302 301
300 301 300 301 302 302 302 302 302 302 302 303 303 303 303 303 303 302 294 299 300 293 293 298 298 298 297 295 292 291 289 289 289 284 284 282 279 278 283 279 290 284 288 285 289 286 296 300 300 302 303 301 301 302
300 301 301 301 302 302 302 302 302 302 302 302 302 303 303 303 303 302 296 297 297 292 290 291 294 298 301 298 299 290 290 295 293 293 288 286 281 284 278 280 283 288 295 290 291 295 298 300 302 304 304 303 303 302
301 301 301 302 302 302 302 302 301 301 301 302 302 302 302 303 303 302 295 298 295 292 285 290 302 299 304 302 300 298 297 299 297 295 288 284 281 290 282 286 284 288 293 293 293 296 299 299 300 301 303 305 302 303
300 301 301 301 302 302 301 302 302 302 302 302 302 302 302 302 303 300 299 299 297 292 284 289 298 300 302 302 301 301 300 297 294 289 286 283 288 289 288 288 285 291 290 288 287 295 296 296 300 303 302 303 302 302
301 301 301 301 301 301 301 301 301 301 301 302 302 302 302 302 301 298 292 297 299 299 288 285 296 296 299 300 299 298 298 296 294 289 286 290 295 290 280 282 291 293 294 294 293 297 297 300 300 302 301 300 303 301
301 301 301 301 301 301 301 301 301 302 302 302 302 302 302 301 299 293 289 295 301 298 287 286 288 295 298 297 295 295 298 296 295 292 288 289 290 290 283 281 290 292 292 293 296 295 296 298 298 301 302 301 298 294
299 299 299 300 301 301 301 301 301 302 302 302 302 301 301 301 301 297 300 302 300 293 292 285 286 290 295 289 288 294 290 291 293 292 288 290 291 291 286 286 289 290 291 292 291 292 296 298 298 299 300 298 291 288
299 299 299 299 300 300 300 300 301 301 302 301 301 301 297 297 294 297 302 302 302 295 283 282 281 283 292 288 290 289 288 280 287 284 286 287 287 282 282 284 285 286 287 288 289 293 294 292 291 291 292 290 285 284
299 299 299 299 299 299 300 300 301 301 302 301 298 292 286 295 301 301 297 291 290 289 288 281 286 286 289 288 286 285 284 281 279 284 288 285 281 283 283 285 284 285 286 288 286 287 285 288 284 283 283 284 282 281
299 299 299 299 300 300 299 300 300 300 300 293 291 287 296 300 295 289 282 282 283 281 284 283 285 285 289 284 284 284 279 283 277 281 282 282 277 279 282 283 283 284 286 285 287 285 284 284 282 281 279 279 279 278
299 298 298 299 298 299 300 300 300 296 294 293 293 294 291 286 281 278 275 280 282 281 285 284 285 285 285 290 286 286 283 283 275 285 280 274 277 280 280 280 281 282 281 281 282 281 281 281 281 280 279 278 277 277
298 298 298 298 298 298 298 298 299 299 298 293 288 283 282 276 271 274 272 278 277 281 282 284 284 282 284 288 284 285 283 281 284 276 272 274 277 279 280 280 278 279 279 278 278 278 278 278 278 277 276 276 276 275
298 298 298 298 298 297 297 296 295 293 288 281 277 269 271 268 272 273 275 276 281 281 281 282 284 284 285 284 284 282 281 279 273 270 269 275 277 278 278 278 277 276 276 276 276 276 276 275 275 275 275 275 274 273
299 297 298 298 297 298 295 294 294 287 281 275 275 268 271 274 274 276 279 280 280 281 281 284 285 284 283 279 277 276 270 267 270 269 273 276 278 277 277 276 275 275 275 275 275 275 274 274 274 274 275 275 274 273
298 296 294 298 297 296 294 290 286 285 279 275 273 270 271 269 271 273 275 276 279 279 282 283 282 276 271 271 269 269 269 266 268 272 274 277 276 276 276 276 276 276 276 275 275 275 275 274 273 273 274 274 273 272
296 290 297 298 298 294 293 284 282 278 275 273 269 269 265 267 267 272 275 274 278 278 275 277 271 270 277 271 269 271 265 269 271 272 274 274 274 274 274 274 275 276 276 276 275 275 275 275 275 273 272 272 273 272
290 292 297 298 295 290 286 283 279 277 272 272 267 271 269 268 270 272 274 276 276 277 276 271 274 268 265 265 264 269 270 270 271 270 271 272 273 273 273 272 273 273 273 273 273 274 274 274 272 272 272 272 272 271
294 294 296 297 292 285 281 281 281 272 273 273 272 272 271 271 274 274 275 275 275 275 273 269 265 264 264 267 267 269 269 270 269 269 270 270 271 272 272 272 272 272 272 271 271 271 271 272 272 272 272 271 269 269
296 296 296 296 293 283 281 280 282 277 274 273 274 272 272 271 273 273 273 274 273 271 267 265 264 266 266 267 269 269 270 270 270 268 268 270 271 271 270 271 271 271 271 271 270 270 270 269 269 269 268 267 266 264
291 291 292 291 286 286 282 280 278 278 277 276 276 275 271 273 270 269 270 273 268 267 265 267 266 269 270 271 272 271 271 272 270 270 269 267 270 270 270 270 270 270 269 268 268 267 267 267 267 267 265 263 263 263
287 293 285 285 282 282 281 281 280 279 278 277 276 277 269 264 263 268 272 267 266 266 267 267 269 269 269 269 269 271 271 271 271 270 270 270 268 268 268 269 268 267 267 266 266 265 266 266 266 264 263 262 262 261
289 286 281 280 276 275 275 281 276 280 270 271 273 270 267 265 271 273 266 269 269 270 270 270 269 270 270 270 271 270 270 270 268 268 268 268 268 269 268 268 269 267 265 265 266 265 264 263 263 262 261 260 258 256
285 277 274 273 275 269 273 272 278 274 272 270 268 265 268 265 269 263 263 266 270 271 270 269 270 269 269 269 267 268 269 270 269 269 269 268 266 266 267 267 266 266 266 265 263 261 260 258 258 258 256 254 249 251
273 271 271 267 272 269 265 264 266 268 263 265 264 266 267 269 262 261 260 265 265 264 266 269 269 268 266 265 267 267 269 269 267 265 267 267 266 265 265 265 264 264 265 261 257 255 252 253 253 252 252 251 253 248
266 268 268 267 266 268 267 263 262 262 262 262 263 265 261 258 255 258 263 261 261 264 263 264 266 266 266 267 266 265 266 268 267 264 264 265 265 262 261 260 259 261 261 255 256 252 250 249 251 252 249 251 250 247
262 263 272 273 273 272 264 265 267 261 258 258 259 256 255 251 252 262 267 267 266 266 270 269 269 267 266 266 266 266 265 265 264 263 264 264 263 263 259 256 256 259 260 255 252 254 252 248 247 246 246 245 244 246
267 268 262 261 262 265 257 256 255 255 258 267 261 253 251 253 258 263 264 266 267 269 269 268 268 267 266 265 265 264 263 262 262 262 262 261 260 257 254 254 255 259 250 248 248 247 248 249 248 247 247 249 248 245
263 265 264 256 259 261 262 257 259 263 266 262 253 254 259 265 262 263 265 264 267 267 265 264 262 262 261 260 258 258 256 255 254 252 249 249 249 255 251 250 250 250 248 251 257 252 252 249 249 249 248 247 245 242
263 266 260 256 257 259 258 260 257 255 263 261 264 265 264 262 264 264 263 264 261 259 260 261 260 257 254 253 251 253 252 249 252 255 251 249 252 252 249 249 250 248 246 247 248 250 255 251 256 250 248 246 244 245
267 263 260 260 259 259 258 253 253 256 254 254 252 254 257 259 262 263 264 263 263 261 261 258 255 251 251 248 247 247 250 250 247 249 250 249 247 247 246 246 247 245 245 246 246 246 245 245 245 245 247 247 245 244
260 256 259 258 260 261 261 258 252 253 250 252 252 248 253 253 252 257 260 258 258 256 253 250 252 253 248 247 245 246 250 250 249 249 250 247 247 246 246 248 246 245 245 245 246 246 247 246 245 244 245 245 244 243
259 257 255 257 257 258 259 259 257 257 254 253 255 253 253 254 253 257 259 255 256 256 255 255 250 248 249 249 250 248 248 247 247 256 252 251 248 249 245 244 245 246 247 245 244 246 247 248 247 247 246 245 244 243

GFSWCAN_sfc_thetae_078.txt.gz
Theta_e
300 300 301 301 301 301 302 302 302 302 302 302 302 302 302 302 303 300 296 298 293 288 292 295 294 290 289 289 284 288 288 286 285 282 282 281 277 282 282 285 285 284 282 282 285 282 281 297 298 292 294 298 300 301
300 300 301 301 301 301 302 302 303 302 302 302 302 302 303 303 303 302 294 300 299 293 292 298 298 298 296 295 291 291 289 287 287 283 282 281 278 276 282 278 288 282 286 284 286 286 294 297 299 301 302 300 300 301
300 300 301 301 302 302 302 302 302 302 302 302 302 303 303 303 303 302 296 298 296 291 290 291 290 297 300 298 299 289 288 292 289 292 285 284 280 282 277 280 282 286 291 287 288 292 294 297 300 303 304 302 303 303
301 301 301 301 302 302 302 302 302 302 302 302 302 302 302 303 303 302 295 298 296 292 284 285 297 294 300 299 298 297 296 298 295 293 286 283 281 287 281 284 283 286 289 288 288 292 294 297 300 302 303 303 303 302
301 301 301 301 301 301 301 301 301 302 302 302 302 302 303 303 303 300 299 298 295 289 281 283 296 299 301 298 297 298 298 296 291 289 282 282 286 288 286 286 284 289 288 285 283 292 292 294 298 301 300 301 303 301
300 300 301 301 301 301 301 301 301 302 302 301 302 302 302 302 301 297 290 297 299 294 288 283 296 295 297 299 296 296 296 294 294 289 286 289 293 289 280 281 288 290 291 292 290 294 293 295 296 299 300 300 299 296
300 300 301 301 301 301 301 301 301 301 301 301 302 302 301 301 298 293 290 294 300 297 288 285 287 295 297 298 297 297 298 296 295 292 287 288 289 290 281 279 289 290 289 290 293 291 292 293 292 297 298 296 293 290
299 300 300 300 301 301 301 301 301 301 301 301 301 301 301 301 300 296 299 300 298 292 290 283 286 289 297 289 288 295 291 292 293 292 291 288 290 289 285 285 286 287 286 289 289 290 292 292 290 291 291 291 285 283
299 299 299 300 300 301 301 301 301 301 301 301 301 300 298 296 292 295 301 301 300 293 285 284 284 283 292 287 289 288 287 284 286 287 289 289 287 280 280 282 283 284 283 285 287 290 288 286 285 285 287 286 283 282
299 299 299 299 299 300 300 301 301 301 301 300 295 291 286 292 301 301 296 291 291 291 286 284 286 285 288 287 285 281 283 282 281 284 290 284 278 281 281 283 282 283 284 285 285 285 284 285 282 280 280 281 280 279
299 299 298 299 300 300 300 300 300 301 299 295 288 285 296 300 295 291 284 283 284 282 286 286 286 286 288 283 284 284 279 280 275 281 284 280 275 277 281 281 281 282 282 282 284 284 284 283 281 280 278 278 278 277
299 299 298 298 298 299 300 300 300 296 295 295 294 295 291 285 282 281 276 282 283 282 284 285 284 285 284 290 284 286 282 282 276 284 277 271 275 279 279 279 278 279 279 279 280 280 280 280 280 279 277 276 276 275
298 298 298 298 297 297 297 297 298 299 298 292 287 280 280 275 269 272 270 276 277 280 281 284 282 283 283 287 285 285 282 280 282 274 270 273 277 278 278 277 277 277 277 277 277 277 277 277 278 277 275 275 275 274
298 298 298 297 297 296 295 293 295 291 287 280 276 268 268 266 271 272 274 276 280 280 280 283 284 284 284 283 283 279 277 277 270 265 266 274 276 276 276 276 276 275 276 275 275 275 274 274 273 274 274 274 273 272
298 297 297 297 296 296 294 293 290 285 279 274 273 266 268 273 274 274 277 278 279 280 281 284 285 284 279 277 275 274 268 266 269 266 270 274 276 276 275 275 275 275 274 274 274 273 273 273 273 272 273 273 273 272
296 295 294 298 295 294 291 289 286 283 278 274 271 268 270 269 270 271 273 274 278 277 281 283 280 275 273 272 269 266 268 265 266 270 272 275 273 274 275 275 275 275 274 274 274 274 273 272 271 271 272 272 271 271
295 289 296 298 296 292 291 283 282 278 275 273 269 271 267 267 266 269 272 273 276 275 274 276 267 267 274 267 266 268 263 268 270 270 272 272 272 272 273 273 273 274 274 274 274 273 273 273 273 272 270 271 271 271
289 291 296 297 292 289 284 282 278 275 270 270 266 268 269 266 269 270 272 274 274 275 273 270 273 267 265 265 265 269 269 269 270 269 269 271 271 272 272 271 272 272 272 272 273 273 273 272 271 270 270 271 270 269
292 292 296 296 290 284 281 279 278 270 270 271 270 271 270 269 272 273 274 273 274 274 272 270 265 264 263 267 267 268 268 269 268 269 270 270 271 272 272 272 271 271 271 271 270 270 269 270 270 270 270 269 268 268
295 295 295 295 291 283 281 278 281 275 271 271 272 270 270 268 271 266 271 272 272 270 266 264 263 265 265 267 268 268 268 271 270 268 267 269 270 270 269 270 270 271 270 270 269 270 269 268 268 267 267 267 265 264
290 290 291 289 285 284 280 278 276 276 275 274 275 274 269 272 269 268 268 271 267 266 264 266 265 268 269 270 271 271 270 270 268 269 268 267 269 269 269 269 269 269 268 268 267 266 266 265 266 265 264 262 262 263
285 291 284 284 282 282 280 280 278 278 277 276 274 274 267 264 264 268 271 266 265 266 266 267 268 268 268 267 268 269 269 270 270 269 269 269 268 268 267 268 268 266 266 266 266 265 265 265 264 263 261 260 261 261
287 285 280 280 275 275 274 281 275 278 270 271 273 270 266 263 269 272 264 268 267 270 270 269 269 269 269 269 270 269 269 269 267 267 267 267 268 268 267 267 268 266 265 265 266 265 263 263 261 260 259 259 258 256
284 275 271 270 273 266 270 269 276 273 270 269 268 266 266 265 268 264 263 264 267 271 269 268 270 268 268 268 266 267 268 269 268 268 268 267 265 265 266 266 265 265 265 264 263 261 260 257 258 258 256 254 252 250
272 269 270 265 269 266 262 260 263 266 261 263 263 264 264 267 260 259 259 264 265 263 265 268 268 268 265 266 266 267 269 269 266 265 266 267 265 265 264 264 263 263 264 260 257 256 253 254 253 252 252 249 253 247
264 266 266 265 263 265 265 260 259 259 259 259 261 261 259 256 255 256 262 261 261 264 261 262 265 266 266 267 265 265 265 268 267 264 264 265 265 261 259 259 259 260 259 255 255 253 252 250 250 251 247 249 248 246
260 261 270 271 271 269 262 262 264 260 256 256 257 254 254 250 250 260 266 266 266 266 268 268 269 267 265 265 265 264 264 264 263 263 263 262 262 262 259 255 255 257 258 254 250 252 251 247 246 245 245 243 244 245
264 265 260 259 261 264 255 254 253 254 257 265 259 253 250 251 257 262 265 266 266 268 267 266 266 266 265 264 263 262 261 260 261 261 260 260 259 255 253 253 254 257 250 247 246 247 248 249 248 246 246 248 247 242
259 262 262 254 257 259 260 255 256 263 265 259 252 253 258 264 260 263 264 266 265 266 263 261 259 258 259 259 257 257 254 253 254 252 249 248 248 253 252 249 248 248 246 250 255 250 250 247 247 247 246 246 244 240
260 264 258 254 255 257 256 258 256 255 261 260 263 264 263 261 262 263 264 263 262 258 256 255 253 253 252 252 251 253 250 248 250 255 252 249 251 249 248 247 247 246 244 246 247 249 256 254 253 247 246 245 244 244
265 261 259 259 259 258 256 251 250 252 251 253 251 253 256 256 260 261 260 259 258 256 256 253 252 248 248 247 247 247 250 249 245 246 247 246 245 246 247 247 247 245 244 245 245 244 244 244 245 245 246 247 245 243
257 254 258 258 259 260 257 253 250 250 248 252 250 247 251 252 252 256 258 257 255 255 252 249 251 253 249 247 244 245 248 248 247 247 247 246 246 244 245 246 244 244 244 245 244 245 245 245 244 243 244 245 243 242
256 256 257 258 257 256 256 256 256 254 252 251 252 250 250 251 253 255 257 254 254 255 257 255 250 246 247 246 247 246 247 246 247 254 251 250 247 248 244 243 244 245 246 245 244 245 246 247 246 244 244 243 243 243

GFSWCAN_sfc_thetae_081.txt.gz
Theta_e
300 300 300 300 300 301 301 302 302 302 302 302 302 302 302 302 302 299 295 298 291 287 290 295 295 291 291 290 285 289 288 288 287 283 283 283 282 285 283 285 287 286 284 284 285 283 281 298 299 293 299 302 303 303
299 299 300 300 301 301 301 302 302 302 302 302 302 302 302 302 302 301 294 298 298 291 291 298 297 298 297 296 292 292 290 288 289 286 286 287 283 283 285 280 289 283 289 287 289 289 297 299 301 304 304 303 305 304
300 300 301 301 301 302 302 302 302 302 302 303 303 303 303 303 303 301 296 296 295 289 290 292 291 298 301 300 301 290 291 294 291 295 290 288 284 286 283 284 285 288 293 291 291 293 294 297 300 302 303 303 306 306
301 301 301 301 302 302 302 302 302 302 302 302 303 302 302 303 303 302 296 298 295 291 285 287 297 294 300 301 299 299 298 299 297 296 290 287 286 290 286 288 287 289 291 290 290 293 296 297 299 300 300 300 302 305
301 301 301 301 301 301 302 301 301 301 302 302 302 302 303 303 303 301 299 298 299 292 284 287 296 298 297 298 298 299 298 298 295 291 288 288 290 291 289 289 288 292 290 289 288 293 293 295 298 298 297 298 301 303
300 300 300 301 301 301 301 301 301 302 302 302 302 302 303 303 302 296 288 297 299 298 289 283 294 296 298 297 297 296 296 298 297 292 290 292 295 292 287 286 289 291 291 290 290 292 292 294 296 295 295 293 291 291
300 300 301 301 301 301 301 301 301 302 302 302 302 302 302 302 297 292 290 295 299 299 291 283 285 295 299 298 296 296 297 296 296 293 291 291 292 293 287 284 288 288 287 288 290 290 292 293 290 291 293 290 288 287
299 300 300 301 301 301 301 300 301 301 301 301 302 302 300 301 300 296 298 299 299 294 291 282 285 289 296 290 290 297 293 294 294 293 293 290 292 290 284 284 285 285 286 288 287 289 290 290 289 287 289 289 286 283
299 299 300 300 300 300 300 300 300 301 301 301 300 301 298 296 293 295 300 300 300 293 284 284 283 283 293 288 289 289 291 285 289 287 291 291 287 276 278 280 281 282 282 283 285 288 288 286 284 283 284 284 282 281
298 299 300 300 300 300 300 300 300 300 300 299 296 292 286 294 301 300 295 291 290 291 288 283 288 285 291 285 285 286 285 284 282 286 290 282 277 280 280 281 281 281 282 283 281 283 283 283 281 280 280 280 280 279
299 298 299 299 300 300 300 300 300 300 299 295 288 286 296 300 294 289 284 285 285 283 285 286 286 286 289 285 285 286 283 284 280 284 284 278 274 277 280 279 279 280 280 281 281 282 282 282 280 280 279 279 278 277
299 299 298 297 298 299 300 299 299 297 294 295 293 294 290 284 282 281 281 284 283 281 283 285 285 287 287 289 286 287 283 284 279 283 277 271 275 277 278 277 278 278 278 278 279 279 279 279 280 278 277 276 276 275
298 298 298 297 296 296 298 300 300 299 296 291 286 280 280 275 270 272 273 276 277 279 281 285 283 284 287 289 286 286 282 278 281 274 270 272 276 277 277 277 277 277 277 277 276 276 276 275 276 276 274 274 274 272
298 298 297 297 295 295 293 296 297 291 285 279 276 268 267 265 271 271 273 276 279 279 280 283 284 285 285 282 281 277 276 278 271 268 268 272 274 275 276 276 275 274 274 274 274 274 274 273 273 273 273 273 272 270
297 297 297 295 296 294 293 291 289 284 279 274 273 266 268 272 273 274 276 278 277 279 281 284 282 281 277 275 276 275 271 267 269 267 271 273 275 275 275 275 274 274 273 273 273 272 272 272 272 271 272 272 271 270
297 295 294 296 293 292 290 288 285 283 278 273 271 269 270 271 270 271 272 273 277 276 280 280 277 273 272 272 269 267 268 265 267 270 273 274 273 273 274 274 274 274 274 274 273 273 272 271 271 270 271 271 270 269
295 289 296 297 294 291 290 283 281 277 274 271 268 271 269 269 268 270 272 272 275 275 272 274 269 269 274 268 266 268 265 268 270 271 272 272 272 272 273 273 273 274 274 273 273 273 272 273 272 271 269 270 270 270
288 290 295 296 291 288 283 281 277 275 269 270 267 269 270 269 270 270 272 273 274 275 273 270 273 267 266 266 265 268 269 270 270 270 270 271 272 272 273 272 272 272 271 271 272 272 272 271 270 269 269 269 269 268
292 292 295 294 289 284 280 278 278 269 270 270 271 272 271 271 272 272 272 273 274 275 273 269 265 264 264 267 268 269 270 270 269 269 270 270 270 271 271 271 271 271 270 270 270 269 269 269 269 269 269 269 267 267
294 294 294 294 291 282 279 277 280 274 269 271 272 271 270 269 272 268 270 272 271 270 266 264 264 265 266 268 270 270 271 272 270 268 268 269 270 270 270 271 270 271 270 270 269 269 269 267 267 267 267 267 266 265
289 289 290 288 284 283 280 278 275 275 274 273 274 274 270 271 269 268 268 271 267 266 264 266 266 268 269 270 271 271 271 271 270 270 268 268 270 270 270 270 270 270 269 268 267 267 267 266 266 266 265 264 264 264
284 289 283 284 281 281 279 279 277 277 276 276 274 273 267 265 266 268 270 266 265 266 267 267 268 269 268 267 268 270 270 270 270 270 270 270 268 268 268 269 268 267 267 267 267 266 265 265 265 264 263 263 264 263
286 284 280 279 274 274 274 280 274 277 269 271 272 269 266 265 269 272 265 267 267 270 270 269 269 270 269 270 270 270 270 269 268 268 268 268 268 268 268 268 268 267 266 266 267 265 264 263 262 262 262 261 261 260
283 274 269 268 272 265 269 268 275 271 270 269 268 264 265 266 268 265 263 265 269 270 270 269 270 268 269 268 267 267 269 269 268 268 269 268 266 266 266 266 266 266 266 266 265 264 262 261 261 261 259 258 258 258
270 267 267 263 267 265 261 260 263 266 262 264 264 264 264 267 261 260 260 264 265 265 266 269 268 268 266 266 267 267 269 269 267 265 266 267 266 265 265 264 264 264 265 263 261 260 259 259 259 259 259 259 258 257
263 265 265 264 263 265 264 260 259 259 261 260 260 261 260 259 257 257 263 263 263 265 263 264 266 266 266 267 266 265 265 268 267 265 264 265 265 264 263 262 262 262 261 261 260 259 258 257 258 257 257 256 253 257
259 259 268 269 270 267 262 262 264 261 257 257 259 256 256 252 252 261 266 267 267 267 269 269 269 268 266 265 264 264 264 264 264 263 263 263 262 262 263 261 261 261 261 260 259 260 259 257 257 257 256 255 256 256
263 264 259 258 260 262 255 256 255 255 258 264 260 254 252 253 258 264 265 267 268 267 266 265 265 266 265 263 263 262 262 262 262 262 262 262 260 259 258 258 258 258 256 256 258 257 258 258 258 257 257 259 257 252
258 261 261 253 257 259 259 255 257 263 264 259 254 255 259 263 262 265 266 267 268 267 264 262 260 260 260 259 258 258 259 260 260 256 256 257 257 259 257 257 257 257 257 259 259 257 257 256 256 257 257 257 256 252
259 262 257 253 255 257 256 257 257 256 261 261 264 264 263 262 263 265 266 266 265 262 259 258 257 258 258 258 257 258 255 254 255 258 258 257 258 257 256 257 257 255 255 258 258 258 260 257 256 254 255 255 255 256
263 259 259 259 257 256 255 251 250 253 253 255 253 255 258 258 262 262 261 259 257 256 258 257 256 253 256 254 256 255 256 256 250 252 253 254 254 255 256 254 254 253 255 256 256 256 255 254 255 255 256 256 254 252
257 255 258 257 258 259 258 254 251 253 251 255 253 250 253 255 254 259 259 259 261 259 256 255 256 259 255 253 251 251 250 254 254 253 254 254 255 253 253 254 252 253 255 254 254 254 254 255 255 255 255 255 254 253
257 256 257 259 258 257 256 255 255 254 252 252 252 249 250 253 255 258 258 256 258 260 260 257 255 253 252 252 254 253 251 253 250 255 252 252 250 252 252 252 252 253 254 254 253 253 254 253 254 253 253 251 251 251

GFSWCAN_sfc_thetae_084.txt.gz
Theta_e
300 300 300 300 300 300 300 301 301 302 302 302 302 302 302 302 302 299 295 299 292 289 294 296 296 293 293 293 288 292 289 288 287 285 286 285 284 286 285 288 288 285 284 284 284 284 282 300 299 292 297 305 305 305
300 301 302 301 301 301 301 301 302 302 302 302 302 302 302 302 302 301 294 300 298 291 292 298 298 301 300 299 295 294 291 291 292 289 289 290 286 289 287 283 291 285 291 288 291 290 298 298 299 303 303 302 303 306
300 301 301 302 302 302 302 302 302 302 302 302 302 303 303 303 302 301 297 297 294 288 291 292 291 300 304 303 305 292 295 296 295 298 294 292 286 290 285 287 289 292 295 292 291 295 296 297 301 301 303 302 305 306
300 301 301 301 301 301 302 302 302 302 302 302 302 303 303 303 303 301 297 298 296 293 286 291 299 297 304 304 302 302 299 300 300 298 293 291 289 294 290 291 290 293 294 291 291 295 298 298 300 300 299 301 301 305
300 301 301 301 301 302 302 301 302 302 302 302 302 303 303 303 303 301 300 299 302 294 287 289 296 299 301 303 300 300 299 298 297 292 291 290 294 294 295 294 291 295 293 291 291 294 295 298 299 299 297 297 297 299
300 300 301 301 301 301 301 301 301 301 301 302 302 303 303 302 302 297 289 297 301 302 291 286 297 297 298 299 299 298 299 297 296 292 292 296 298 295 290 289 292 292 293 293 292 293 295 298 299 297 296 295 293 294
300 301 301 301 300 300 301 301 302 302 302 302 302 302 302 302 298 293 293 297 302 303 293 289 290 296 299 297 298 298 299 296 295 294 293 295 296 296 290 288 287 288 289 292 291 292 294 294 290 293 294 295 293 292
299 300 300 300 300 300 300 301 302 302 302 302 302 302 302 301 300 298 300 300 301 294 294 287 288 290 298 293 292 298 294 295 293 293 297 294 297 296 285 284 285 285 287 289 288 289 290 291 289 289 292 292 291 288
299 300 300 300 300 300 299 300 301 301 301 301 301 300 298 296 293 296 300 301 304 297 288 286 285 284 296 291 291 292 293 287 291 290 291 293 286 280 279 281 282 282 282 283 286 287 287 286 285 284 285 288 287 285
299 299 299 299 300 300 300 300 300 300 300 299 299 293 287 295 300 300 295 291 292 294 293 288 291 286 291 290 288 286 289 288 286 289 291 285 279 281 281 282 281 281 281 283 282 283 284 283 283 281 281 282 283 283
299 298 298 299 300 300 300 300 300 301 301 298 290 289 295 299 297 292 287 287 287 284 288 289 289 287 291 288 287 287 287 288 283 286 286 281 278 278 281 280 281 281 281 281 282 282 283 282 281 280 279 279 279 279
298 298 298 298 300 300 300 300 299 299 297 295 292 293 291 287 287 286 284 285 285 283 287 286 287 287 289 291 288 289 285 287 281 284 281 276 277 279 280 279 280 280 279 279 280 279 280 280 280 279 278 276 275 275
298 297 297 296 295 297 299 299 299 297 297 293 288 283 283 279 276 277 276 280 281 282 284 286 285 288 290 292 287 287 283 280 285 278 275 275 277 278 279 279 279 279 279 278 278 278 277 277 277 276 274 274 274 272
297 297 296 296 294 295 298 297 293 292 290 284 280 273 275 273 275 276 277 279 282 282 282 286 288 287 288 285 285 281 280 283 277 273 271 275 276 277 277 278 277 276 275 275 275 275 274 274 273 273 272 272 271 271
297 297 295 294 293 292 291 290 289 289 284 278 279 273 274 276 277 277 279 281 279 279 284 289 286 286 282 280 280 280 276 272 273 272 274 276 276 276 276 276 276 275 274 274 274 273 273 273 273 272 273 273 272 271
297 296 295 292 293 291 290 290 289 287 282 277 275 274 276 277 276 277 276 277 279 280 285 286 283 279 275 276 274 272 272 270 271 274 275 277 275 275 275 276 275 275 275 274 274 274 273 272 271 271 271 271 270 270
296 296 295 293 290 290 289 287 285 279 277 275 273 275 275 275 273 274 275 276 279 281 279 280 275 273 278 273 270 272 270 272 274 275 276 275 275 274 275 274 275 275 274 274 274 273 273 273 273 272 270 271 271 270
295 296 295 296 294 290 287 285 280 277 272 275 273 273 274 274 274 274 276 277 279 279 278 274 278 272 270 269 270 272 273 274 275 274 274 275 274 275 275 274 274 274 273 273 274 273 273 272 271 270 270 271 270 270
295 296 295 293 293 289 283 282 282 273 274 276 276 276 276 275 275 275 277 278 278 279 277 275 270 269 269 272 272 274 274 275 273 273 273 273 274 273 273 274 274 273 273 273 272 271 272 272 272 272 272 272 270 270
294 293 293 293 293 286 280 280 284 277 274 275 277 275 275 274 275 275 275 275 275 274 270 268 268 269 271 273 275 275 275 276 275 273 272 274 274 274 274 275 274 274 274 273 273 272 272 271 271 271 271 271 270 269
294 293 292 294 290 287 283 281 279 279 278 276 278 277 275 276 274 273 273 275 272 270 268 270 271 271 273 274 275 276 275 276 275 275 273 272 274 274 274 274 274 274 273 273 272 271 271 270 270 270 270 269 269 268
291 291 291 291 287 285 283 284 281 282 280 278 277 277 274 273 273 272 274 270 269 269 271 271 272 273 272 271 272 273 273 274 274 273 273 273 273 272 272 273 273 271 271 271 271 270 269 269 270 269 269 268 268 267
289 290 286 285 281 281 279 285 279 279 275 276 277 273 272 272 273 275 270 270 270 273 273 272 272 272 272 272 272 272 273 273 272 272 272 272 272 272 272 272 272 271 270 269 270 269 267 267 267 267 267 267 266 265
285 278 276 277 280 274 278 276 278 276 276 275 272 269 270 272 273 271 267 269 271 273 272 272 273 272 272 272 271 271 272 273 272 272 272 272 271 270 270 270 270 270 270 270 269 268 268 267 266 267 266 265 265 264
277 271 275 272 276 274 272 272 272 273 270 271 269 269 269 272 268 267 266 268 270 270 271 272 272 272 271 271 271 271 272 272 271 269 270 271 270 270 269 268 268 268 270 269 267 266 265 265 265 265 265 265 263 263
268 270 271 271 272 272 272 269 269 270 270 268 267 268 270 268 265 264 267 269 270 271 271 272 272 271 270 271 270 270 269 271 271 269 268 269 269 270 269 268 267 266 268 269 268 266 265 265 264 264 263 262 261 263
267 268 271 272 273 271 270 270 271 269 267 267 268 266 267 263 262 265 270 271 271 272 272 273 273 272 270 268 268 268 269 269 268 267 267 267 267 268 269 268 266 266 268 267 268 267 266 265 264 264 264 264 264 264
269 269 266 265 266 268 264 265 265 265 266 268 267 261 263 263 264 269 270 272 272 271 270 270 270 270 269 268 268 268 267 267 266 267 267 267 266 266 265 266 264 262 266 266 267 266 266 266 265 264 264 265 264 263
267 268 267 260 264 264 263 264 265 266 267 268 265 264 264 267 269 270 270 272 272 271 269 268 267 268 267 267 267 268 268 268 265 262 261 265 266 265 265 266 266 266 267 266 263 264 264 265 264 265 262 265 265 263
266 269 265 262 261 262 263 266 265 265 267 267 268 267 267 267 268 271 271 271 271 270 269 268 267 269 267 268 266 265 265 264 264 265 265 265 265 265 265 265 265 265 266 267 266 265 264 264 262 262 263 263 264 263
269 269 266 265 264 265 266 265 266 267 267 266 268 267 265 267 268 268 268 268 268 267 267 267 266 266 266 266 267 265 265 263 259 260 262 264 264 265 264 263 264 265 265 265 264 264 264 263 263 262 262 261 261 259
266 266 265 263 264 266 267 267 267 267 267 267 265 266 265 267 265 266 266 267 268 268 264 267 268 267 265 264 262 263 259 263 262 262 261 263 264 262 263 263 262 263 263 263 263 263 260 260 262 262 261 261 261 260
267 267 267 266 265 265 265 267 266 265 266 266 264 263 264 265 263 266 265 264 267 269 268 267 266 264 262 263 263 262 262 262 259 260 258 258 257 259 262 263 262 261 260 261 262 261 259 258 260 259 259 258 258 258

GFSWCAN_sfc_thetae_087.txt.gz
Theta_e
300 301 301 301 301 302 302 301 301 301 301 302 301 302 302 302 302 302 297 300 293 290 295 298 298 293 294 294 289 293 290 290 287 285 286 287 287 289 287 289 289 287 285 285 286 283 281 300 299 293 296 302 301 303
300 300 300 301 301 302 302 302 302 301 302 302 302 302 302 302 302 302 295 301 298 291 293 301 302 303 301 299 296 295 292 291 293 290 291 291 288 291 288 284 294 287 290 289 289 289 298 300 301 301 301 300 302 303
300 300 300 301 302 302 302 302 302 302 302 302 302 302 302 303 302 301 298 300 294 287 292 293 295 301 305 305 305 293 295 297 296 300 294 293 288 292 286 288 289 293 297 291 291 294 296 299 301 301 301 300 301 303
299 300 300 301 301 301 302 302 302 302 302 302 302 302 302 303 303 302 297 299 297 293 287 292 302 299 304 306 304 304 299 301 300 299 295 293 290 295 290 292 291 294 295 293 292 296 298 298 299 299 300 301 299 301
299 300 300 301 301 301 301 301 301 302 302 302 302 303 303 303 303 301 299 300 302 295 288 291 298 301 303 304 302 302 299 297 297 293 292 291 295 294 294 294 292 296 293 292 291 296 296 297 300 298 298 298 297 297
299 299 301 301 301 300 300 301 301 301 301 302 302 303 303 303 303 298 288 298 303 303 293 288 298 298 301 302 300 300 299 298 297 293 293 296 299 295 290 289 290 292 294 295 291 295 296 297 299 296 296 297 297 296
299 300 300 300 300 300 301 301 301 301 301 302 302 303 303 302 300 292 294 298 302 305 292 289 289 297 300 300 299 298 300 297 298 292 293 295 295 296 293 288 288 289 290 292 292 294 295 293 291 292 293 296 298 296
299 300 300 300 300 300 301 301 302 302 302 302 302 302 302 301 299 296 302 301 303 296 294 288 289 291 298 293 292 300 294 294 294 293 297 294 295 295 285 286 287 286 288 289 289 291 291 291 292 290 290 290 293 291
299 299 299 300 299 300 300 300 301 301 302 302 302 301 298 295 293 297 301 302 304 298 290 289 286 285 297 293 295 295 296 287 293 289 293 294 288 282 280 282 282 283 283 284 287 289 290 289 288 288 287 287 286 286
298 298 298 300 299 300 299 299 300 300 300 300 299 292 286 295 300 300 295 290 293 296 297 291 294 289 292 290 289 289 292 288 286 289 293 289 281 282 283 282 282 282 283 284 283 284 286 286 286 285 283 283 283 282
298 298 299 299 300 300 300 299 300 300 300 300 292 288 295 299 298 294 288 288 290 286 291 293 293 289 291 289 289 294 287 290 285 287 289 284 279 280 283 282 283 282 282 282 282 283 283 284 283 283 282 280 279 278
298 297 297 296 297 300 299 298 300 301 299 297 294 294 293 294 291 287 286 287 287 285 288 289 289 292 291 293 291 289 286 287 283 287 285 279 278 281 281 281 282 282 281 280 281 280 280 280 282 281 280 278 277 276
298 297 296 295 295 298 298 296 296 297 300 298 292 286 287 284 281 282 280 283 284 285 286 287 286 290 289 291 289 289 284 282 288 283 277 277 279 279 279 279 280 280 279 279 278 278 278 277 278 277 275 275 275 274
297 296 295 294 295 295 294 293 295 295 293 286 283 277 279 278 279 279 280 281 283 283 284 285 287 286 288 285 287 281 283 285 280 278 274 276 277 278 278 279 278 276 276 276 276 276 275 274 274 274 274 274 273 272
297 295 295 293 293 292 292 293 294 293 288 281 282 276 276 279 280 280 282 283 281 282 284 286 287 287 283 282 283 282 279 276 277 275 276 277 277 277 277 277 277 276 275 275 275 274 274 274 273 273 274 274 273 273
298 297 293 293 291 291 293 293 293 291 285 281 278 278 280 281 280 280 280 279 282 283 287 290 286 281 279 281 278 275 276 274 274 277 278 278 276 276 276 276 276 276 276 275 275 274 274 273 272 272 273 272 272 271
296 298 292 292 291 291 292 292 288 282 280 278 276 278 279 279 277 277 279 279 283 283 282 284 278 275 283 277 273 274 273 274 276 276 277 277 276 276 276 276 276 276 275 275 275 275 274 275 274 273 271 271 271 271
299 299 295 292 295 293 290 289 284 281 275 278 276 277 277 277 277 278 279 281 282 282 281 277 281 275 273 272 272 274 275 277 277 276 276 276 276 276 277 276 276 276 275 275 275 275 274 273 272 272 271 271 271 271
296 298 295 296 295 292 285 285 286 277 277 279 279 279 279 278 279 280 280 282 282 283 282 279 274 272 271 275 275 276 277 277 275 275 275 276 276 275 275 276 276 275 275 275 275 275 274 275 275 274 274 273 272 272
294 294 294 294 293 289 282 283 288 281 277 278 280 278 278 278 279 280 280 280 279 277 273 271 271 273 273 276 277 277 277 278 277 275 275 276 277 277 277 277 276 276 276 276 275 275 274 273 274 274 274 273 272 271
294 294 295 297 292 289 286 284 282 281 280 278 280 279 278 279 278 278 277 279 275 273 271 273 273 274 275 276 278 278 277 278 277 277 276 274 277 277 276 277 277 277 276 275 274 273 273 272 273 273 272 271 271 270
295 293 295 293 288 286 284 286 283 284 281 280 280 280 278 277 276 276 277 273 271 272 274 274 275 275 274 273 274 276 276 276 276 276 276 276 275 275 275 276 276 274 274 274 274 273 272 272 272 272 271 270 270 270
291 294 290 289 284 282 279 288 281 281 278 278 280 276 276 276 276 280 273 272 272 275 275 274 274 275 274 275 275 275 276 276 275 275 275 275 275 275 275 275 275 274 273 272 273 272 270 270 270 271 270 270 269 268
288 282 281 281 282 277 282 279 281 279 280 277 275 272 274 275 278 274 270 271 273 275 274 274 276 274 274 274 273 273 275 276 275 274 275 275 273 272 273 273 273 273 273 273 272 271 271 269 269 270 269 269 268 268
279 274 278 275 281 278 276 276 276 276 274 275 272 273 273 277 272 271 269 271 273 273 274 275 275 275 273 273 273 273 274 275 274 272 273 274 273 273 272 271 271 271 273 272 270 270 269 269 269 268 268 268 267 266
271 273 274 276 276 276 276 273 274 274 273 271 271 273 276 274 269 268 270 272 273 273 274 275 275 274 273 274 273 272 272 274 275 272 271 272 273 273 272 271 271 269 272 272 271 269 268 268 267 266 266 265 264 265
271 271 274 276 277 276 275 276 276 274 272 270 273 271 272 268 266 269 272 274 273 274 275 275 275 274 273 272 272 272 272 272 271 270 271 271 271 271 271 271 269 269 271 270 271 271 268 267 267 267 267 268 267 267
272 273 268 271 272 274 270 271 271 270 271 272 273 267 267 267 268 273 273 274 274 274 274 273 274 274 273 272 272 272 271 271 270 271 271 270 270 269 269 268 268 266 268 268 269 270 270 269 268 267 267 267 267 267
271 273 270 264 268 268 268 269 270 270 271 273 271 268 268 270 273 272 273 274 275 274 273 272 272 273 272 271 272 272 272 271 268 264 263 269 269 268 269 269 269 269 270 268 266 267 267 267 267 268 265 268 268 267
270 274 269 266 266 266 267 271 269 270 272 272 271 270 269 270 271 275 274 274 273 273 272 272 272 273 271 272 269 269 269 269 268 268 268 267 267 268 269 268 268 268 269 269 268 267 265 266 265 266 265 266 266 266
274 275 271 269 267 269 270 271 272 273 273 272 274 271 269 269 271 272 272 273 273 272 272 271 270 272 271 270 270 269 268 267 264 265 267 268 268 268 267 267 268 268 268 268 267 267 266 265 266 265 265 264 264 263
273 271 269 266 267 269 272 274 273 272 273 272 270 271 270 271 268 270 271 273 272 271 268 271 271 270 269 268 268 266 265 266 266 266 265 267 267 265 267 267 266 267 266 266 266 265 264 264 264 265 264 264 264 263
272 272 271 270 269 270 270 273 271 270 272 271 270 270 270 271 267 270 270 271 271 272 271 270 270 268 266 267 267 266 266 265 261 262 261 260 259 262 265 266 266 265 263 264 264 264 262 262 263 263 262 262 261 261

GFSWCAN_sfc_thetae_093.txt.gz
Theta_e
295 296 298 299 299 300 301 301 302 302 303 303 302 302 302 302 302 298 295 297 291 285 288 293 293 289 289 288 284 288 287 289 287 280 279 279 278 284 285 288 286 283 282 280 280 280 277 295 295 290 292 296 295 295
295 297 298 298 299 300 301 301 301 302 302 303 302 302 302 302 302 300 293 298 297 290 289 294 294 296 295 296 292 291 290 289 288 283 283 283 279 282 285 279 291 282 287 282 284 283 293 296 294 297 297 293 293 294
296 297 298 298 299 300 300 300 301 302 302 302 303 302 302 302 302 300 294 297 294 288 288 287 288 294 298 300 302 289 290 294 292 293 288 286 281 287 280 282 286 292 295 290 287 293 295 295 296 296 296 295 294 295
296 297 298 299 299 300 300 300 301 302 302 302 302 302 302 302 302 301 294 297 295 290 281 284 296 293 298 299 302 299 297 298 296 293 287 285 285 292 287 289 286 291 292 292 291 293 293 292 293 293 294 295 295 295
296 297 298 299 300 299 300 301 301 301 301 302 303 302 302 302 302 300 298 297 298 289 282 285 293 296 299 297 297 299 297 294 291 287 286 286 291 290 291 290 286 290 286 286 284 287 291 289 291 293 291 291 293 292
297 298 299 299 300 300 300 300 300 301 301 301 302 303 303 302 302 297 287 297 299 296 288 283 294 294 297 297 296 295 296 294 293 291 287 292 295 292 286 284 286 288 290 289 286 290 291 292 291 291 290 291 292 290
297 298 299 300 300 300 300 300 300 301 301 301 301 302 303 302 299 290 289 294 300 299 289 283 286 294 297 296 294 293 295 294 294 291 288 291 291 292 286 282 284 285 287 287 288 289 289 290 287 289 288 290 290 288
298 298 299 299 300 300 299 300 301 302 302 301 302 302 302 302 299 293 298 301 300 294 292 283 284 289 296 290 290 294 292 293 292 290 291 290 292 290 280 282 283 283 285 284 285 288 288 289 289 286 286 286 285 283
298 298 298 299 299 299 298 301 302 302 302 302 302 302 295 294 290 294 301 301 300 294 284 282 280 283 294 290 291 292 292 284 290 285 287 289 284 277 280 280 280 281 280 281 283 284 284 284 284 285 283 282 281 280
298 297 298 298 299 297 299 300 301 302 302 300 296 290 285 293 301 300 294 288 290 291 290 285 289 285 291 289 287 287 288 285 283 285 291 281 276 281 282 281 281 281 281 281 278 278 279 279 281 281 280 279 279 278
297 296 297 296 298 297 299 299 300 301 301 296 290 287 296 301 295 290 284 284 285 283 284 286 289 285 290 285 284 286 285 285 278 283 284 280 276 279 281 279 280 280 280 279 279 278 278 278 279 278 276 276 276 275
296 296 296 297 298 297 299 299 300 299 296 295 294 296 296 292 288 284 280 283 281 280 285 282 285 289 288 291 286 286 283 284 278 287 283 272 275 278 279 278 277 277 277 277 277 275 275 275 276 275 274 274 274 274
295 295 296 297 297 297 299 300 300 299 299 297 292 287 287 283 279 276 276 278 281 284 286 286 285 287 286 287 285 285 281 281 282 279 271 272 275 277 276 277 276 276 276 275 274 274 273 272 272 272 270 270 270 270
295 295 294 295 296 296 296 296 298 296 292 285 281 270 275 276 276 276 278 279 281 282 283 285 285 285 285 283 284 280 282 281 277 272 267 273 274 275 276 276 275 274 274 273 271 270 271 271 270 270 270 269 269 268
295 294 294 293 294 295 296 296 295 291 285 279 279 273 273 277 279 279 281 282 281 283 283 284 285 286 282 278 282 279 276 270 271 267 271 273 274 274 273 275 273 272 270 270 267 268 267 268 268 268 269 269 268 268
297 295 290 293 293 295 296 294 292 289 284 279 277 277 278 277 275 275 276 276 282 281 283 283 283 278 276 277 274 269 273 267 269 272 273 272 271 272 271 273 271 273 269 269 269 269 268 267 267 267 268 268 269 268
297 292 293 293 296 296 296 290 286 282 280 278 275 278 278 277 275 275 278 279 283 282 280 281 277 276 280 275 271 273 269 271 271 272 273 273 271 270 272 272 271 270 270 271 271 272 271 270 270 269 267 268 269 269
295 291 294 293 294 294 290 288 282 280 276 277 274 276 277 278 277 278 280 281 281 281 280 277 279 272 270 269 268 271 271 273 274 273 271 271 272 272 272 270 269 268 268 268 268 267 268 268 268 268 268 269 269 268
294 291 293 294 292 289 283 283 283 276 277 278 279 279 278 278 280 279 278 279 279 279 278 274 269 268 269 272 270 272 273 271 271 272 272 270 270 272 273 273 274 273 274 273 272 272 273 273 272 272 271 271 268 268
295 294 295 295 294 286 282 281 285 279 276 276 278 277 277 277 278 276 276 277 276 275 270 269 268 269 271 273 274 274 274 274 273 271 270 273 275 275 275 274 273 272 273 273 273 272 271 271 271 271 271 271 268 267
294 291 294 293 288 287 283 281 280 279 280 278 280 279 276 276 273 272 272 275 272 271 268 270 270 271 270 272 273 274 274 274 276 272 271 273 272 274 274 276 276 275 272 271 271 270 270 270 271 270 268 266 266 266
291 294 290 290 284 284 282 284 281 282 279 279 279 280 276 270 269 271 274 270 269 269 271 272 270 268 270 270 271 271 271 273 274 274 274 275 273 272 273 272 272 271 271 271 271 270 270 271 270 269 267 266 266 266
293 292 286 285 278 277 277 285 279 281 276 276 278 275 272 270 275 276 267 271 271 271 270 270 269 270 270 270 273 273 273 274 273 272 272 272 272 272 271 271 273 270 270 270 271 269 267 268 268 266 266 264 263 261
289 280 277 276 277 274 278 275 280 279 277 275 273 269 270 271 275 268 266 269 271 273 273 272 273 272 272 272 268 269 273 272 270 271 273 271 269 269 270 270 271 270 270 271 270 268 266 263 266 267 266 265 263 263
273 270 273 270 277 272 269 270 272 274 268 271 268 267 268 275 266 264 265 269 271 270 272 273 274 273 268 265 266 267 271 273 270 267 269 272 270 267 267 267 267 267 271 267 265 261 261 260 260 260 262 259 263 261
265 268 270 272 272 272 273 268 269 268 267 264 265 271 271 266 262 262 269 268 267 272 271 271 271 269 269 271 269 267 267 270 272 267 267 269 268 266 266 266 264 263 266 265 262 259 258 258 257 257 256 257 258 257
264 266 274 278 278 277 271 272 275 270 265 263 266 266 264 258 258 265 271 271 269 268 270 271 273 271 269 268 269 268 268 267 267 268 268 268 268 267 263 260 260 263 264 264 265 263 258 256 256 258 258 254 254 257
271 272 265 269 269 273 266 266 264 263 265 271 268 260 259 260 263 269 269 270 269 272 271 271 271 271 270 269 268 267 264 264 263 265 266 265 264 261 260 259 259 264 258 257 259 261 262 260 257 256 258 258 258 254
268 271 268 261 265 266 266 264 263 267 270 269 262 261 263 269 268 270 268 269 270 269 267 265 263 263 265 265 265 265 263 261 261 257 256 262 259 259 258 258 258 263 260 257 263 259 258 256 255 257 256 259 259 258
267 273 265 261 260 262 267 267 264 265 269 268 269 269 269 269 269 269 269 271 272 270 265 266 269 267 265 265 261 258 259 256 256 257 258 257 258 258 259 261 260 256 258 263 259 257 261 257 258 255 255 255 255 258
274 271 265 265 263 268 270 272 272 271 268 267 266 264 264 264 266 269 270 267 264 263 263 261 263 264 261 260 261 260 255 256 255 256 257 257 261 257 255 255 255 256 259 257 255 257 256 253 256 257 255 255 254 253
269 265 262 260 264 269 272 271 266 265 265 263 261 262 263 261 259 262 264 267 264 265 264 269 264 259 258 257 256 257 258 257 257 255 255 259 255 255 256 257 257 258 254 254 256 254 255 253 252 252 252 252 252 251
268 267 266 264 263 263 268 266 266 265 264 263 264 264 263 262 260 262 264 265 268 269 265 263 259 258 258 260 258 257 255 253 254 259 257 256 254 256 257 255 256 254 254 253 254 253 253 253 252 252 251 250 249 249

GFSWCAN_sfc_thetae_096.txt.gz
Theta_e
295 295 295 295 297 297 298 299 300 301 302 302 303 303 302 302 303 299 294 297 290 286 288 291 290 286 287 286 282 286 285 286 287 283 280 278 276 282 283 287 285 283 280 279 281 278 276 294 294 287 290 294 294 294
294 295 294 296 297 298 298 299 300 301 301 302 302 303 303 302 302 300 293 297 297 290 289 292 292 293 293 292 289 292 288 289 288 283 282 281 278 281 285 280 289 283 286 282 284 283 294 294 292 295 294 292 291 292
294 294 294 296 297 298 299 300 300 301 301 302 302 303 303 302 302 300 295 296 293 289 288 288 287 293 296 295 298 286 290 292 291 292 287 284 279 285 281 283 286 291 294 287 288 292 292 293 294 294 294 292 292 291
294 294 294 296 297 298 299 300 300 300 301 302 302 302 302 302 302 300 294 297 294 290 283 282 293 290 295 295 298 297 293 297 296 294 287 282 281 289 285 289 287 289 290 288 289 289 290 289 290 291 291 292 291 289
293 294 296 297 298 298 299 300 300 301 301 302 302 302 303 303 302 299 296 297 297 290 281 284 291 294 296 294 294 297 296 294 292 289 281 282 287 287 287 289 284 289 286 283 281 286 289 287 289 291 289 289 288 288
293 294 296 297 298 299 300 300 300 300 301 301 302 302 303 302 301 296 288 296 298 295 288 278 290 291 293 294 295 295 295 294 294 288 284 288 293 289 285 282 285 286 287 288 284 287 288 289 288 288 288 286 285 283
293 295 297 298 299 299 300 300 300 300 300 301 301 302 302 302 297 290 288 293 299 297 288 282 281 290 294 294 292 292 293 290 292 290 287 289 290 291 285 279 282 284 286 286 286 288 287 287 283 285 286 286 285 282
294 296 297 298 299 299 299 299 299 300 301 301 302 302 302 302 298 293 297 300 299 293 291 282 283 287 295 288 289 295 291 291 292 289 291 289 291 288 277 281 282 283 285 283 283 285 285 286 285 283 284 284 281 279
295 296 298 298 299 300 299 300 301 302 302 302 302 302 297 291 289 293 301 300 299 293 283 283 279 281 292 290 292 291 292 284 289 286 287 289 281 275 279 279 279 280 279 279 282 282 282 282 283 282 281 280 278 278
295 297 297 297 297 298 299 301 301 302 302 301 296 289 285 292 300 300 292 287 288 291 291 284 288 283 289 288 287 287 287 285 282 286 289 280 276 279 280 279 279 279 279 279 278 277 278 278 279 277 277 277 277 276
297 297 296 297 297 298 299 300 301 300 300 295 289 287 296 300 293 287 283 284 285 282 283 284 287 285 290 284 285 285 284 285 280 282 284 277 275 277 278 277 278 278 278 277 276 276 276 277 277 276 275 275 275 275
296 296 296 297 298 297 298 299 300 298 295 294 294 296 295 290 286 283 281 283 279 279 284 280 285 288 288 289 286 286 280 283 275 286 279 269 274 277 277 276 276 276 276 275 275 273 273 275 275 275 274 274 273 273
295 295 296 297 297 299 300 300 299 299 299 295 290 286 285 282 278 273 277 280 280 282 285 286 285 284 286 287 285 285 280 278 285 275 270 271 275 276 275 275 275 275 275 274 273 273 272 271 271 270 269 269 268 267
295 295 296 296 298 299 300 299 299 297 292 285 279 269 272 273 271 273 276 276 279 281 283 285 284 284 285 283 283 280 281 282 276 269 264 271 273 274 275 275 273 272 272 270 268 268 268 268 267 268 267 267 266 266
295 294 294 294 296 296 296 295 294 288 283 278 278 270 271 274 275 276 279 279 281 283 283 285 285 285 280 274 279 280 274 269 269 264 268 272 273 273 273 273 272 271 266 266 264 265 264 264 266 266 267 267 267 266
296 294 289 293 294 296 295 293 290 287 281 278 276 275 276 272 271 272 274 274 281 281 282 283 276 273 271 271 270 266 270 264 264 267 271 272 269 269 270 272 269 267 266 266 266 267 266 265 265 266 267 267 267 266
297 288 293 294 296 296 295 288 285 282 279 276 272 276 276 274 272 272 274 276 280 280 277 279 272 272 277 269 267 270 264 266 270 271 270 269 270 270 269 269 269 269 268 267 267 267 268 269 268 268 266 267 267 267
289 289 294 293 294 292 289 286 281 279 275 275 272 275 274 275 272 275 277 278 280 279 278 275 277 270 265 266 264 267 269 272 272 271 270 270 269 267 270 267 267 268 267 266 266 265 266 266 266 265 266 266 267 267
290 291 293 295 292 287 283 282 282 275 275 277 276 277 277 275 276 276 277 278 279 279 278 274 270 268 268 271 269 268 266 267 270 269 269 269 271 272 272 272 272 271 271 269 270 270 270 270 269 270 269 268 266 266
294 294 294 295 293 284 281 280 283 278 274 276 277 275 276 275 275 274 275 276 275 274 269 267 267 268 270 271 271 271 268 272 272 269 268 270 270 270 268 270 270 271 272 272 271 271 271 270 270 271 270 270 267 266
292 290 293 290 286 284 281 279 278 279 278 277 278 278 273 274 272 271 272 274 270 269 267 268 268 270 271 271 271 273 271 272 268 268 267 270 271 273 274 273 272 272 270 269 269 270 270 269 269 269 267 264 264 266
288 294 286 287 282 282 280 281 279 279 279 279 279 279 271 267 268 270 273 268 268 267 267 266 263 264 271 269 266 267 272 274 273 273 273 272 270 269 270 270 271 269 269 268 270 268 269 269 268 267 264 260 264 265
290 288 283 281 276 274 276 283 278 279 273 275 277 273 270 267 271 275 265 270 269 268 266 266 265 267 269 266 271 270 269 271 270 271 271 270 271 270 270 270 270 269 268 269 270 268 267 268 267 265 263 262 262 259
285 278 274 272 274 268 273 272 279 278 275 273 271 267 268 269 272 265 264 264 266 271 270 267 270 269 270 270 268 269 269 270 270 269 268 269 268 268 270 269 269 269 270 270 269 266 265 262 265 264 260 258 257 259
272 269 270 266 271 268 266 266 269 271 266 268 265 264 266 272 263 260 260 268 267 265 270 275 274 270 265 261 264 266 270 270 267 266 266 268 265 266 266 266 266 267 268 263 258 257 255 255 256 259 259 260 263 261
263 264 267 266 267 270 270 266 265 265 264 261 262 269 267 261 258 261 266 263 261 267 263 264 268 268 268 268 265 265 265 268 269 265 265 267 266 263 261 260 259 261 265 260 256 254 254 253 253 255 254 255 255 253
261 262 271 277 276 275 268 268 271 266 261 261 262 260 259 254 254 264 270 268 267 265 267 268 270 268 267 267 267 266 266 266 266 266 266 266 265 264 263 260 259 261 261 259 258 257 255 252 251 252 251 249 251 252
267 269 263 264 265 269 260 260 258 258 260 268 265 257 256 258 262 267 266 268 268 270 269 269 270 269 268 266 265 262 261 261 263 264 264 263 261 257 257 256 257 261 254 253 256 260 255 252 252 256 256 255 253 250
262 267 266 259 261 262 262 259 259 264 268 265 257 257 261 267 265 267 267 268 268 268 266 265 259 262 263 262 259 259 255 256 261 257 255 254 252 256 254 253 254 256 254 254 260 255 258 257 256 255 254 254 252 250
264 267 260 256 258 260 264 262 258 258 266 265 268 269 268 267 268 263 267 266 265 262 260 261 260 260 257 257 252 254 252 249 251 255 254 252 256 257 254 253 252 252 253 254 253 254 259 254 255 252 252 252 252 252
269 263 259 259 261 264 263 262 265 263 259 260 257 260 260 264 266 267 264 265 264 262 262 260 258 253 260 257 251 250 252 252 250 253 256 255 252 251 251 251 250 250 250 251 252 251 250 249 250 253 255 255 253 250
260 256 258 260 263 267 264 262 258 259 255 256 256 254 257 256 256 260 263 260 259 258 257 258 259 255 252 250 250 250 254 252 250 252 253 251 249 249 251 252 250 249 249 250 250 250 249 248 247 248 249 249 247 246
258 257 258 259 259 259 260 260 260 260 258 259 262 260 257 256 256 260 263 259 263 261 262 258 256 257 256 256 255 251 251 250 250 258 254 253 252 252 248 247 247 248 251 249 249 248 249 249 247 247 246 246 244 244

GFSWCAN_sfc_thetae_099.txt.gz
Theta_e
295 294 295 295 296 295 295 296 298 298 300 301 302 302 302 303 303 299 294 296 291 285 286 289 289 284 286 284 279 283 281 283 284 282 280 279 278 281 281 285 284 282 280 279 280 276 275 293 293 285 288 293 292 293
295 294 294 295 295 294 295 296 297 299 300 301 302 302 303 303 303 300 292 297 296 289 289 292 292 292 291 290 287 286 286 286 288 284 282 282 279 278 283 278 288 283 286 281 283 282 291 292 290 293 293 290 291 291
294 294 294 294 295 294 295 296 298 299 300 301 301 302 303 303 303 300 295 295 293 287 287 287 287 292 294 293 295 284 287 292 291 293 288 286 279 283 280 283 285 286 292 288 287 291 289 291 292 291 292 290 289 289
294 294 294 294 294 294 296 297 298 299 300 301 301 301 302 303 303 300 294 296 293 290 279 282 292 289 294 294 293 294 291 293 292 293 288 286 282 288 284 288 286 287 289 286 286 287 289 287 288 289 290 289 287 286
293 293 293 294 293 295 296 298 298 299 300 301 301 302 302 303 303 299 297 297 296 290 281 283 289 292 293 292 292 293 292 289 288 287 285 283 285 286 288 288 283 287 284 283 279 286 287 285 287 289 285 284 284 285
292 292 292 293 294 296 297 298 299 300 300 301 302 302 302 303 302 296 287 296 297 295 288 278 287 289 291 291 290 291 292 292 292 289 284 285 290 287 282 281 284 286 286 286 284 286 288 287 287 287 283 282 281 281
292 292 293 294 295 297 298 299 299 300 300 301 301 301 302 302 297 290 287 292 299 297 288 281 279 288 292 291 290 292 292 291 293 290 286 284 287 290 284 279 282 285 284 284 285 289 285 284 282 285 284 283 282 279
291 292 293 295 296 297 298 299 299 300 300 301 301 301 302 302 298 292 297 300 299 293 290 281 279 284 294 284 285 292 288 291 291 287 290 286 290 286 276 280 280 281 284 282 282 284 284 285 284 282 282 281 279 277
292 293 294 295 296 298 299 299 299 300 300 301 301 301 298 291 288 291 300 300 299 293 283 283 280 278 291 289 290 290 291 284 289 285 286 287 281 274 278 278 277 278 278 278 281 281 282 282 280 280 279 278 277 277
293 293 295 296 298 298 298 300 301 302 302 301 297 288 283 289 300 299 292 288 288 289 290 284 284 283 287 288 286 286 287 284 282 285 285 278 273 278 278 279 279 278 278 278 278 277 277 277 277 276 275 276 276 275
294 295 296 297 297 297 298 300 299 299 299 294 286 286 295 299 292 287 282 283 285 283 284 284 285 286 290 284 284 286 284 284 280 283 283 276 274 276 278 277 278 277 276 276 276 275 276 276 276 275 274 275 274 273
295 296 297 296 297 297 298 300 300 297 295 295 294 296 294 288 285 283 281 283 280 278 280 281 286 288 287 287 285 285 280 283 274 286 276 267 273 276 276 275 276 276 275 274 274 273 273 275 275 274 274 273 272 271
296 296 296 297 298 297 299 299 299 299 298 294 289 284 285 280 275 272 275 278 279 282 285 286 284 283 286 287 284 284 280 278 284 275 268 269 275 276 275 275 274 274 274 273 272 272 271 270 269 270 268 268 268 266
295 295 297 298 298 299 299 299 297 294 290 283 277 267 271 265 269 269 274 273 279 282 283 285 283 283 285 282 283 277 281 282 274 270 264 270 273 274 274 274 272 271 270 268 266 266 266 266 265 266 265 265 265 265
294 293 294 298 299 299 297 295 293 287 283 278 276 269 268 272 273 273 275 278 280 282 283 284 283 281 278 273 276 276 271 266 268 263 264 270 273 273 272 272 270 268 264 264 263 264 263 264 265 265 265 266 266 265
293 294 290 295 296 295 294 292 289 286 281 278 275 272 274 270 270 271 274 276 281 281 283 283 276 271 271 268 269 266 269 263 262 266 270 272 268 269 269 269 267 265 265 264 264 265 264 263 264 264 265 265 264 263
295 288 294 296 296 295 294 286 284 280 277 274 271 274 269 270 268 270 272 276 281 279 273 276 269 268 273 267 266 268 261 261 266 268 268 268 269 268 268 269 268 268 267 266 265 265 264 264 265 266 264 265 267 267
288 292 295 296 295 292 288 284 280 278 274 273 271 271 273 273 271 273 275 277 278 278 277 274 275 268 260 263 262 264 267 269 271 270 270 269 269 268 269 265 265 266 266 264 265 263 263 263 265 265 266 266 266 267
290 292 295 295 292 286 282 280 280 274 275 275 276 276 275 273 275 275 276 277 277 278 277 273 267 266 266 268 266 266 265 266 267 269 270 270 270 270 269 268 268 267 268 266 267 266 265 266 267 268 268 267 265 265
295 295 294 294 292 284 281 279 282 277 273 275 276 274 274 273 274 273 273 275 275 273 269 267 267 267 267 267 265 265 264 268 269 267 266 267 264 265 266 270 270 271 271 271 271 271 270 270 270 270 270 269 267 266
292 291 292 289 285 283 281 279 278 278 278 275 276 276 272 274 271 270 270 274 269 268 266 267 265 269 269 266 267 269 267 269 264 267 265 266 267 269 269 267 271 271 269 268 267 267 269 268 269 268 266 264 263 263
288 292 285 286 282 281 280 280 279 279 279 278 277 277 270 266 265 268 272 267 266 266 264 266 266 266 268 267 266 267 269 272 271 271 270 269 268 269 268 268 269 267 268 267 269 267 267 269 268 266 263 261 264 264
289 287 281 281 276 274 275 282 276 279 273 275 276 272 269 267 270 273 263 268 266 267 267 269 268 266 269 265 269 269 269 271 270 270 270 269 268 268 269 270 270 268 267 268 269 268 268 268 266 262 262 262 261 257
284 277 273 272 274 269 273 272 279 276 275 272 270 266 267 266 270 263 262 261 265 270 268 267 269 268 268 269 265 265 265 268 267 266 265 267 267 268 269 269 269 269 270 269 268 264 264 261 260 260 258 256 255 256
272 269 270 265 270 267 264 264 267 270 264 266 264 264 265 269 260 258 260 263 267 266 268 269 269 268 264 260 264 264 268 268 266 265 265 267 264 264 265 265 264 265 266 260 256 254 254 256 260 261 260 258 260 258
263 264 266 264 265 267 267 263 262 263 262 260 261 265 263 259 256 256 264 263 261 263 262 269 265 265 265 266 264 264 264 267 267 264 264 266 265 261 259 259 258 260 262 256 255 252 252 251 252 255 254 257 257 252
261 261 270 275 274 273 265 266 269 264 258 259 261 257 257 252 254 261 266 265 266 263 266 268 270 268 266 265 266 265 265 265 265 265 265 264 264 263 262 259 259 260 260 256 256 256 254 251 250 249 250 249 250 252
265 267 263 261 263 266 259 258 256 257 258 266 263 255 256 258 260 266 265 264 266 269 268 268 268 268 266 265 263 262 260 260 262 261 261 262 260 257 255 255 256 260 252 251 252 256 253 253 251 250 249 251 251 246
261 264 265 258 260 261 262 259 258 263 266 263 256 256 260 266 263 265 264 265 267 268 265 263 259 259 259 259 256 256 254 258 257 254 252 251 250 256 253 251 251 251 250 253 259 255 259 255 254 255 253 252 254 248
262 265 259 255 256 259 260 261 259 259 264 263 266 268 265 264 265 261 266 263 263 262 260 262 258 258 255 255 251 253 249 248 253 257 252 250 254 254 252 250 251 249 249 250 251 252 258 252 254 251 250 250 252 251
266 261 258 259 260 261 262 258 258 258 256 257 256 258 260 262 267 263 260 258 259 259 260 256 252 250 255 252 249 249 251 251 248 249 252 252 249 250 250 249 248 249 249 250 249 248 247 246 246 247 249 249 248 248
256 254 258 258 261 262 261 257 255 255 252 256 255 253 256 256 256 260 261 262 260 256 254 258 257 256 252 249 248 248 253 253 250 251 251 249 248 247 247 248 246 247 247 247 247 247 246 246 246 247 247 247 246 245
255 253 253 257 258 259 259 258 259 260 258 258 258 257 255 256 256 260 261 259 261 261 260 257 253 255 254 253 253 250 249 248 248 257 253 253 250 250 246 244 245 246 249 247 246 246 247 247 245 245 244 244 244 243

GFSWCAN_sfc_thetae_105.txt.gz
Theta_e
297 297 297 297 297 296 295 295 296 296 295 296 297 299 299 300 302 300 295 295 290 285 286 289 288 285 285 286 282 285 284 286 285 282 281 282 280 282 282 284 282 282 280 280 281 278 275 289 291 287 288 290 290 289
296 296 296 297 296 296 295 295 295 296 295 295 297 298 299 300 301 302 293 296 296 289 288 292 292 292 290 290 287 286 285 286 286 283 284 285 282 283 282 279 288 282 285 283 283 283 288 290 288 289 291 288 287 288
294 295 296 296 296 296 295 295 295 296 295 295 296 298 299 300 301 301 294 295 293 287 287 288 287 293 295 294 295 285 287 291 289 291 287 285 281 285 281 282 284 288 289 285 286 287 287 287 287 288 288 286 286 286
293 294 295 296 296 295 295 295 295 295 294 295 296 298 299 300 301 301 294 296 293 289 282 284 291 289 294 294 294 294 292 293 293 292 286 283 281 289 285 286 285 286 287 283 284 286 287 286 287 286 285 286 284 283
293 293 294 295 295 295 295 295 295 295 294 295 297 298 299 300 301 301 297 296 296 290 283 284 289 291 293 292 291 292 291 289 288 285 285 283 288 287 288 288 283 285 281 280 279 284 284 283 284 285 282 281 281 282
292 292 293 294 295 295 294 295 294 294 294 295 296 298 299 300 301 294 286 295 297 296 287 280 288 288 290 290 289 289 290 289 289 287 285 288 290 288 283 282 283 285 284 284 282 285 285 284 284 284 281 280 279 279
291 292 293 294 295 294 293 294 294 294 295 296 297 298 299 301 297 290 288 293 298 296 287 281 281 287 291 289 288 289 291 290 289 288 287 288 288 290 284 281 282 283 283 283 284 286 282 283 281 282 281 280 280 278
291 292 293 294 294 294 294 294 294 295 296 297 298 299 300 301 298 292 296 299 298 292 289 280 280 283 293 287 286 292 287 289 289 289 289 287 288 287 281 280 280 280 282 281 282 285 283 283 281 280 281 280 278 277
291 292 293 294 294 294 294 293 294 295 296 297 299 300 298 293 288 291 299 299 298 291 282 282 278 277 292 288 289 288 289 282 289 286 287 288 283 279 278 278 277 277 277 277 280 281 281 279 278 277 277 277 277 276
291 292 293 294 293 293 294 293 295 295 296 298 297 291 284 288 299 298 289 287 287 289 289 282 285 280 287 286 285 286 287 284 282 285 287 283 276 277 277 277 277 276 276 277 278 276 276 277 276 275 275 275 275 274
292 293 293 293 293 293 294 294 295 296 296 293 285 285 292 298 292 287 283 283 283 281 284 285 285 283 289 284 284 287 283 284 279 283 282 277 274 275 277 276 276 276 275 275 275 276 276 276 276 275 274 273 273 272
293 293 292 292 293 294 294 295 295 294 294 290 292 295 293 289 285 282 280 282 280 279 282 282 284 288 288 288 285 285 283 284 279 284 279 273 273 275 276 275 274 275 274 273 273 273 273 273 274 273 272 271 270 270
292 292 293 293 293 294 295 297 298 298 296 295 290 285 285 281 279 276 274 278 278 280 283 285 284 287 287 288 285 284 281 280 284 276 270 271 274 275 275 274 273 273 272 271 271 271 270 268 268 269 267 267 267 266
293 293 293 294 294 296 297 299 299 295 289 284 281 274 277 273 272 273 276 279 281 283 286 286 284 285 285 283 281 280 280 283 275 271 268 272 273 273 274 273 271 269 268 267 266 267 266 266 265 265 265 265 265 265
293 294 295 295 297 297 295 294 292 288 283 278 278 271 268 272 274 275 278 281 281 283 285 284 282 283 278 278 275 278 275 269 269 268 269 272 273 272 271 271 269 267 265 265 266 265 264 265 265 265 265 265 265 264
294 294 295 297 295 295 294 291 288 285 281 277 273 272 274 272 273 275 277 278 281 282 284 282 277 274 272 271 271 267 271 268 267 268 272 272 270 269 269 269 267 266 266 265 266 266 265 264 265 265 265 264 264 264
293 291 296 296 295 293 292 285 283 279 276 274 270 271 269 268 269 273 275 276 280 280 276 277 272 270 273 268 266 267 266 267 268 270 271 271 269 268 267 268 267 267 267 267 267 267 266 267 267 267 265 266 266 265
290 293 295 295 292 289 286 283 279 277 272 272 268 269 269 269 270 272 275 277 279 277 275 272 274 268 265 266 265 266 269 270 271 271 271 271 271 271 270 268 268 268 268 268 268 268 267 267 267 267 267 267 267 267
292 293 296 294 291 284 281 281 281 273 273 273 274 274 273 272 274 274 276 277 277 277 275 272 266 266 266 266 266 266 269 271 270 270 270 269 269 268 268 268 268 269 269 269 269 269 269 269 269 269 269 268 267 267
295 295 294 294 291 282 279 279 282 276 272 273 275 273 273 272 273 273 273 274 274 273 269 267 266 268 270 270 271 271 270 272 271 269 269 269 269 268 270 271 271 271 271 271 271 270 270 270 271 270 270 269 268 267
291 291 291 288 284 283 281 279 277 277 276 273 274 274 272 273 271 270 270 273 269 267 266 268 268 269 270 267 269 271 270 272 271 271 270 270 270 272 271 272 272 272 271 271 271 270 270 270 270 270 269 267 267 267
288 291 285 286 282 281 279 280 278 278 277 275 276 275 270 268 267 269 271 267 267 267 268 268 268 269 269 270 270 270 268 270 270 270 269 270 270 270 270 271 272 270 270 270 271 269 269 269 269 267 266 265 265 266
288 286 282 281 276 276 275 282 275 278 272 274 275 271 268 267 270 272 265 268 268 268 269 269 268 268 269 269 270 271 270 271 269 269 269 269 269 270 271 270 271 270 269 269 271 270 269 267 265 266 265 265 265 264
283 276 272 271 274 270 272 270 277 274 273 270 269 265 266 266 269 265 263 264 267 271 269 268 270 269 270 269 268 268 268 269 268 268 268 269 268 268 269 269 269 269 269 269 268 267 266 265 263 265 263 263 262 263
273 269 269 264 269 267 264 263 265 268 262 264 265 264 264 268 262 260 263 265 268 268 268 270 270 269 267 265 266 267 269 270 269 267 267 269 267 267 266 266 266 266 267 267 265 264 262 263 263 263 262 263 263 262
265 265 267 264 265 267 266 263 261 261 262 260 261 264 263 262 260 260 264 264 264 266 265 266 266 267 267 268 267 267 268 269 269 266 265 267 267 266 265 265 265 265 264 263 263 263 262 260 262 263 263 262 261 262
262 261 269 271 271 270 264 264 267 263 259 260 262 258 260 259 258 263 265 266 268 267 269 269 270 270 268 266 266 266 266 266 267 266 265 264 264 265 265 264 264 265 263 262 262 263 264 262 261 260 260 259 260 261
264 266 262 261 261 265 258 258 257 258 259 266 263 258 260 260 262 265 267 265 267 270 268 268 269 268 267 266 264 263 262 262 262 263 264 264 262 261 260 260 261 259 259 259 260 260 261 261 261 260 260 262 260 257
260 263 264 256 258 260 260 258 260 264 266 262 258 258 261 265 263 265 266 267 269 268 265 263 260 261 260 260 259 261 263 263 262 259 259 260 260 262 259 259 259 259 259 263 262 261 260 259 259 260 260 260 259 255
260 264 258 254 255 257 258 261 261 261 263 263 265 265 264 264 264 264 266 266 267 266 263 264 260 262 261 261 259 259 257 257 259 262 261 260 261 260 259 260 260 258 258 261 261 260 260 259 259 258 258 258 259 259
262 260 257 258 257 259 260 258 256 255 255 257 253 259 261 263 266 264 263 259 261 261 261 259 257 259 260 259 260 259 259 258 253 255 257 257 257 258 258 257 256 256 258 259 259 258 258 257 256 257 258 257 255 256
255 252 256 256 258 259 259 255 253 255 254 257 257 253 257 259 260 263 259 259 261 262 259 262 262 260 259 259 258 258 256 258 255 255 256 257 258 255 255 255 253 255 257 256 256 256 255 256 256 256 257 256 255 254
251 251 252 255 257 257 256 258 258 257 255 255 256 253 255 258 259 262 260 259 263 265 263 263 261 261 259 259 259 256 256 255 253 258 253 254 252 253 254 254 255 255 256 256 255 255 255 255 255 254 253 253 252 252

GFSWCAN_sfc_thetae_108.txt.gz
Theta_e
296 297 298 298 298 298 297 297 296 296 296 297 296 297 298 300 300 299 296 297 293 287 290 292 292 289 290 289 285 289 288 289 289 284 284 284 284 286 285 286 285 284 283 284 284 280 278 291 294 289 290 292 292 291
295 296 297 297 298 298 297 297 296 295 296 296 296 296 298 299 300 301 294 297 297 289 292 296 297 297 295 294 290 290 288 288 290 286 288 287 285 288 286 282 290 284 287 284 286 285 289 290 288 291 294 292 291 291
294 294 296 296 296 297 297 297 296 296 296 296 296 296 297 299 300 300 296 296 292 287 289 290 291 297 299 298 299 288 290 292 292 295 289 288 283 286 283 285 287 290 290 286 286 286 287 287 289 289 291 290 290 291
293 294 294 295 296 296 296 296 296 296 296 296 295 296 297 299 300 300 296 296 293 290 285 289 296 294 298 299 298 297 295 297 296 294 290 287 284 291 288 289 287 288 289 284 285 286 285 285 286 287 287 288 288 287
292 293 293 294 295 296 296 296 296 296 296 295 295 296 297 299 300 301 299 297 297 291 287 289 295 296 297 297 296 297 295 293 291 287 287 285 289 289 291 290 286 287 282 282 282 284 284 284 285 286 284 284 285 286
292 292 293 294 294 295 296 296 296 295 295 295 295 296 297 299 300 295 287 296 298 296 289 285 294 292 295 296 295 294 294 291 290 288 288 290 291 288 285 285 284 286 285 285 284 285 285 284 285 285 283 282 282 283
292 292 292 293 294 295 295 295 295 295 295 295 295 296 297 299 299 291 293 298 299 297 289 284 287 292 294 294 292 290 292 291 290 289 289 290 291 292 287 283 283 284 284 285 287 287 283 284 281 283 283 282 281 281
291 291 292 292 294 295 295 295 294 294 294 294 295 297 298 299 299 293 298 300 298 293 291 283 285 287 294 289 288 293 288 290 291 290 290 288 290 291 283 282 282 283 284 283 285 285 283 283 282 282 283 283 281 281
291 291 292 292 293 294 295 295 294 294 294 295 296 297 297 294 288 292 300 299 300 293 284 283 283 283 295 290 292 290 290 284 293 287 290 289 287 283 280 281 280 280 279 279 282 283 282 281 280 280 281 281 280 279
291 291 292 293 293 294 295 295 294 294 295 296 294 289 285 289 299 298 290 287 288 289 291 284 290 286 291 287 288 288 289 285 282 286 292 287 281 279 280 280 280 279 279 281 280 279 279 279 278 278 278 278 278 277
291 291 291 292 294 294 294 294 294 294 295 291 285 286 295 299 295 288 285 284 286 283 286 288 289 288 293 286 286 289 284 287 280 286 285 283 279 277 279 279 279 279 279 278 279 278 278 278 278 278 276 276 276 275
291 291 291 293 294 294 294 293 294 293 290 291 292 296 294 290 287 284 283 285 282 282 287 284 286 288 291 292 288 287 285 286 280 288 284 280 275 278 278 277 277 277 277 276 276 275 275 276 276 276 275 274 273 272
291 292 293 294 294 293 293 294 294 294 293 293 291 285 286 285 281 280 277 279 281 287 287 287 285 290 289 290 286 286 283 283 288 283 279 276 277 277 277 277 276 276 275 275 274 273 273 271 271 272 270 270 271 269
291 293 293 293 293 294 294 294 295 294 290 284 284 278 282 280 283 285 285 286 288 289 288 290 287 288 289 285 285 281 283 285 281 277 274 275 276 276 276 276 274 272 271 271 270 270 269 269 268 268 269 269 269 268
292 292 293 293 294 293 294 295 295 290 287 281 284 279 278 280 281 282 284 286 285 287 288 287 287 288 283 282 281 281 280 276 276 275 275 276 276 275 274 273 272 270 269 270 270 269 268 269 268 268 269 270 269 269
293 292 291 293 294 295 293 290 288 287 283 280 278 277 279 280 279 281 284 282 283 285 289 290 283 281 278 279 277 273 276 276 273 275 275 276 274 273 272 272 271 271 271 270 270 270 269 269 269 269 269 268 268 268
292 291 295 295 295 293 292 288 285 280 279 277 276 278 279 281 279 278 281 282 284 285 284 285 280 276 280 277 273 275 275 274 275 275 277 276 274 272 271 271 270 271 271 271 270 270 270 271 271 271 269 269 270 269
292 294 293 294 292 290 288 287 283 279 274 277 275 275 277 278 279 279 281 282 284 283 283 278 281 274 275 274 274 274 274 275 276 276 275 275 274 273 273 272 271 272 272 271 271 271 271 271 271 271 271 270 270 270
293 294 295 294 292 288 284 283 284 276 276 277 278 278 278 277 278 279 281 281 283 283 281 279 276 276 275 275 275 275 275 275 274 274 274 274 274 272 272 272 272 273 272 272 273 274 274 273 273 273 273 273 272 272
295 294 293 293 293 286 281 281 286 279 276 277 279 277 277 277 278 279 279 279 279 279 276 274 274 275 277 276 278 277 277 277 276 273 273 274 275 273 274 275 275 275 274 274 274 273 274 274 275 275 274 273 273 271
293 292 292 292 288 287 283 281 279 279 278 276 278 278 276 277 276 276 276 277 275 273 273 274 274 274 276 277 279 279 278 278 277 277 275 274 275 276 276 276 276 276 276 275 275 274 274 274 274 274 274 272 272 272
291 291 289 290 285 284 282 284 280 281 279 278 278 278 276 275 274 274 275 273 272 272 275 275 275 275 275 275 277 278 276 277 277 276 276 276 276 276 276 276 276 275 276 276 275 275 274 274 274 274 272 271 271 271
290 289 287 285 281 281 279 286 280 280 276 276 277 274 273 273 274 275 272 273 273 274 275 275 274 276 275 275 275 275 276 277 277 277 276 277 277 277 276 276 277 275 274 274 275 274 273 270 270 272 271 271 271 270
285 280 278 279 281 276 280 279 281 278 277 275 273 270 271 273 273 273 270 272 274 275 274 273 275 274 275 275 275 275 275 277 276 275 276 276 275 274 275 275 275 275 275 274 274 273 273 272 269 271 270 270 270 269
279 274 277 274 278 276 275 275 274 275 272 273 271 270 271 273 271 270 270 271 273 274 274 275 276 276 275 274 274 274 274 276 275 274 274 275 274 273 272 273 273 273 274 274 272 272 271 271 270 270 269 269 268 267
271 271 274 274 275 275 275 272 273 272 272 271 271 272 273 271 269 270 271 273 274 274 274 275 275 274 274 275 274 274 274 275 275 273 272 274 274 274 273 271 271 271 272 273 273 271 270 269 269 268 268 267 265 267
271 271 273 274 276 275 274 274 274 274 271 270 271 269 270 269 270 270 272 275 274 276 277 277 277 276 274 273 273 273 273 273 273 272 271 271 271 272 273 272 270 271 271 271 271 271 270 269 268 268 268 269 268 268
271 272 271 270 270 271 269 270 271 270 271 272 272 269 269 271 270 272 274 275 277 277 276 276 277 276 275 274 273 272 270 269 268 269 270 269 269 269 268 269 268 265 268 268 270 269 270 270 268 267 267 268 267 267
269 271 271 264 266 267 267 267 269 270 270 272 271 268 267 269 270 272 272 275 277 275 273 271 270 271 270 270 271 271 271 270 269 266 267 268 268 268 268 269 269 269 270 269 266 267 266 268 267 268 266 268 267 266
268 271 267 264 264 265 267 268 269 269 269 270 271 269 269 270 270 271 272 274 275 274 274 273 270 271 269 269 267 266 268 269 270 270 269 268 269 269 268 268 268 267 269 269 268 266 265 266 265 265 265 265 266 266
269 271 267 267 266 268 268 267 268 268 269 269 268 270 268 270 271 271 272 272 272 271 270 269 269 270 269 268 269 267 266 267 264 264 267 268 267 268 267 267 267 268 268 267 267 267 266 266 266 264 264 263 262 263
268 266 267 265 266 268 269 269 269 270 270 270 268 268 268 270 269 270 268 270 270 271 270 270 268 268 270 271 269 269 265 267 264 264 264 266 267 266 265 265 264 266 266 265 265 265 262 262 264 264 264 261 261 260
265 267 266 267 267 266 268 269 268 267 269 269 268 268 268 269 267 270 267 269 272 272 270 271 272 269 267 267 267 265 265 265 264 264 263 263 263 264 265 265 265 265 264 265 264 264 262 260 261 260 260 259 259 259

GFSWCAN_sfc_thetae_111.txt.gz
Theta_e
297 298 298 299 300 299 299 299 298 298 297 298 297 297 298 299 300 301 298 299 293 290 293 295 295 292 291 291 286 291 290 291 290 285 285 285 285 287 286 287 285 285 284 284 286 282 279 293 294 286 288 293 293 293
296 296 297 298 299 299 299 298 298 298 297 297 297 297 297 298 299 300 295 298 299 290 291 299 299 300 298 295 292 292 289 289 290 287 289 288 285 288 286 282 292 285 287 283 287 284 289 291 289 291 293 292 293 292
295 296 297 297 298 298 298 298 298 297 297 297 297 296 296 297 299 300 299 297 293 288 289 291 293 300 302 301 302 290 292 293 293 296 292 290 285 291 284 285 288 291 293 288 288 284 285 287 289 291 292 292 292 293
294 295 295 296 297 297 297 297 297 297 296 297 297 296 296 297 299 299 297 297 294 291 287 292 301 298 301 302 301 300 297 297 296 296 290 288 284 292 287 289 287 290 291 286 285 286 287 287 287 289 289 290 291 290
293 294 294 295 296 297 297 297 297 297 296 296 296 296 296 297 299 301 303 299 298 293 288 290 298 299 300 299 298 299 296 294 290 289 289 286 291 290 292 291 286 289 283 284 282 284 286 285 287 288 286 286 288 288
293 293 294 294 295 296 296 297 297 297 296 296 296 295 296 297 298 298 289 298 299 297 288 287 297 295 297 298 297 296 295 293 291 289 288 290 293 291 285 286 285 286 287 286 285 286 286 286 286 287 285 284 285 286
292 293 293 293 294 295 295 296 296 296 296 295 295 295 295 297 298 292 291 296 299 298 289 287 288 294 296 296 294 293 294 292 290 288 288 289 291 290 288 285 285 285 286 286 288 287 284 285 283 285 285 285 285 284
293 292 292 293 293 294 295 296 296 296 296 295 295 295 296 297 297 293 300 300 299 292 293 285 287 290 296 289 288 292 288 291 290 289 292 289 293 291 285 284 285 285 285 285 286 286 284 284 284 284 285 285 284 283
293 293 293 293 293 294 295 296 296 295 295 295 295 295 296 293 290 293 300 300 300 294 288 285 284 285 295 293 292 291 292 286 293 288 289 291 289 284 283 284 283 283 283 282 285 285 284 282 282 281 282 283 283 282
293 293 293 293 293 294 295 296 295 295 294 294 294 289 285 290 299 298 291 287 288 290 292 286 292 288 293 291 290 288 289 287 282 288 293 288 284 283 283 283 283 283 282 284 283 282 281 280 280 279 279 280 280 280
293 292 293 292 292 294 295 295 295 294 294 291 286 286 296 299 294 289 285 286 287 285 289 290 291 289 296 287 287 292 287 288 282 287 285 285 281 280 282 281 282 282 282 281 282 281 281 280 280 280 278 278 278 277
292 292 292 292 292 293 295 295 295 294 291 292 293 294 294 290 287 285 284 287 285 284 289 287 288 291 293 295 290 289 285 288 281 291 284 281 278 280 280 280 280 280 279 279 279 277 277 277 278 278 277 275 274 274
293 292 292 292 293 294 295 295 295 295 294 291 288 284 286 286 283 281 279 281 283 289 289 289 287 291 293 294 289 286 283 283 292 284 281 278 278 279 279 279 278 278 278 277 276 275 274 272 273 273 272 273 273 272
292 292 292 292 293 294 295 295 294 294 290 285 284 280 283 281 285 286 287 288 292 293 290 290 290 289 291 286 287 282 287 287 282 280 277 278 278 278 278 278 277 274 274 273 272 272 271 271 270 271 271 272 272 270
292 292 292 293 294 294 294 294 294 290 288 283 284 282 282 284 286 285 288 288 288 292 293 290 290 289 287 284 284 284 281 280 280 277 277 278 278 277 276 275 274 272 272 272 273 271 271 271 271 271 271 272 272 271
292 292 292 294 294 294 294 294 290 288 286 282 281 280 282 283 282 284 285 284 287 290 294 293 286 284 282 284 281 280 279 279 277 277 278 278 276 275 274 274 273 273 273 273 273 273 272 271 271 271 272 271 271 271
293 290 293 294 294 293 292 288 287 283 281 279 279 282 283 286 284 283 286 285 289 288 285 288 282 281 284 281 278 281 278 278 277 278 279 277 276 274 274 273 273 273 273 273 273 273 273 273 273 274 272 272 272 272
290 293 294 294 292 289 289 288 284 281 276 280 279 280 281 283 283 283 285 287 288 288 289 282 287 280 280 279 279 277 277 279 279 278 277 276 276 275 276 274 274 274 274 273 273 273 273 273 274 274 273 273 273 273
293 294 295 294 292 289 284 284 286 278 278 280 280 282 282 281 283 284 285 287 289 289 287 285 281 282 280 281 279 278 277 278 276 276 276 276 276 275 275 275 275 275 274 275 276 276 276 275 275 275 275 275 274 274
294 294 295 292 292 288 282 282 288 282 279 279 281 280 281 281 282 283 284 285 285 285 281 280 280 279 280 280 281 280 280 279 278 275 275 275 276 275 276 277 277 276 276 276 276 275 276 276 277 276 276 274 275 273
292 292 292 292 291 289 286 284 282 281 281 279 281 282 279 282 281 282 281 284 283 281 279 279 277 279 281 282 281 281 280 280 279 279 277 275 277 278 277 278 277 278 278 278 278 276 275 276 276 276 276 274 275 274
293 292 293 293 288 286 284 287 283 284 281 280 281 282 280 279 279 280 281 281 278 277 280 279 278 278 279 279 280 281 280 280 280 280 279 278 277 277 277 278 278 277 278 278 278 277 276 276 276 276 275 273 273 273
292 293 290 288 284 283 280 289 281 282 278 279 281 278 278 279 279 280 277 278 276 279 280 279 280 281 278 278 278 279 279 280 279 278 279 279 279 279 279 278 279 277 276 276 277 277 276 271 273 275 273 274 273 272
288 284 282 283 283 278 283 280 283 280 280 278 277 273 275 277 278 278 276 278 276 278 277 277 278 278 278 278 278 278 279 280 279 279 279 278 277 277 277 277 277 277 277 277 276 276 275 275 271 273 273 273 273 272
282 277 281 277 282 280 278 278 278 278 275 277 274 274 275 277 276 276 275 275 276 277 277 279 279 279 278 279 278 278 279 280 278 277 278 279 278 277 276 276 276 276 277 276 274 275 274 274 273 273 272 272 270 269
275 276 277 278 279 279 279 276 277 276 277 275 275 277 277 276 273 274 277 277 278 277 278 279 279 279 279 279 277 277 277 280 279 277 276 278 278 277 276 274 274 274 276 276 275 274 273 272 272 269 270 269 268 269
275 275 277 279 280 280 278 279 280 279 276 274 276 274 275 272 274 275 279 280 279 280 281 282 281 280 279 279 279 278 278 278 278 277 276 276 275 276 277 275 273 274 275 274 274 273 273 271 271 270 270 272 271 270
275 276 273 275 276 278 275 276 276 274 276 278 278 273 273 275 275 276 280 281 282 281 281 281 282 281 280 278 278 277 275 274 273 274 274 274 274 274 273 273 272 269 272 271 273 273 273 272 272 270 270 270 270 270
275 276 276 268 272 273 273 273 274 274 274 277 277 274 272 273 274 275 278 281 282 281 278 278 278 280 278 277 277 277 276 275 272 269 269 271 270 270 272 272 271 272 273 271 268 270 269 271 271 271 268 271 270 270
272 276 273 269 269 270 272 273 273 273 274 275 275 273 273 273 273 275 279 279 278 277 278 277 276 276 274 274 273 273 276 276 275 274 272 271 272 273 271 271 271 271 272 272 270 269 267 269 268 268 268 268 268 268
275 276 273 273 271 272 272 273 274 274 275 274 275 276 273 272 273 276 278 279 280 279 277 275 275 276 274 273 272 270 270 272 271 271 273 273 272 272 271 271 272 272 272 271 270 270 269 268 269 267 267 267 266 265
274 272 272 269 270 272 274 274 275 275 275 275 273 274 273 274 272 273 275 276 276 276 275 276 275 274 276 276 276 273 272 273 270 269 269 271 271 271 270 269 269 270 270 269 269 268 266 266 267 267 267 266 265 265
273 273 273 272 271 270 273 273 272 271 273 273 273 275 275 275 271 272 273 275 276 277 276 276 276 275 273 272 271 270 270 270 269 269 269 269 268 268 269 269 269 268 267 268 268 267 265 263 264 264 263 263 263 263

GFSWCAN_sfc_thetae_114.txt.gz
Theta_e
299 299 299 300 300 299 300 300 299 299 299 298 298 297 298 298 299 300 300 302 295 289 292 295 295 291 292 291 286 291 289 290 290 285 285 284 284 286 285 287 286 283 282 280 283 281 278 289 292 285 288 291 292 291
297 298 299 299 299 299 299 299 299 299 299 298 298 297 298 298 299 299 296 301 300 290 291 296 297 299 298 297 293 292 289 289 290 287 288 287 284 287 286 282 291 283 287 283 284 282 287 289 288 290 292 290 291 291
297 297 297 298 299 299 299 299 299 299 298 298 298 297 297 297 298 299 299 298 293 288 289 292 294 300 302 301 302 290 292 293 292 295 290 288 284 289 283 284 286 290 292 286 286 284 285 286 289 290 290 290 291 291
296 296 296 297 298 298 299 298 298 298 298 297 297 297 296 297 297 299 298 299 294 290 286 291 302 297 302 301 301 299 297 298 296 295 289 288 285 291 286 288 287 289 290 286 284 285 287 285 287 288 289 289 290 290
295 295 296 297 297 298 298 298 298 298 297 297 297 297 296 296 297 298 301 299 300 292 287 290 297 299 300 299 298 298 297 293 291 289 288 286 289 289 291 291 284 287 283 283 280 283 285 283 286 288 285 285 286 287
293 294 294 295 296 297 297 298 297 297 297 297 296 296 296 296 297 297 290 301 301 299 289 285 297 296 298 298 296 296 296 294 292 290 289 291 293 290 286 284 285 286 286 286 284 287 286 286 286 287 285 284 285 285
293 293 294 294 295 296 296 297 297 297 297 296 296 296 296 296 298 291 290 295 300 299 289 286 288 295 297 296 296 295 296 294 292 289 287 288 290 291 287 284 285 285 285 286 287 287 284 284 283 286 287 286 286 285
293 293 293 294 294 295 296 296 297 297 296 296 296 295 295 296 296 292 297 299 300 293 291 285 287 290 296 291 288 293 290 292 290 289 290 289 291 291 285 285 286 286 286 285 285 286 284 284 284 284 286 286 285 282
293 293 294 293 293 294 295 295 296 296 296 296 295 295 295 293 290 293 300 301 301 292 286 287 283 284 295 292 291 290 291 284 291 287 288 290 288 284 284 285 284 284 283 284 286 285 284 282 282 281 281 281 281 281
293 293 293 293 294 294 295 295 296 296 296 295 294 290 284 290 299 300 293 287 287 286 290 286 290 287 293 292 289 288 289 286 283 287 292 287 281 283 283 284 283 283 283 284 283 282 281 281 281 279 278 279 279 278
293 293 293 293 293 293 294 295 296 296 295 292 287 286 295 299 295 290 285 284 286 284 289 290 290 289 296 288 286 290 286 288 281 286 286 284 279 280 282 281 282 282 282 281 282 281 281 280 279 279 277 277 276 275
293 293 293 293 293 293 294 295 296 294 292 291 292 294 294 290 287 284 283 286 285 283 290 288 290 292 294 296 290 288 285 286 280 291 285 280 278 281 281 280 280 280 280 278 278 276 276 276 277 276 275 274 273 273
294 294 293 293 293 293 294 295 295 296 295 292 290 285 284 285 281 280 278 282 283 290 291 291 286 291 293 293 289 286 281 281 291 284 280 277 279 280 280 279 278 278 278 277 275 274 273 272 272 273 272 272 273 271
294 294 294 293 293 294 295 295 295 295 292 285 283 279 282 281 284 286 287 288 294 294 292 290 289 289 292 287 287 280 286 286 281 280 275 277 278 278 278 278 276 274 274 273 272 272 271 271 271 272 272 272 271 270
294 293 294 293 294 294 295 295 295 294 288 283 284 279 282 286 286 286 289 290 293 295 292 290 290 290 287 285 285 285 282 279 280 276 277 278 278 277 276 275 274 273 273 273 273 272 271 272 271 271 272 272 272 271
293 292 291 293 294 294 295 293 291 290 288 284 283 281 284 285 283 285 286 285 292 294 293 293 287 284 283 284 282 281 280 278 277 277 278 278 276 275 275 275 274 274 274 273 273 273 272 272 271 271 272 271 271 271
292 289 293 294 295 295 293 289 289 286 284 282 281 284 283 285 285 284 286 286 290 289 286 287 283 282 286 281 280 281 278 277 278 279 279 278 275 274 274 274 274 274 274 274 274 273 273 274 274 274 272 273 273 272
290 294 294 295 293 291 289 290 286 283 279 282 280 282 283 284 284 284 286 287 288 289 289 285 288 282 281 280 280 278 279 279 279 278 277 276 275 275 275 274 275 275 274 274 274 274 274 274 274 274 273 274 272 273
293 295 294 293 293 290 286 285 286 280 280 281 282 284 284 283 285 286 287 289 291 291 289 287 283 282 281 282 279 279 279 278 276 276 276 276 276 275 275 275 275 275 274 274 275 276 276 275 275 276 275 276 274 274
294 294 293 293 294 288 283 283 289 281 278 281 283 282 283 282 283 285 286 287 287 287 284 282 281 281 281 282 283 281 281 280 277 274 274 275 276 275 275 276 276 276 276 276 276 276 276 276 276 276 275 274 274 273
292 293 293 292 290 290 285 284 283 282 281 281 282 282 281 282 283 283 283 286 284 283 280 280 280 281 283 284 283 282 281 280 279 278 275 274 277 278 278 278 277 278 277 277 277 275 276 276 276 276 276 274 274 273
289 292 288 288 287 286 284 287 283 285 282 281 282 283 280 280 281 281 283 282 281 280 281 280 280 281 280 280 281 282 282 282 281 280 279 278 277 277 277 278 278 277 278 278 277 277 276 275 275 275 274 273 273 272
291 290 289 288 284 283 281 288 282 282 278 280 281 279 279 280 281 283 280 281 278 281 282 281 281 282 280 280 280 280 281 281 280 279 279 280 280 280 279 279 279 278 276 276 277 276 274 270 272 274 273 273 273 272
291 286 284 284 283 278 284 282 283 281 281 279 279 276 278 279 280 279 278 279 278 281 280 280 280 278 278 278 278 279 281 281 280 280 280 278 277 277 278 278 278 278 277 277 276 275 275 274 269 273 273 272 272 271
284 279 282 278 284 280 279 279 279 279 277 278 276 276 277 279 277 278 278 277 277 278 278 280 280 279 278 279 280 279 281 280 279 277 279 280 279 277 276 276 276 276 277 276 274 274 274 273 273 273 272 271 271 270
277 277 279 280 280 280 280 277 278 278 278 277 277 279 279 278 276 276 279 279 278 279 279 280 280 280 280 280 278 277 279 282 281 277 278 279 278 277 276 275 274 274 276 276 275 274 273 272 272 271 271 270 264 268
276 276 279 281 282 282 280 282 282 280 277 276 277 276 276 273 274 277 281 281 280 281 283 283 283 282 280 280 280 280 280 280 280 278 278 278 277 277 277 276 274 274 275 274 274 273 273 272 271 271 271 271 271 270
277 278 274 277 278 280 278 279 278 278 279 281 279 275 275 276 276 279 281 283 283 283 283 284 284 283 282 281 280 279 277 276 276 276 275 275 275 275 274 273 271 271 272 271 273 273 272 272 272 271 270 270 270 270
276 278 277 270 275 276 275 276 276 276 276 279 279 276 274 274 277 279 282 283 284 282 281 281 282 282 280 279 279 278 276 275 272 269 269 270 269 271 273 272 271 273 272 270 269 271 270 270 270 270 270 270 270 270
275 279 275 272 272 273 273 274 274 275 276 277 277 274 274 273 275 278 281 281 281 280 281 281 279 278 276 276 275 275 277 277 276 274 272 272 273 273 272 272 271 272 273 272 270 268 267 268 268 269 268 268 268 268
278 279 275 276 273 273 273 274 275 276 277 276 278 277 272 272 275 276 277 281 281 280 279 276 276 277 276 276 275 273 273 275 273 274 275 274 273 273 272 272 273 272 272 271 270 270 268 268 268 268 268 267 267 265
277 275 274 272 272 273 275 276 276 276 275 275 274 274 273 274 271 274 276 278 280 277 277 277 276 276 278 278 278 276 275 273 271 272 272 272 273 272 272 271 271 271 271 270 269 269 267 267 267 267 267 267 267 266
275 275 275 274 272 273 274 275 274 273 275 274 274 276 276 275 270 271 275 276 275 278 277 278 278 277 276 274 274 273 273 272 271 272 272 272 270 270 270 270 270 270 268 268 268 268 266 265 266 266 265 264 264 264

GFSWCAN_sfc_thetae_117.txt.gz
Theta_e
301 301 301 301 300 300 300 300 300 300 300 299 299 299 299 299 300 297 294 298 290 286 287 292 293 289 288 286 281 285 283 284 282 278 281 279 278 282 282 286 284 280 277 274 279 277 275 288 287 282 286 290 290 290
299 300 300 300 300 300 300 300 300 299 299 299 299 299 298 299 299 298 293 299 298 289 288 292 292 294 293 292 288 287 285 285 285 279 280 281 278 281 281 280 289 281 284 281 281 280 286 287 287 289 290 287 288 289
299 298 297 299 300 300 299 299 299 299 299 299 299 298 298 298 299 297 292 295 293 288 287 286 288 295 298 296 296 285 287 290 289 291 284 283 278 279 279 279 284 288 290 282 284 284 284 285 286 288 288 288 289 288
298 298 298 299 299 298 298 299 299 299 299 298 298 298 298 297 297 297 292 295 293 290 283 286 299 294 299 298 297 295 293 293 291 289 284 281 280 286 280 283 284 285 285 279 282 283 284 284 285 286 286 287 287 288
297 297 297 298 299 299 299 298 298 298 298 297 297 298 297 296 297 295 293 295 295 290 284 283 291 295 296 296 295 295 293 290 288 281 281 278 284 283 285 286 283 285 281 280 278 283 283 282 285 285 283 284 285 285
295 296 297 297 298 298 298 298 298 298 297 297 297 297 297 296 297 291 287 294 297 297 287 280 291 294 296 295 294 293 292 289 287 284 279 283 288 283 281 277 283 285 285 285 283 286 285 285 285 286 284 284 285 284
294 295 295 294 297 297 298 298 298 297 297 297 297 297 296 297 292 286 287 293 298 298 288 281 282 292 295 293 291 290 291 289 287 285 282 283 284 287 281 276 283 284 285 285 287 287 282 283 282 285 286 287 285 284
294 294 295 295 296 297 297 297 297 297 297 297 297 297 296 296 294 288 294 298 299 292 290 281 280 285 293 287 283 288 287 289 286 284 284 283 285 286 279 284 285 285 285 285 284 284 283 284 283 282 283 285 282 281
293 294 294 294 295 296 296 297 297 297 297 296 296 296 292 288 284 287 300 300 298 291 284 284 279 274 292 288 288 287 288 282 286 282 282 283 278 277 282 282 282 283 282 283 285 284 283 281 280 280 280 280 278 277
294 294 294 294 295 295 296 296 297 296 296 296 291 285 279 285 299 297 292 287 287 288 288 283 285 279 287 283 284 283 287 283 277 281 286 280 276 281 281 281 282 281 281 281 281 277 278 278 278 277 276 276 276 275
293 293 293 293 294 294 294 296 296 296 295 288 284 282 289 298 290 288 282 282 283 282 283 284 285 280 289 281 279 283 284 283 277 281 282 281 276 278 280 279 280 279 278 277 276 275 275 276 276 275 274 274 274 274
294 293 293 293 293 293 294 295 296 292 288 288 288 293 291 287 284 280 280 280 281 279 281 281 282 286 286 289 284 285 281 281 276 285 280 274 276 278 278 277 277 277 275 274 274 273 273 274 274 273 273 272 272 273
293 294 293 293 293 293 294 295 296 296 294 291 287 284 283 283 277 275 273 277 275 281 283 282 278 284 285 287 279 282 280 278 281 278 275 274 277 277 276 275 274 275 275 274 272 272 271 270 270 270 268 267 268 266
294 294 294 294 294 294 294 295 295 294 290 281 280 272 277 278 279 277 278 279 283 284 285 284 281 281 281 282 284 279 279 283 277 272 272 275 275 275 275 275 273 271 271 270 269 268 267 268 267 266 264 264 263 263
293 294 294 293 294 294 294 295 295 292 283 281 282 272 278 284 284 285 286 284 285 286 285 282 282 284 281 279 282 279 278 272 276 270 271 274 274 274 273 273 271 270 268 267 266 266 266 266 267 266 267 265 265 264
294 293 291 294 294 294 294 295 291 289 285 283 281 277 282 282 281 284 285 285 287 282 283 282 279 281 276 281 279 274 276 272 274 273 274 274 272 271 271 271 271 270 269 267 267 268 267 265 264 263 264 264 261 261
293 287 293 294 294 294 293 289 287 282 279 280 279 281 281 282 283 283 285 285 287 283 281 283 277 279 281 276 278 278 274 269 274 274 274 273 271 269 269 270 269 271 270 269 268 267 266 267 268 270 267 264 265 264
286 290 294 294 292 289 289 289 283 282 279 279 274 280 281 282 283 283 284 285 286 285 283 281 281 277 274 276 274 275 274 275 275 273 273 271 270 269 270 266 267 268 267 266 266 265 266 267 269 265 266 267 269 268
290 291 294 294 291 288 284 283 284 279 278 278 279 281 281 281 279 280 284 285 286 287 285 280 275 278 277 276 276 276 274 273 272 272 272 270 271 269 268 270 268 265 266 266 268 271 267 267 268 270 272 273 269 268
294 294 294 293 294 286 282 282 286 280 276 277 279 278 281 280 280 282 284 284 284 284 281 276 278 278 274 273 275 276 275 275 273 271 270 269 272 269 267 269 269 267 269 268 268 270 271 271 273 271 270 270 270 269
292 292 294 292 288 288 285 283 282 281 279 277 280 280 278 278 277 280 279 282 281 278 275 275 279 279 275 277 279 278 276 275 272 272 270 270 268 271 272 274 271 271 271 272 271 266 268 268 269 271 268 263 264 263
291 292 289 289 285 286 283 285 282 282 279 279 280 280 278 278 279 279 280 278 276 273 274 273 277 276 275 274 275 276 275 277 276 275 273 272 273 271 271 270 270 271 271 268 272 271 270 270 268 268 263 260 266 262
292 290 286 285 282 281 280 285 280 280 273 278 281 277 275 276 277 280 275 278 272 274 275 277 278 276 276 273 276 275 275 277 275 274 274 273 273 273 272 271 274 271 269 269 273 271 266 266 264 262 262 262 266 260
291 285 283 282 282 278 282 281 283 281 279 277 277 274 277 277 277 274 275 273 271 278 276 276 278 276 276 277 273 272 274 277 275 274 276 276 274 273 274 273 272 272 274 273 271 269 267 261 261 263 261 259 259 259
280 278 280 279 281 279 277 276 277 278 274 275 272 271 273 275 269 272 276 272 275 276 277 277 276 276 274 271 272 272 277 278 276 274 273 275 272 272 272 272 272 272 272 267 263 264 261 261 260 262 262 259 264 260
277 278 277 278 279 278 278 275 274 275 275 270 270 273 272 270 269 268 274 274 275 276 276 276 275 275 275 276 275 274 275 276 277 273 273 276 274 271 269 268 267 266 269 267 267 265 264 261 260 261 258 259 259 257
275 273 277 280 280 281 276 278 280 273 269 268 270 269 268 264 266 270 274 274 275 275 279 279 279 277 277 277 277 275 275 277 276 275 274 274 273 272 271 269 267 268 270 267 264 263 266 264 259 259 258 260 263 258
277 278 270 274 273 277 273 271 270 269 271 276 274 267 266 266 268 273 276 275 277 279 279 278 279 279 278 277 275 273 272 272 272 272 272 271 270 269 267 266 268 269 264 262 261 262 263 263 261 259 258 259 260 257
275 277 272 264 268 270 269 269 270 271 273 273 269 267 267 271 272 271 277 275 277 278 277 276 276 277 275 274 273 272 272 271 268 264 262 262 262 264 265 264 265 265 264 263 268 265 264 262 260 259 259 258 258 256
270 276 269 266 264 267 267 270 269 269 272 271 272 271 270 267 270 275 277 278 275 279 279 276 275 274 273 272 270 268 267 268 267 267 267 266 266 269 268 267 266 267 265 263 260 260 265 260 262 258 258 257 256 255
276 277 271 271 268 269 267 268 268 269 269 270 271 268 265 267 271 274 273 276 278 277 275 274 273 271 272 271 270 270 270 269 268 269 270 270 270 270 269 269 268 266 268 267 263 261 258 258 258 261 260 257 256 256
271 270 267 267 266 267 269 272 273 273 267 269 266 265 265 265 264 270 272 272 276 273 272 272 271 271 271 273 272 270 270 269 267 269 268 270 270 269 269 269 269 268 267 265 263 262 261 260 260 259 257 257 255 254
270 270 269 267 265 267 267 269 271 267 272 271 271 272 271 267 262 267 271 270 271 273 273 271 275 274 272 271 270 269 269 268 267 271 270 270 268 268 267 266 267 267 266 265 264 263 261 261 259 259 257 256 255 255

GFSWCAN_sfc_thetae_120.txt.gz
Theta_e
301 301 301 301 300 300 301 301 300 301 300 299 299 299 299 300 301 295 293 294 288 281 286 290 292 286 287 285 280 284 281 283 280 277 278 277 277 280 281 284 282 280 277 277 277 275 272 285 285 280 284 286 288 289
300 300 300 300 300 300 300 300 300 300 300 299 299 299 299 300 300 297 291 297 295 286 284 291 291 293 292 291 286 285 284 283 284 277 277 279 277 279 280 275 288 280 283 279 280 279 285 286 285 287 289 286 285 285
300 300 301 300 300 300 300 300 300 300 300 299 299 298 298 299 299 296 292 295 291 287 285 285 288 294 295 293 293 284 284 289 288 288 282 281 277 277 275 277 281 286 286 281 282 283 283 284 285 287 287 286 287 287
299 299 299 298 298 299 299 299 299 299 299 299 299 299 298 298 299 296 290 295 292 288 281 283 295 291 296 295 293 293 291 294 292 287 282 279 279 284 279 282 281 284 282 281 280 283 283 283 284 284 284 285 285 286
298 298 298 299 299 298 299 299 299 299 299 298 298 298 297 297 297 293 291 293 294 288 280 282 288 293 294 295 294 293 291 288 284 279 276 277 282 281 282 284 278 283 280 276 272 278 283 281 284 284 282 283 284 283
297 298 298 298 298 298 298 299 299 299 298 298 298 298 297 297 296 289 282 291 294 297 285 279 287 289 293 293 292 292 290 290 285 282 277 279 286 281 274 280 283 285 285 285 283 284 283 283 284 286 283 284 284 282
296 297 297 298 298 299 298 298 298 298 298 298 298 298 297 297 290 286 284 293 298 297 286 281 280 290 293 292 289 288 293 290 287 284 281 281 282 284 277 277 282 284 285 285 286 285 280 283 281 284 284 286 284 282
295 296 295 297 298 298 298 298 298 298 298 298 298 297 297 296 293 286 293 298 299 292 289 281 279 285 291 284 282 286 285 289 287 283 282 281 283 282 276 282 284 285 285 284 283 283 282 282 282 281 283 283 280 278
295 295 295 294 296 297 298 298 298 298 297 297 297 296 290 286 282 285 296 299 296 291 283 282 278 277 290 285 284 285 285 277 283 279 281 281 276 271 279 281 280 281 280 282 284 283 281 279 277 278 278 277 276 276
294 294 295 295 294 296 297 297 297 297 297 296 289 281 273 282 294 295 292 287 287 288 287 282 283 277 285 277 283 281 286 282 277 280 284 277 275 279 279 279 279 278 278 283 277 276 277 277 275 274 274 275 274 274
293 294 294 295 295 296 296 297 297 297 295 287 277 282 285 294 288 285 281 281 283 281 283 284 282 279 286 278 276 280 282 283 277 278 279 279 275 277 278 277 277 277 276 275 275 275 275 276 274 273 273 273 273 273
293 293 293 294 294 295 296 296 296 291 286 286 286 291 288 284 282 279 278 281 281 277 278 278 280 283 283 285 280 284 281 281 277 284 282 273 274 276 276 275 274 274 273 272 273 272 273 273 273 272 272 271 271 272
294 293 293 293 294 294 295 296 295 296 293 289 286 284 282 276 275 275 273 277 272 278 278 279 277 284 286 285 282 275 279 278 279 274 271 273 276 274 274 274 273 274 273 272 271 271 271 270 270 269 266 264 265 265
294 294 293 293 293 294 295 296 295 293 284 278 279 271 277 275 274 276 276 276 280 278 281 280 278 281 279 279 273 271 277 282 277 270 270 272 274 273 274 274 272 270 269 268 266 266 266 266 265 264 262 261 263 265
294 293 293 293 293 294 295 295 295 290 281 277 280 271 270 281 283 282 284 285 285 280 283 280 280 281 277 280 281 280 278 276 274 269 267 272 272 272 272 271 270 268 265 265 263 263 261 262 264 261 260 260 261 259
293 293 290 294 294 294 295 295 290 287 281 280 280 273 276 280 280 283 285 285 286 281 279 281 279 279 279 280 278 277 276 270 269 270 272 272 271 270 270 270 268 267 267 265 265 265 264 262 262 261 260 261 258 258
293 287 293 294 294 294 293 288 286 280 278 278 273 274 275 280 281 283 285 284 287 282 275 283 276 278 280 278 276 279 275 267 272 273 272 271 270 268 268 268 267 267 266 265 263 264 263 263 263 267 264 261 263 263
284 290 294 293 292 290 287 287 281 279 277 274 272 275 279 281 281 280 283 285 286 283 281 281 281 278 275 276 271 270 274 273 270 271 270 269 268 267 269 266 266 267 266 264 264 263 263 263 266 264 264 264 265 265
287 291 294 293 291 288 284 283 283 275 274 274 274 277 280 279 280 280 280 284 285 285 284 279 273 273 271 269 267 267 272 269 271 266 263 263 267 267 266 266 266 263 265 263 265 266 265 267 268 267 267 270 266 268
294 294 293 293 292 287 282 280 284 280 275 275 277 278 278 274 274 273 282 283 284 284 281 277 271 273 271 269 269 274 272 273 272 270 269 264 264 267 267 269 267 265 266 265 266 267 267 268 269 269 269 270 267 265
291 291 293 291 289 287 282 280 280 280 279 276 280 280 275 276 277 280 279 282 281 276 271 269 275 270 268 271 276 275 274 274 272 271 270 269 267 270 267 267 268 267 268 266 266 264 270 268 268 270 264 259 259 260
287 292 288 288 284 284 282 284 281 280 279 279 279 278 274 272 276 280 278 275 273 271 271 272 274 270 274 272 274 275 274 274 272 272 270 271 268 269 269 268 269 268 270 269 270 267 267 269 268 266 263 259 260 260
291 290 285 284 280 278 277 284 278 279 272 275 279 275 272 272 275 279 270 275 271 271 271 272 271 272 273 267 274 274 274 274 272 272 272 272 271 271 272 270 271 271 270 268 272 269 266 265 265 261 259 260 258 256
291 284 280 279 280 277 280 276 281 280 278 276 275 271 276 274 278 271 271 270 269 272 274 273 276 275 275 276 274 274 275 275 273 273 274 273 272 272 272 272 274 273 272 272 271 267 265 261 260 260 256 256 257 257
279 278 279 278 280 277 274 275 274 274 267 270 272 268 273 273 266 265 269 268 275 275 276 277 276 277 275 271 272 273 275 276 274 273 273 276 271 272 272 271 270 272 272 268 264 264 260 256 256 258 257 255 259 256
275 276 274 277 277 276 274 269 269 268 272 270 267 270 268 265 267 267 271 266 273 277 277 276 275 274 274 276 275 274 275 277 277 275 274 276 275 273 270 268 267 266 268 269 265 262 262 259 257 260 257 258 257 255
270 274 278 281 280 281 273 274 277 270 265 265 267 264 264 263 263 267 271 270 271 271 278 278 278 276 275 275 275 273 276 277 275 274 273 273 273 273 273 270 268 270 268 268 267 265 264 262 260 260 258 255 257 256
275 277 273 274 273 275 270 269 267 268 266 272 270 265 264 263 265 269 273 272 271 276 277 277 277 277 276 274 272 271 271 271 270 270 270 269 267 265 264 267 268 270 267 266 264 263 265 263 261 259 257 260 257 253
274 276 274 267 268 269 267 267 267 269 271 270 264 262 263 269 268 269 271 273 275 277 276 274 273 273 271 270 268 271 272 271 269 266 264 261 261 263 263 264 265 266 267 266 267 265 264 263 263 261 262 262 260 255
271 275 268 263 262 264 263 265 264 263 268 268 270 269 267 267 270 273 273 274 275 276 273 274 273 273 271 270 268 266 264 263 268 271 268 265 266 265 264 264 265 263 264 266 265 265 268 263 264 260 261 259 258 258
273 273 266 264 262 262 261 260 261 263 262 265 263 262 262 264 270 271 269 270 275 275 273 272 270 268 270 269 269 267 265 264 264 265 265 267 268 267 267 266 267 266 265 263 264 262 262 261 261 260 260 258 257 257
266 264 263 261 260 261 261 264 264 262 260 260 260 257 260 261 261 265 267 268 268 268 271 270 271 268 268 269 267 265 266 266 265 266 267 268 269 268 268 267 266 268 267 264 264 265 263 263 262 262 262 262 261 260
262 259 258 259 259 261 261 263 266 265 267 263 262 263 262 257 257 259 265 267 267 267 268 270 269 267 266 265 264 262 263 264 265 269 268 268 267 268 267 266 266 266 265 264 263 264 263 263 261 261 261 260 259 258

GFSWCAN_sfc_thetae_126.txt.gz
Theta_e
301 301 301 300 300 299 300 300 301 300 299 298 299 299 301 301 300 295 293 292 287 282 285 289 291 286 285 283 279 282 279 280 279 275 277 276 276 279 279 281 282 279 278 276 277 273 269 283 283 278 282 286 284 283
301 300 300 299 300 299 300 300 300 300 299 299 299 299 301 300 299 297 290 293 292 286 285 289 291 291 290 288 285 283 281 282 282 276 275 278 277 277 279 274 283 274 281 279 280 278 284 284 283 285 286 285 284 284
300 300 300 299 299 299 300 299 300 300 299 299 299 299 300 300 300 297 290 290 288 283 283 286 287 291 292 291 291 282 283 286 284 284 280 279 278 276 274 276 279 284 284 281 280 282 283 282 284 284 285 283 283 283
300 300 300 299 299 299 299 299 299 299 299 299 299 299 300 299 299 296 290 289 288 284 280 284 291 288 294 292 290 289 289 290 288 284 281 277 278 282 278 280 279 283 283 280 280 282 283 282 283 282 283 284 283 282
299 300 299 299 299 299 298 298 299 299 299 299 299 299 299 299 298 294 290 290 290 284 279 282 286 290 292 291 290 290 288 287 282 278 275 276 281 279 281 281 274 283 280 275 277 281 282 281 284 285 281 282 282 281
298 299 299 299 299 299 298 298 299 299 299 299 298 298 298 297 294 288 282 290 293 291 281 278 285 286 290 291 293 290 288 287 285 281 276 277 283 280 272 273 281 284 285 286 282 284 282 282 283 282 282 282 281 279
299 299 299 299 299 299 299 299 299 299 299 299 298 298 297 296 291 284 283 292 296 291 280 277 280 287 291 291 286 290 292 288 286 284 281 281 281 283 278 276 281 284 285 285 286 284 280 281 277 282 282 280 280 278
298 299 299 298 298 298 298 298 298 299 299 298 298 297 296 295 292 288 295 298 295 288 285 274 278 284 292 286 284 287 287 288 287 285 283 280 282 280 272 280 283 284 284 283 281 280 277 277 276 277 279 278 276 275
296 298 298 298 298 298 298 298 298 298 298 298 297 294 289 286 282 287 298 297 294 287 278 276 276 276 289 285 285 282 283 280 282 278 280 280 275 276 276 283 282 281 282 281 279 278 276 275 274 274 274 274 273 273
297 296 298 298 298 298 297 297 298 298 298 295 288 282 276 283 294 297 291 286 284 287 284 278 281 281 287 282 282 278 284 280 276 279 281 276 279 276 278 278 278 278 280 283 279 277 276 274 274 273 273 273 273 272
296 297 297 296 297 297 297 297 298 297 292 285 278 278 285 293 287 282 276 277 281 279 281 281 281 281 284 278 278 278 281 282 276 278 277 273 273 275 277 276 276 276 276 275 276 277 277 276 274 273 272 272 272 271
295 295 297 297 296 297 297 297 296 287 284 285 286 289 287 283 279 274 274 279 278 277 280 280 279 281 282 281 278 283 280 281 276 282 278 271 270 275 275 274 273 274 274 273 274 273 274 274 273 272 271 270 269 269
294 295 295 298 297 297 297 296 293 294 292 286 282 277 276 277 269 269 269 275 275 278 279 281 277 280 284 282 281 281 278 277 279 277 271 271 272 275 274 273 272 273 273 272 271 271 270 267 267 267 264 262 261 260
294 294 294 296 297 296 296 295 295 289 282 274 272 271 270 273 274 272 275 277 278 276 275 275 280 278 277 276 272 269 275 280 275 273 270 268 272 273 273 273 272 269 268 267 265 265 264 263 259 256 256 255 257 258
294 293 293 294 295 296 296 295 292 285 278 274 274 264 271 272 276 279 276 279 279 284 277 277 278 280 277 276 280 276 272 268 270 269 269 267 273 272 271 271 268 267 264 263 261 262 260 259 262 258 256 256 258 254
293 292 290 294 293 295 294 292 287 283 280 276 278 273 271 273 270 270 279 282 284 282 282 281 277 272 274 274 278 275 275 268 269 269 267 272 272 271 269 269 267 265 264 263 263 263 262 261 262 260 257 258 255 256
290 284 293 294 294 293 292 287 285 280 277 277 274 278 278 273 272 273 280 284 286 283 282 282 273 273 279 277 275 279 270 270 267 266 269 272 271 269 267 266 265 265 264 264 263 263 261 261 262 265 263 259 260 259
283 289 294 294 292 290 288 286 281 279 275 271 269 267 270 278 280 281 281 283 283 284 283 278 279 275 276 273 269 271 267 266 269 266 265 266 267 267 268 266 265 266 265 264 264 262 262 261 264 262 262 261 262 262
288 290 293 293 290 287 283 283 282 273 270 269 268 273 278 279 279 277 277 281 283 285 283 277 272 271 271 271 270 263 263 267 268 264 261 260 266 267 265 265 265 263 265 263 264 265 265 265 265 265 265 266 264 264
293 293 293 293 292 285 281 281 282 278 273 273 273 276 275 276 276 274 279 279 283 283 281 275 273 273 273 271 270 269 267 270 269 267 262 261 261 265 266 267 267 265 265 264 263 265 265 265 266 267 266 267 265 264
290 290 291 288 287 287 282 279 279 278 277 273 276 278 272 277 275 272 274 281 280 280 278 274 268 266 269 266 269 270 272 273 272 271 270 266 263 268 266 266 266 268 267 265 266 263 264 265 266 267 261 258 257 259
288 290 286 286 283 283 282 281 278 278 276 277 277 278 272 269 270 276 277 275 276 275 272 269 269 275 269 269 267 270 270 272 271 270 269 269 267 267 267 266 268 266 266 265 267 265 266 267 266 265 260 255 257 257
289 285 283 282 276 277 275 283 276 278 274 273 278 275 273 272 274 278 272 274 272 269 268 269 268 269 268 265 271 270 269 272 270 270 269 270 269 268 269 267 269 267 267 267 269 267 265 264 264 263 258 256 256 254
287 277 276 274 274 266 278 275 280 278 276 275 273 271 271 273 276 271 270 269 266 270 271 268 271 270 272 273 269 269 269 272 270 269 270 270 269 269 270 270 271 270 271 270 270 267 265 263 262 262 257 253 252 254
272 270 274 268 277 273 273 269 274 275 268 271 270 266 272 272 266 265 266 266 274 276 275 273 272 272 269 266 267 268 272 273 271 269 268 272 270 270 270 270 271 271 271 266 262 261 257 258 261 260 258 257 260 257
265 267 272 272 272 273 272 267 268 268 266 267 269 267 266 265 267 266 268 270 270 275 276 276 276 274 271 272 270 271 272 273 273 270 270 273 272 271 270 269 268 267 269 268 266 264 263 263 262 262 261 261 260 260
267 269 277 281 280 280 275 275 276 271 268 266 264 262 264 263 261 266 270 271 272 273 275 274 278 277 275 272 272 272 273 273 271 271 272 273 272 273 273 270 269 270 269 269 268 268 267 265 264 264 264 262 262 262
272 274 271 273 276 277 275 274 274 273 272 272 270 265 262 264 263 265 267 269 270 273 274 274 275 275 274 272 271 271 268 267 267 269 269 267 264 262 264 265 266 271 269 269 268 266 266 266 265 264 265 265 265 262
273 275 274 268 269 269 269 271 271 271 271 272 268 263 263 267 264 264 266 267 269 272 269 269 268 268 269 269 269 269 270 271 267 264 262 261 261 265 260 261 265 266 266 265 267 267 266 266 265 264 264 264 264 262
269 273 267 265 267 267 266 268 266 266 270 270 270 269 267 264 264 266 265 265 265 265 268 266 265 264 264 266 265 266 266 266 266 269 269 266 267 262 262 262 261 259 261 264 264 265 268 262 263 259 259 258 258 259
275 274 271 269 268 265 266 265 264 266 266 265 264 264 264 265 265 265 264 263 265 265 264 264 269 269 268 268 266 264 266 265 264 265 264 263 262 263 262 260 258 261 262 263 262 260 261 258 257 259 261 260 260 261
272 270 270 268 267 268 268 266 265 264 264 263 262 261 262 261 258 261 263 262 262 262 263 264 263 261 264 270 271 271 270 268 267 266 266 263 262 261 263 262 260 261 261 262 260 258 258 259 259 260 261 261 260 261
266 265 263 264 265 265 266 266 265 264 262 260 259 257 254 255 254 257 260 262 260 261 262 262 265 265 264 264 264 264 262 260 264 267 266 265 264 264 262 263 261 261 261 261 260 260 260 260 259 259 259 260 260 261

GFSWCAN_sfc_thetae_129.txt.gz
Theta_e
301 301 301 301 300 300 300 300 300 300 299 299 299 301 301 301 300 295 293 293 290 286 286 290 292 287 286 285 283 285 284 284 283 280 280 280 280 282 281 283 281 279 278 277 278 275 273 284 284 279 281 286 284 284
300 301 301 301 300 299 299 299 300 299 299 299 300 301 300 300 300 297 291 294 293 288 287 291 292 292 292 290 287 285 284 284 285 281 281 282 281 282 281 278 285 279 282 279 280 279 284 285 283 285 285 283 283 283
300 300 300 300 299 299 299 300 300 299 300 299 300 300 300 300 300 296 291 291 290 287 287 289 288 293 294 294 293 286 286 289 287 287 284 283 280 283 279 280 282 284 286 282 281 283 282 283 284 285 285 283 284 283
300 300 299 299 299 299 299 299 299 299 299 299 300 300 300 300 299 295 290 291 290 287 285 286 293 290 294 294 293 292 291 291 289 288 285 283 281 285 282 283 283 284 285 281 281 283 282 283 283 283 284 284 283 282
300 300 299 299 299 299 299 299 299 299 299 299 299 299 300 299 298 294 292 292 292 288 283 284 289 291 293 293 292 292 291 288 286 285 284 283 285 285 284 285 281 285 282 280 279 283 283 282 283 284 283 282 282 281
299 299 299 299 299 299 298 298 298 299 299 299 299 299 298 296 293 290 285 292 294 291 286 282 287 289 292 293 292 291 291 289 288 286 284 284 285 285 281 280 283 285 286 287 283 284 284 283 282 283 283 281 280 280
298 299 299 299 299 298 298 298 298 299 299 299 298 297 297 297 292 286 285 291 297 293 284 281 283 288 292 291 289 291 293 290 289 286 285 285 285 287 281 278 284 285 286 286 286 284 281 281 279 282 281 280 279 278
299 299 299 299 298 298 298 298 298 298 298 298 297 297 297 296 293 290 295 298 295 288 285 280 281 287 293 286 286 288 289 290 288 286 286 284 285 284 279 282 284 285 284 283 281 282 281 279 279 279 280 279 276 275
298 299 299 299 298 298 298 298 298 298 298 296 295 293 289 286 284 290 297 295 293 287 280 280 280 280 289 285 286 286 287 283 284 283 284 284 281 279 281 283 284 284 283 280 280 279 279 277 276 276 276 276 275 274
299 299 298 298 298 298 298 298 298 298 297 293 288 283 278 285 293 296 289 285 284 287 285 280 283 283 286 284 282 283 285 281 278 282 285 281 282 278 280 282 281 283 283 282 279 276 276 275 275 274 274 274 274 273
298 298 298 298 298 297 298 298 298 296 292 285 281 281 287 294 287 283 278 279 282 279 282 282 283 283 287 282 280 283 282 283 276 281 281 279 278 278 279 278 278 279 279 279 280 280 280 278 275 274 273 273 273 272
298 298 298 298 297 298 298 297 295 287 286 286 288 290 288 283 279 277 276 279 279 278 281 281 282 284 286 285 283 283 280 282 277 283 280 276 279 277 277 276 276 276 276 276 277 276 276 276 275 274 272 271 271 270
296 296 297 297 297 298 297 295 293 293 291 286 283 278 277 277 271 271 270 275 276 279 281 282 281 284 285 285 283 283 279 277 282 279 277 279 277 277 276 275 274 275 275 274 273 273 272 270 271 270 267 266 266 264
295 296 296 296 297 297 295 296 294 290 284 277 275 272 271 271 273 275 277 278 280 281 280 280 281 282 282 280 279 277 279 281 275 272 275 278 276 275 275 275 273 272 271 270 268 268 266 266 263 263 263 262 264 264
295 295 296 296 296 296 296 294 291 285 280 275 275 267 273 274 276 280 279 280 281 284 282 282 282 283 279 277 280 277 275 272 274 275 278 276 275 274 273 273 271 270 267 266 266 265 264 264 265 263 262 263 264 262
293 293 292 296 296 295 294 290 286 284 280 277 277 273 274 275 274 276 279 282 284 284 283 284 279 276 278 278 278 276 274 272 276 278 276 275 274 274 273 272 270 268 268 266 266 266 266 265 266 266 263 264 262 264
291 287 294 295 295 294 293 287 283 280 277 276 270 278 279 277 275 277 280 283 286 283 283 283 276 276 280 278 276 279 275 278 278 275 274 275 274 272 271 269 267 267 267 267 266 267 266 266 266 267 267 266 266 266
286 291 293 292 290 290 288 284 281 279 275 272 270 270 277 273 277 280 281 284 284 284 284 282 281 277 274 275 275 278 276 272 272 273 273 272 272 271 271 269 268 268 268 267 267 266 265 265 267 268 268 268 267 267
290 291 292 292 291 286 283 283 282 273 271 272 272 275 279 277 281 279 280 281 284 285 284 280 276 276 277 278 279 276 272 273 274 271 269 267 271 270 268 268 267 268 267 267 267 268 268 269 270 270 271 270 270 270
293 293 293 293 292 283 281 280 283 278 275 275 276 277 277 277 279 279 280 280 282 283 281 279 277 279 279 280 278 279 275 273 271 270 269 268 269 268 269 269 270 269 268 267 269 268 269 269 270 271 272 271 271 271
290 290 291 289 285 285 281 280 279 279 277 275 277 278 275 277 277 277 276 281 279 279 278 279 278 276 271 272 273 274 274 274 274 276 273 270 267 271 269 270 269 270 270 269 269 269 269 271 273 273 272 272 271 271
286 290 285 286 281 283 282 282 279 279 277 278 278 279 274 271 273 276 278 276 276 276 276 276 276 276 276 274 273 274 273 274 273 272 270 270 269 269 269 269 270 269 270 270 271 271 271 272 273 272 271 270 266 268
288 285 282 282 274 275 277 283 276 278 273 273 278 275 273 272 275 279 276 276 274 273 273 273 272 272 272 270 272 272 272 274 273 273 272 273 273 272 271 270 272 270 270 270 272 272 271 270 269 271 269 266 267 267
286 276 270 272 274 267 278 275 280 278 276 274 274 271 272 274 276 273 272 271 272 276 276 275 275 274 274 274 273 272 273 274 272 272 272 272 271 271 272 272 272 272 273 273 272 272 271 270 269 268 267 267 266 267
272 269 273 270 277 274 273 268 272 275 271 273 273 271 274 275 270 269 269 271 274 276 275 276 277 276 275 272 271 272 273 274 273 272 272 273 272 271 271 272 272 273 274 272 270 270 269 268 268 268 266 267 267 266
267 267 272 269 266 272 272 268 272 271 269 269 272 270 271 271 270 269 270 270 271 273 273 273 273 275 276 275 274 273 273 275 274 273 272 273 273 272 271 270 270 271 273 274 272 271 270 268 268 267 267 266 264 267
266 266 276 280 280 280 276 276 277 273 270 269 269 267 269 266 265 268 271 270 270 271 272 274 274 275 277 276 275 274 274 275 274 273 274 274 274 275 274 272 271 274 273 273 272 271 271 269 268 268 268 268 268 267
273 274 271 273 276 277 276 275 274 273 274 273 271 270 268 267 267 265 268 269 268 269 271 274 274 274 274 275 274 272 270 270 270 271 272 271 269 271 271 273 273 272 274 274 274 273 272 271 270 269 268 268 268 267
273 275 274 269 271 272 272 272 271 272 272 274 273 268 266 265 264 263 265 266 267 268 269 268 271 271 271 271 271 271 272 273 273 270 270 270 270 273 270 270 272 272 272 271 268 270 271 270 270 269 268 269 269 268
269 273 268 265 267 268 267 269 268 268 271 272 271 269 266 264 265 266 264 264 264 264 264 266 269 269 268 269 269 271 271 272 272 273 272 271 273 272 269 269 270 269 268 269 270 270 270 268 267 265 265 265 266 265
275 273 271 268 266 266 267 268 267 268 268 268 267 267 264 263 264 264 263 263 264 264 264 263 263 264 263 266 269 270 271 271 271 271 271 271 270 270 268 267 267 267 268 269 268 268 267 267 268 267 266 265 265 265
271 271 269 266 267 267 266 267 267 267 265 266 264 264 263 263 259 261 262 262 262 261 262 262 262 263 265 265 267 267 267 268 269 268 269 270 268 267 267 266 266 267 267 267 267 267 267 267 266 266 265 265 265 265
268 268 267 267 267 268 268 268 268 266 266 264 262 261 259 260 258 260 262 262 260 260 260 261 262 264 265 265 265 265 265 265 264 265 263 263 262 264 265 266 266 267 266 266 266 266 265 265 265 265 265 265 264 264

GFSWCAN_sfc_thetae_132.txt.gz
Theta_e
302 302 301 301 301 301 301 301 300 300 299 299 301 301 301 300 300 300 298 300 300 294 293 295 294 292 291 292 287 290 288 289 290 286 286 286 286 287 285 286 284 283 283 283 282 280 277 288 287 283 283 286 286 286
300 301 301 301 300 300 300 300 300 300 299 300 301 301 301 301 299 299 297 300 301 297 293 297 296 297 296 295 292 291 289 289 291 289 290 290 286 287 286 281 289 282 286 285 284 282 286 289 286 287 286 284 284 285
299 301 301 300 300 300 299 300 300 300 299 300 301 300 300 300 299 300 298 298 300 295 294 294 292 297 299 298 299 290 292 293 292 295 293 291 285 290 284 285 285 286 288 285 284 284 285 286 287 288 287 285 285 285
299 300 300 300 300 299 299 299 299 300 300 301 300 300 300 299 298 300 298 298 300 297 290 289 296 294 298 299 299 299 296 296 295 296 292 290 287 290 288 288 288 289 288 285 283 285 285 286 287 286 285 285 284 284
299 300 300 300 299 299 299 299 299 299 300 300 300 300 299 299 299 300 300 300 299 296 289 289 294 295 297 299 297 298 296 294 293 291 290 288 291 290 291 290 287 290 286 283 283 287 286 285 286 287 285 284 284 283
299 300 299 299 299 299 299 298 299 299 300 300 300 299 297 295 294 298 293 299 300 299 293 286 292 293 296 297 297 296 296 295 295 291 290 291 291 291 286 285 287 289 290 289 286 288 287 286 286 287 285 283 284 283
299 299 299 299 299 299 298 297 298 299 299 299 298 298 298 299 299 292 291 297 298 300 293 287 287 293 295 295 296 296 297 295 294 292 291 291 290 292 288 284 288 288 288 288 288 286 283 284 282 284 283 282 282 282
299 299 299 299 299 298 297 297 297 297 299 298 299 298 297 297 297 294 298 298 299 295 294 287 285 289 295 290 289 295 293 294 293 292 291 290 290 291 284 287 287 288 288 287 287 288 287 284 283 282 283 282 280 279
299 299 298 298 298 297 297 298 298 298 298 297 295 294 295 293 292 293 297 298 299 295 288 288 284 283 294 291 293 293 292 285 292 288 288 289 287 283 286 286 286 288 287 285 286 285 284 282 281 281 281 280 279 278
298 298 298 298 297 298 297 298 298 297 295 293 293 289 285 290 295 297 294 291 291 291 291 287 291 285 291 291 288 288 289 286 282 286 290 285 286 285 287 290 289 289 287 286 283 281 281 280 280 280 279 279 279 278
299 298 298 298 297 298 298 297 297 295 293 291 287 285 289 295 293 290 285 285 286 283 288 288 289 286 293 287 285 290 284 284 279 284 283 283 283 285 286 286 287 288 287 287 287 287 285 284 281 279 278 277 277 277
299 299 298 298 298 298 298 297 295 293 291 292 292 293 293 288 285 282 281 283 283 281 285 286 288 290 289 295 288 287 281 284 279 287 283 281 287 284 284 282 282 284 285 284 285 283 283 281 281 279 277 276 276 275
298 298 298 298 298 298 297 295 294 295 295 293 289 285 285 282 277 276 274 278 280 284 284 286 285 288 290 292 286 285 280 281 288 281 280 286 284 283 283 282 281 283 282 281 280 280 279 278 277 276 274 272 271 270
298 297 297 298 298 296 295 295 295 292 292 285 282 276 278 276 278 280 281 283 285 286 285 288 285 288 290 285 284 280 284 285 279 277 280 289 283 282 282 282 280 279 278 277 276 275 273 271 270 271 271 270 269 269
297 297 297 297 296 296 296 294 292 293 289 282 281 275 278 281 283 283 284 286 286 287 287 287 289 290 286 283 285 282 279 277 279 281 287 288 283 281 280 279 278 276 273 273 273 271 270 269 269 269 269 271 271 268
296 295 292 295 296 295 293 293 293 292 286 283 281 279 281 282 282 284 284 284 288 288 290 291 285 284 282 284 280 279 278 277 284 288 288 284 281 280 279 279 277 275 274 273 273 272 271 270 270 271 270 271 269 270
292 288 294 295 294 293 294 293 291 284 282 280 280 283 283 283 282 283 285 285 288 288 285 287 281 280 285 281 279 283 281 287 289 288 286 284 281 280 279 277 274 273 273 273 272 272 272 273 272 271 270 271 271 271
287 292 295 294 294 293 291 290 286 283 279 281 282 281 282 285 285 285 286 288 287 287 287 284 286 281 280 278 281 287 288 287 285 285 285 282 281 279 278 277 273 273 273 273 272 272 272 270 271 273 273 272 273 272
290 291 293 293 292 291 286 286 287 279 280 282 282 282 283 284 286 286 287 287 288 287 287 286 282 282 283 287 288 290 287 287 286 282 281 278 280 277 277 275 274 274 273 272 273 274 274 273 276 276 276 274 275 275
292 293 293 293 292 288 283 284 289 282 280 283 284 282 284 285 286 283 285 286 286 285 284 282 285 288 289 290 289 290 289 286 283 281 280 278 278 275 276 275 276 276 274 274 275 275 275 274 276 276 276 276 276 276
291 291 292 292 289 288 285 284 283 283 282 282 283 284 283 284 284 284 284 285 283 282 284 288 288 287 282 282 283 284 284 284 285 287 286 280 279 279 278 278 277 276 276 275 275 275 275 276 276 276 277 277 278 278
290 290 291 290 285 285 284 286 284 284 283 282 283 283 282 281 282 283 284 282 283 284 282 281 282 281 282 283 282 281 281 281 280 279 279 279 277 278 278 278 276 276 277 277 277 276 276 277 278 278 278 278 277 277
289 289 287 285 280 280 279 286 281 282 278 279 281 278 279 280 282 283 279 280 281 281 280 279 279 279 278 279 278 278 278 279 282 282 280 281 281 281 280 278 278 277 276 277 278 278 277 277 277 278 278 277 276 276
288 283 279 278 280 276 280 279 282 281 280 279 278 274 277 280 281 279 278 279 280 281 279 279 280 280 282 280 281 282 281 281 282 281 281 280 279 279 279 279 279 279 279 279 277 278 278 277 277 276 277 276 276 275
278 276 278 273 278 276 276 277 278 278 275 276 275 276 278 280 277 276 276 277 278 277 277 278 278 279 278 280 282 282 278 280 280 280 280 280 280 279 277 278 278 279 279 278 276 277 277 278 277 277 276 275 275 274
273 276 275 276 277 276 276 275 275 276 276 275 276 277 278 278 274 274 275 276 276 276 274 274 275 276 278 280 279 281 281 281 280 279 280 279 279 279 278 276 276 276 278 279 278 277 277 276 276 275 275 275 274 275
273 276 280 282 282 282 279 280 280 278 275 275 276 275 275 273 273 272 275 273 272 274 274 275 275 276 277 278 280 280 280 280 279 279 280 280 279 279 280 278 276 279 279 278 279 278 278 277 276 276 276 277 276 274
279 279 276 279 279 281 278 278 278 277 278 277 277 274 273 272 271 270 271 271 271 272 274 276 277 276 276 277 278 279 278 277 277 278 278 278 278 279 278 280 279 277 280 279 279 279 279 279 278 277 277 276 276 276
278 280 279 275 276 278 278 278 278 277 276 279 278 273 269 267 267 267 268 269 271 272 271 272 274 276 278 278 277 277 278 279 277 274 274 277 278 279 279 279 280 279 280 279 277 279 279 279 278 278 278 277 277 277
276 280 277 274 274 276 276 276 276 275 275 275 274 271 268 267 267 268 268 268 268 268 269 270 271 271 272 274 276 276 277 277 277 277 277 277 277 278 278 279 279 279 279 279 278 276 274 275 273 273 274 273 274 273
278 278 276 275 274 275 274 274 274 275 275 274 273 271 268 266 267 267 266 267 268 268 268 267 269 269 269 269 270 273 274 276 275 276 276 277 278 277 276 276 277 278 278 277 276 276 275 274 275 274 273 272 272 271
276 275 274 271 272 273 274 274 274 274 273 273 270 269 268 268 264 265 265 265 266 265 264 265 265 266 268 269 270 271 269 272 272 272 272 274 275 273 273 274 274 275 275 274 274 274 273 273 273 272 272 270 270 270
272 273 272 272 271 271 272 273 272 270 271 269 266 266 265 265 261 263 267 266 264 264 263 264 265 267 268 268 268 269 270 270 269 268 267 267 266 269 273 274 274 273 273 273 272 272 271 270 270 270 269 269 269 268

GFSWCAN_sfc_thetae_135.txt.gz
Theta_e
300 301 302 302 301 301 300 300 300 300 299 300 301 301 301 300 300 301 302 306 304 299 297 299 299 295 295 294 289 292 290 291 290 288 288 288 288 289 288 289 287 286 285 284 286 282 279 290 290 284 286 288 287 287
300 300 301 301 300 300 300 300 300 300 300 300 301 301 300 300 300 299 300 305 307 300 296 302 300 301 300 299 296 295 292 291 293 292 292 291 288 290 289 284 291 285 289 288 287 284 290 291 289 290 289 287 286 286
300 300 301 301 300 300 300 300 300 300 300 301 301 300 300 300 299 300 302 305 303 301 297 298 296 300 302 302 303 293 295 296 295 299 295 294 287 293 287 288 287 289 291 288 287 287 288 289 290 289 289 287 287 288
299 300 301 300 300 300 300 300 300 300 301 301 301 300 300 299 299 303 302 305 303 298 292 292 301 297 302 303 301 302 299 300 299 298 295 293 290 294 291 291 290 291 291 287 285 288 288 288 288 288 287 286 286 287
299 299 300 300 300 300 299 299 299 300 301 301 300 300 300 301 302 304 304 303 304 300 290 291 298 300 301 301 299 300 298 296 295 293 293 291 293 293 294 293 290 292 289 286 286 290 288 287 289 289 286 286 286 285
299 300 300 300 299 299 298 298 299 299 300 301 300 299 296 295 296 301 298 303 305 304 294 287 296 296 299 299 298 296 297 297 297 294 293 294 294 293 288 287 290 292 293 293 288 292 291 289 290 289 287 286 286 285
299 300 300 299 299 299 298 299 298 297 300 299 298 299 299 300 301 296 294 298 299 305 295 288 289 295 297 297 297 296 298 297 297 294 294 293 291 293 291 287 290 290 290 292 292 290 286 287 285 287 287 286 284 284
299 299 299 299 299 298 298 298 299 299 299 300 299 299 299 300 299 296 298 300 301 300 298 288 286 289 297 291 290 298 294 295 294 293 294 292 292 293 287 290 290 290 290 289 289 290 289 287 286 285 285 284 283 282
299 299 298 298 298 298 298 298 299 299 299 297 296 297 298 297 295 296 297 299 304 300 292 291 286 284 296 293 293 294 294 287 294 288 290 292 289 285 289 290 289 290 288 288 289 289 287 285 284 284 284 283 282 281
298 298 298 298 297 297 297 297 298 298 296 295 297 293 287 293 296 298 298 295 295 295 296 291 293 287 293 292 289 289 290 285 282 288 292 287 289 291 291 293 292 292 291 291 287 285 286 284 284 284 283 284 283 282
298 298 297 297 297 297 297 297 297 295 295 294 290 287 295 296 296 294 288 288 289 286 292 291 291 288 295 288 287 291 285 286 281 285 284 284 286 288 292 292 292 292 291 291 290 290 289 287 285 283 282 282 281 281
299 298 297 297 297 297 297 296 295 294 293 294 294 296 295 291 289 286 284 285 285 283 288 288 289 291 293 296 289 289 283 285 280 290 283 283 289 290 291 290 290 291 290 289 290 289 288 286 285 284 282 281 280 279
298 298 298 298 297 297 297 295 296 296 297 295 291 287 288 285 280 279 276 281 282 285 288 289 287 291 293 292 287 287 282 283 289 283 282 289 289 289 289 288 288 289 289 288 287 286 285 283 283 281 279 277 275 274
298 298 298 298 297 297 295 297 297 294 294 288 284 278 281 279 282 284 284 286 287 288 289 291 288 289 290 286 286 282 286 287 280 279 281 291 288 288 288 287 287 286 285 283 282 281 279 277 275 275 274 274 273 271
298 298 298 297 296 296 297 295 292 297 292 284 285 278 280 283 285 284 287 288 288 290 289 290 290 291 287 283 286 284 280 279 282 283 290 292 288 287 286 286 285 282 280 279 279 277 274 274 273 273 273 274 274 272
298 297 296 296 297 296 295 294 297 295 289 286 284 281 284 284 283 285 286 285 289 290 292 292 287 285 284 285 282 281 280 279 286 291 292 289 286 286 285 284 283 281 279 279 278 275 274 273 273 274 274 275 272 272
293 291 296 295 295 295 295 297 294 286 284 283 281 286 286 285 284 285 288 286 291 289 286 288 282 280 287 283 281 286 284 289 292 291 292 290 285 284 284 282 279 277 278 278 276 276 275 275 275 274 273 274 274 274
291 294 294 295 296 295 296 294 289 285 280 285 284 283 284 287 286 286 288 290 290 288 288 285 288 283 282 280 283 290 292 292 292 291 290 286 286 285 283 281 278 278 278 277 276 276 275 275 274 275 276 275 275 275
292 293 294 294 294 294 289 289 290 281 283 285 285 286 286 286 288 289 289 290 290 291 290 288 284 284 286 290 290 293 293 293 291 288 285 284 284 282 282 280 278 278 278 277 277 277 277 276 278 279 279 277 277 277
294 293 293 294 294 289 284 286 292 284 282 285 287 286 287 287 287 285 289 290 290 289 286 284 286 288 287 287 289 290 291 294 290 287 285 283 283 281 281 279 280 280 278 278 278 278 278 278 279 280 280 278 278 279
291 291 292 294 293 291 288 287 285 286 285 285 287 287 286 288 287 287 287 289 286 285 285 289 286 285 284 285 288 288 289 289 291 291 292 285 283 283 282 282 282 281 279 279 279 279 278 279 279 280 281 280 280 281
290 291 292 292 288 287 286 289 286 288 286 285 285 286 284 282 284 285 288 285 285 286 284 283 283 283 285 284 283 284 283 284 284 285 284 285 283 283 283 283 282 281 281 281 280 280 279 280 281 280 280 280 280 280
290 292 289 287 283 283 281 289 283 284 280 282 284 281 281 282 284 285 281 284 282 283 283 283 282 282 282 283 283 283 282 282 287 287 285 286 287 286 285 284 283 282 281 282 282 282 281 281 281 281 280 280 280 279
290 286 282 282 283 278 284 281 285 283 283 281 280 277 279 281 282 280 279 281 281 282 281 281 282 282 284 284 284 285 285 285 286 287 287 286 285 285 285 284 284 284 284 284 282 282 282 281 281 280 280 279 278 278
281 279 281 277 281 279 278 279 279 280 277 279 277 278 280 282 278 278 278 279 280 279 278 279 280 281 279 280 282 283 282 283 284 284 285 285 285 285 283 284 283 284 284 283 282 281 281 281 280 279 279 279 277 277
275 279 278 279 279 278 279 276 277 278 279 278 279 281 281 279 276 276 277 278 278 277 276 276 276 277 279 280 280 281 282 284 283 283 284 284 284 283 282 281 280 281 283 283 282 280 280 280 279 278 278 278 278 278
274 277 282 285 284 283 281 282 282 280 278 277 279 278 278 275 276 275 276 275 275 276 276 277 277 277 277 278 280 281 281 282 281 281 282 283 283 283 283 281 280 282 283 282 281 281 280 280 279 279 279 279 279 278
281 281 277 280 281 283 279 280 279 278 280 282 281 277 276 275 273 272 273 273 274 275 276 278 279 278 278 279 279 280 281 281 281 281 282 282 282 282 281 282 282 279 282 282 281 281 281 281 280 279 279 279 279 280
279 282 282 277 279 281 281 280 280 280 279 281 280 277 272 270 270 271 272 273 275 275 274 274 276 277 279 282 280 280 280 281 280 278 278 279 281 280 281 282 282 282 282 281 280 281 281 281 281 280 280 280 281 281
279 283 279 278 277 278 279 279 279 279 279 278 276 273 272 270 270 272 271 272 271 271 272 273 274 274 274 274 277 278 279 279 278 277 277 277 278 280 280 280 281 281 281 281 280 280 277 279 277 278 278 278 278 278
281 280 278 278 278 278 278 279 279 279 279 277 277 276 271 269 269 270 269 270 271 271 271 271 272 272 271 271 272 273 274 275 275 275 276 278 279 278 278 278 278 279 279 280 280 280 278 278 277 277 277 276 276 275
279 278 278 274 276 276 277 277 278 278 276 276 273 272 271 271 267 268 268 269 269 268 267 268 268 269 270 272 272 273 272 273 272 272 272 273 276 277 277 277 277 278 278 278 278 277 276 276 277 276 275 274 273 272
276 277 277 276 275 274 276 276 275 273 275 272 270 270 269 269 264 266 269 269 267 267 267 267 269 269 270 271 271 272 273 274 273 271 270 270 269 272 276 276 276 276 276 275 275 275 274 273 273 272 271 271 271 271